[[{"header":{"parameterUnit":"m.s-1","parameterCategory":1,"la1":30.6,"la2":29.2853,"lo1":-89.7004,"lo2":-87.6739,"dy":0.0162,"dx":0.0183,"nx":112,"ny":82,"refTime":"2026-04-24T00:00:00:Z","depth":0,"parameterNumber":2,"parameterNumberName":"U-component_of_WINDS"},"data":[0.0,0.0,0.0,0.0,0.0,0.0,0.0,0.0,0.0,0.0,0.0,0.0,0.0,0.0,0.0,0.0,0.0,0.0,0.0,0.0,0.0,0.0,0.0,0.0,0.0,0.0,0.0,0.0,0.0,0.0,0.0,0.0,0.0,0.0,0.0,0.0,0.0,0.0,0.0,0.0,0.0,0.0,0.0,0.0,0.0,0.0,0.0,0.0,0.0,0.0,0.0,0.0,0.0,0.0,0.0,0.0,0.0,0.0,0.0,0.0,0.0,0.0,0.0,0.0,0.0,0.0,0.0,0.0,0.0,0.0,0.0,0.0,0.0,0.0,0.0,0.0,0.0,0.0,0.0,0.0,0.0,0.0,0.0,0.0,0.0,0.0,0.0,0.0,0.0,0.0,-1.6268,-1.7907,-2.0309,-2.162,-2.1155,-2.0766,-1.9492,-1.7039,0.0,0.0,0.0,0.0,0.0,0.0,0.0,0.0,0.0,0.0,0.0,0.0,0.0,0.0,0.0,0.0,0.0,0.0,0.0,0.0,0.0,0.0,0.0,0.0,0.0,0.0,0.0,0.0,0.0,0.0,0.0,0.0,0.0,0.0,0.0,0.0,0.0,0.0,0.0,0.0,0.0,0.0,0.0,0.0,0.0,0.0,0.0,0.0,0.0,0.0,0.0,0.0,0.0,0.0,0.0,0.0,0.0,0.0,0.0,0.0,0.0,0.0,0.0,0.0,0.0,0.0,0.0,0.0,0.0,0.0,0.0,0.0,0.0,0.0,0.0,0.0,0.0,0.0,0.0,0.0,0.0,0.0,0.0,0.0,0.0,0.0,0.0,0.0,0.0,0.0,0.0,0.0,0.0,0.0,0.0,0.0,0.0,0.0,0.0,0.0,0.0,0.0,0.0,0.0,-1.6609,-1.9867,-2.118,-2.1777,-2.1691,-2.0503,-1.9581,-1.9151,0.0,0.0,0.0,0.0,0.0,0.0,0.0,0.0,0.0,0.0,0.0,0.0,0.0,0.0,0.0,0.0,0.0,0.0,0.0,0.0,0.0,0.0,0.0,0.0,0.0,0.0,0.0,0.0,0.0,0.0,0.0,0.0,0.0,0.0,0.0,0.0,0.0,0.0,0.0,0.0,0.0,0.0,0.0,0.0,0.0,0.0,0.0,0.0,0.0,0.0,0.0,0.0,0.0,0.0,0.0,0.0,0.0,0.0,0.0,0.0,0.0,0.0,0.0,0.0,0.0,0.0,0.0,0.0,0.0,0.0,0.0,0.0,0.0,0.0,0.0,0.0,0.0,0.0,0.0,0.0,0.0,0.0,0.0,0.0,0.0,0.0,0.0,0.0,0.0,0.0,0.0,0.0,0.0,0.0,0.0,0.0,0.0,0.0,0.0,0.0,0.0,0.0,0.0,-1.5893,-1.7536,-2.0387,-2.1365,-2.1812,-2.1812,-2.0442,-1.9267,-1.8518,-1.5719,0.0,0.0,0.0,0.0,0.0,0.0,0.0,0.0,0.0,0.0,0.0,0.0,0.0,0.0,0.0,0.0,0.0,0.0,0.0,0.0,0.0,0.0,0.0,0.0,0.0,0.0,0.0,0.0,0.0,0.0,0.0,0.0,0.0,0.0,0.0,0.0,0.0,0.0,0.0,0.0,0.0,0.0,0.0,0.0,0.0,0.0,0.0,0.0,0.0,0.0,0.0,0.0,0.0,0.0,0.0,0.0,0.0,0.0,0.0,0.0,0.0,0.0,0.0,0.0,0.0,0.0,0.0,0.0,0.0,0.0,0.0,0.0,0.0,0.0,0.0,0.0,0.0,0.0,0.0,0.0,0.0,0.0,0.0,0.0,0.0,0.0,0.0,0.0,0.0,0.0,0.0,0.0,0.0,0.0,0.0,0.0,0.0,0.0,0.0,0.0,0.0,0.0,-1.7739,-1.8687,-2.0735,-2.1464,-2.1812,-2.1812,-2.0293,-1.8886,-1.7789,-1.4649,0.0,0.0,0.0,0.0,0.0,0.0,0.0,0.0,0.0,0.0,0.0,0.0,0.0,0.0,0.0,0.0,0.0,0.0,0.0,0.0,0.0,0.0,0.0,0.0,0.0,0.0,0.0,0.0,0.0,0.0,0.0,0.0,0.0,0.0,0.0,0.0,0.0,0.0,0.0,0.0,0.0,0.0,0.0,0.0,0.0,0.0,0.0,0.0,0.0,0.0,0.0,0.0,0.0,0.0,0.0,0.0,0.0,0.0,0.0,0.0,0.0,0.0,0.0,0.0,0.0,0.0,0.0,0.0,0.0,0.0,0.0,0.0,0.0,0.0,0.0,0.0,0.0,0.0,0.0,0.0,0.0,0.0,0.0,0.0,0.0,0.0,0.0,0.0,0.0,0.0,0.0,0.0,0.0,0.0,0.0,0.0,0.0,0.0,0.0,0.0,0.0,0.0,-1.8605,-2.0028,-2.1564,-2.1779,-2.1812,-2.1812,-1.9813,-1.8538,-1.8439,-1.4377,0.0,0.0,0.0,0.0,0.0,0.0,0.0,0.0,0.0,0.0,0.0,0.0,0.0,0.0,0.0,0.0,0.0,0.0,0.0,0.0,0.0,0.0,0.0,0.0,0.0,0.0,0.0,0.0,0.0,0.0,0.0,0.0,0.0,0.0,0.0,0.0,0.0,0.0,0.0,0.0,0.0,0.0,0.0,0.0,0.0,0.0,0.0,0.0,0.0,0.0,0.0,0.0,0.0,0.0,0.0,0.0,0.0,0.0,0.0,0.0,0.0,0.0,0.0,0.0,0.0,0.0,0.0,0.0,0.0,0.0,0.0,0.0,0.0,0.0,0.0,0.0,0.0,0.0,0.0,0.0,0.0,0.0,0.0,0.0,0.0,0.0,0.0,0.0,0.0,0.0,0.0,0.0,0.0,0.0,0.0,0.0,0.0,0.0,0.0,0.0,0.0,0.0,-1.8307,-1.9664,-2.1582,-2.1812,-2.1613,-2.1149,-1.9929,-1.8621,-1.7259,0.0,0.0,0.0,0.0,0.0,0.0,0.0,0.0,0.0,0.0,0.0,0.0,0.0,0.0,0.0,0.0,0.0,0.0,0.0,0.0,0.0,0.0,0.0,0.0,0.0,0.0,0.0,0.0,0.0,0.0,0.0,0.0,0.0,0.0,0.0,0.0,0.0,0.0,0.0,0.0,0.0,0.0,0.0,0.0,0.0,0.0,0.0,0.0,0.0,0.0,0.0,0.0,0.0,0.0,0.0,0.0,0.0,0.0,0.0,0.0,0.0,0.0,0.0,0.0,0.0,0.0,0.0,0.0,0.0,0.0,0.0,0.0,0.0,0.0,0.0,0.0,0.0,0.0,0.0,0.0,0.0,0.0,0.0,0.0,0.0,0.0,0.0,0.0,0.0,0.0,0.0,0.0,0.0,0.0,0.0,0.0,0.0,0.0,0.0,0.0,0.0,0.0,-1.7027,-1.8274,-1.9614,-2.1597,-2.1812,-2.1497,-2.0752,-1.9611,-1.8191,-1.6481,0.0,0.0,0.0,0.0,0.0,0.0,0.0,0.0,0.0,0.0,0.0,0.0,0.0,0.0,0.0,0.0,0.0,0.0,0.0,0.0,0.0,0.0,0.0,0.0,0.0,0.0,0.0,0.0,0.0,0.0,0.0,0.0,0.0,0.0,0.0,0.0,0.0,0.0,0.0,0.0,0.0,0.0,0.0,0.0,0.0,0.0,0.0,0.0,0.0,0.0,0.0,0.0,0.0,0.0,0.0,0.0,0.0,0.0,0.0,0.0,0.0,0.0,0.0,0.0,0.0,0.0,0.0,0.0,0.0,0.0,0.0,0.0,0.0,0.0,0.0,0.0,0.0,0.0,0.0,0.0,0.0,0.0,0.0,0.0,0.0,0.0,0.0,0.0,0.0,0.0,0.0,0.0,0.0,0.0,0.0,0.0,0.0,0.0,0.0,0.0,0.0,0.0,-1.7018,-1.8695,-2.016,-2.1632,-2.1812,-2.1497,-2.0752,-1.8729,-1.7148,0.0,0.0,0.0,0.0,0.0,0.0,0.0,0.0,0.0,0.0,0.0,0.0,0.0,0.0,0.0,0.0,0.0,0.0,0.0,0.0,0.0,0.0,0.0,0.0,0.0,0.0,0.0,0.0,0.0,0.0,0.0,0.0,0.0,0.0,0.0,0.0,0.0,0.0,0.0,0.0,0.0,0.0,0.0,0.0,0.0,0.0,0.0,0.0,0.0,0.0,0.0,0.0,0.0,0.0,0.0,0.0,0.0,0.0,0.0,0.0,0.0,0.0,0.0,0.0,0.0,0.0,0.0,0.0,0.0,0.0,0.0,0.0,0.0,0.0,0.0,0.0,0.0,0.0,0.0,0.0,0.0,0.0,0.0,0.0,0.0,0.0,0.0,0.0,0.0,0.0,0.0,0.0,0.0,0.0,0.0,0.0,0.0,0.0,0.0,0.0,0.0,0.0,0.0,-1.6964,-1.8617,-2.0094,-2.1574,-2.1723,-2.1228,-1.9957,-1.868,-1.7158,-1.5368,0.0,0.0,0.0,0.0,0.0,0.0,0.0,0.0,0.0,0.0,0.0,0.0,0.0,0.0,0.0,0.0,0.0,0.0,0.0,0.0,0.0,0.0,0.0,0.0,0.0,0.0,0.0,0.0,0.0,0.0,0.0,0.0,0.0,0.0,0.0,0.0,0.0,0.0,0.0,0.0,0.0,0.0,0.0,0.0,0.0,0.0,0.0,0.0,0.0,0.0,0.0,0.0,0.0,0.0,0.0,0.0,0.0,0.0,0.0,0.0,0.0,0.0,0.0,0.0,0.0,0.0,0.0,0.0,0.0,0.0,0.0,0.0,0.0,0.0,0.0,0.0,0.0,0.0,0.0,0.0,0.0,0.0,0.0,0.0,0.0,0.0,0.0,0.0,0.0,0.0,0.0,0.0,0.0,0.0,0.0,0.0,0.0,0.0,0.0,0.0,0.0,0.0,-1.6852,-1.8404,-1.9852,-2.1408,-2.1479,-2.0831,-1.9353,-1.8519,-1.7075,-1.474,0.0,0.0,0.0,0.0,0.0,0.0,0.0,0.0,0.0,0.0,0.0,0.0,0.0,0.0,0.0,0.0,0.0,0.0,0.0,0.0,0.0,0.0,0.0,0.0,0.0,0.0,0.0,0.0,0.0,0.0,0.0,0.0,0.0,0.0,0.0,0.0,0.0,0.0,0.0,0.0,0.0,0.0,0.0,0.0,0.0,0.0,0.0,0.0,0.0,0.0,0.0,0.0,0.0,0.0,0.0,0.0,0.0,0.0,0.0,0.0,0.0,0.0,0.0,0.0,0.0,0.0,0.0,0.0,0.0,0.0,0.0,0.0,0.0,0.0,0.0,0.0,0.0,0.0,0.0,0.0,0.0,0.0,0.0,0.0,0.0,0.0,0.0,0.0,0.0,0.0,0.0,0.0,0.0,0.0,0.0,0.0,0.0,0.0,0.0,0.0,0.0,0.0,-1.6662,-1.8102,-1.9501,-2.1131,-2.1087,-2.0369,-1.8957,-1.8263,-1.6873,-1.4502,0.0,0.0,0.0,0.0,0.0,0.0,0.0,0.0,0.0,0.0,0.0,0.0,0.0,0.0,0.0,0.0,0.0,0.0,0.0,0.0,0.0,0.0,0.0,0.0,0.0,0.0,0.0,0.0,0.0,0.0,0.0,0.0,0.0,0.0,0.0,0.0,0.0,0.0,0.0,0.0,0.0,0.0,0.0,0.0,0.0,0.0,0.0,0.0,0.0,0.0,0.0,0.0,0.0,0.0,0.0,0.0,0.0,0.0,0.0,0.0,-1.8013,0.0,0.0,0.0,0.0,0.0,0.0,0.0,0.0,0.0,0.0,0.0,0.0,0.0,0.0,0.0,0.0,0.0,0.0,0.0,0.0,0.0,0.0,0.0,0.0,0.0,0.0,0.0,0.0,0.0,0.0,0.0,0.0,0.0,0.0,0.0,0.0,0.0,0.0,0.0,0.0,0.0,-1.6088,-1.7707,-1.9137,-2.0409,-2.0483,-2.0105,-1.9247,-1.7929,-1.643,-1.4803,-1.2618,0.0,0.0,0.0,0.0,0.0,0.0,0.0,0.0,0.0,0.0,0.0,0.0,0.0,0.0,0.0,0.0,0.0,0.0,0.0,0.0,0.0,0.0,0.0,0.0,0.0,0.0,0.0,0.0,0.0,0.0,0.0,0.0,0.0,0.0,0.0,0.0,0.0,0.0,0.0,0.0,0.0,0.0,0.0,0.0,0.0,0.0,0.0,0.0,0.0,0.0,0.0,0.0,0.0,0.0,0.0,0.0,0.0,0.0,0.0,0.0,-1.9568,0.0,0.0,0.0,0.0,0.0,0.0,0.0,0.0,0.0,0.0,0.0,0.0,0.0,0.0,0.0,0.0,0.0,0.0,0.0,0.0,0.0,0.0,0.0,0.0,0.0,0.0,0.0,0.0,0.0,0.0,0.0,0.0,0.0,0.0,0.0,0.0,0.0,0.0,0.0,0.0,-1.6509,-1.7695,-1.8842,-2.0256,-2.0174,-1.9604,-1.858,-1.7804,-1.6593,-1.4734,-1.2939,0.0,0.0,0.0,0.0,0.0,0.0,0.0,0.0,0.0,0.0,0.0,0.0,0.0,0.0,0.0,0.0,0.0,0.0,0.0,0.0,0.0,0.0,0.0,0.0,0.0,0.0,0.0,0.0,0.0,0.0,0.0,0.0,0.0,0.0,0.0,0.0,0.0,0.0,0.0,0.0,0.0,0.0,0.0,0.0,0.0,0.0,0.0,0.0,0.0,0.0,0.0,0.0,0.0,-2.3262,-2.3971,-2.4644,-2.4606,-2.4611,-2.4547,-2.3326,-2.2914,-2.3024,-2.1442,0.0,0.0,0.0,0.0,0.0,0.0,0.0,0.0,0.0,0.0,0.0,0.0,0.0,0.0,0.0,0.0,0.0,0.0,0.0,0.0,0.0,0.0,0.0,0.0,-1.9978,-1.9167,-1.6171,0.0,0.0,0.0,0.0,0.0,0.0,0.0,0.0,0.0,0.0,0.0,-1.6999,-1.7746,-1.8643,-2.01,-1.9854,-1.9117,-1.7965,-1.7802,-1.6905,-1.4833,-1.3521,-1.2541,0.0,0.0,0.0,0.0,0.0,0.0,0.0,0.0,0.0,0.0,0.0,0.0,0.0,0.0,0.0,0.0,0.0,0.0,0.0,0.0,0.0,0.0,0.0,0.0,0.0,0.0,0.0,0.0,0.0,0.0,0.0,0.0,-1.4326,-1.4279,0.0,0.0,0.0,0.0,0.0,0.0,0.0,0.0,0.0,0.0,0.0,0.0,0.0,-2.1135,-2.1245,-2.3463,-2.4749,-2.5032,-2.5703,-2.6161,-2.6368,-2.6243,-2.6553,-2.7115,-2.6786,0.0,-2.364,-2.2757,0.0,0.0,0.0,0.0,0.0,0.0,0.0,0.0,0.0,0.0,0.0,0.0,0.0,0.0,0.0,0.0,0.0,0.0,0.0,0.0,0.0,0.0,-2.1282,-2.1466,-2.1499,-2.1383,0.0,-1.8414,-1.5972,-1.5033,-1.333,0.0,0.0,0.0,0.0,0.0,0.0,0.0,-1.6258,-1.7576,-1.8646,-1.9218,-1.9217,-1.9103,-1.8924,-1.7908,-1.6903,-1.601,-1.4761,-1.3788,-1.3189,-1.1937,0.0,0.0,0.0,0.0,0.0,0.0,0.0,0.0,0.0,0.0,0.0,0.0,0.0,0.0,0.0,0.0,0.0,0.0,0.0,0.0,0.0,0.0,0.0,0.0,0.0,0.0,0.0,0.0,0.0,-1.3972,-1.4944,-1.5796,-1.6539,-1.6833,0.0,0.0,0.0,0.0,0.0,0.0,0.0,0.0,0.0,-2.1714,-2.2915,-2.3763,-2.4218,-2.615,-2.7384,-2.7933,-2.867,-2.9052,-2.9107,-2.9071,-2.9215,-2.9506,-2.9448,-2.8811,-2.7671,-2.5552,-2.394,-2.2699,0.0,0.0,0.0,0.0,-2.1109,-2.1433,-2.2894,-2.2753,-2.2009,-2.2683,0.0,0.0,0.0,0.0,0.0,0.0,0.0,0.0,0.0,0.0,-2.251,-2.294,-2.304,-2.304,-2.304,-2.145,-1.9591,0.0,-1.6847,-1.5687,-1.4361,0.0,0.0,0.0,0.0,-1.6064,-1.7382,-1.8108,-1.8714,-1.927,-1.9195,-1.897,-1.8622,-1.7737,-1.6924,-1.6226,-1.4993,-1.4181,-1.3919,-1.2671,-1.1713,0.0,0.0,0.0,0.0,0.0,0.0,0.0,0.0,0.0,0.0,0.0,0.0,0.0,0.0,0.0,0.0,0.0,0.0,0.0,0.0,0.0,0.0,0.0,0.0,0.0,0.0,0.0,0.0,-1.5367,-1.6163,-1.7374,-1.806,-1.8185,0.0,0.0,0.0,0.0,0.0,0.0,-2.2351,-2.2795,-2.3536,-2.4683,-2.5697,-2.6512,-2.7127,-2.8509,-2.9518,-3.011,-3.0708,-3.0998,-3.0998,-3.0998,-3.0998,-3.0998,-3.0998,-3.0998,-3.0781,-2.7978,-2.6113,-2.4925,-2.3822,-2.2944,-2.2376,-2.3193,-2.3137,-2.2938,-2.4999,-2.4935,-2.4107,-2.4893,-2.4012,-2.2394,-2.112,0.0,0.0,0.0,0.0,-2.2177,-2.2558,-2.3056,-2.3653,-2.4398,-2.4564,-2.4564,-2.4564,-2.3984,-2.2857,0.0,-1.9899,-1.8788,-1.6799,0.0,0.0,0.0,-1.6258,-1.712,-1.8352,-1.859,-1.8853,-1.9343,-1.9217,-1.8927,-1.8477,-1.7661,-1.6996,-1.6503,-1.5254,-1.4558,-1.4558,-1.3326,-1.2439,-1.1983,0.0,0.0,0.0,0.0,0.0,0.0,0.0,0.0,0.0,0.0,0.0,0.0,0.0,0.0,0.0,0.0,0.0,0.0,0.0,0.0,0.0,0.0,0.0,0.0,0.0,0.0,0.0,0.0,0.0,-1.9168,-2.1202,0.0,0.0,0.0,0.0,-2.148,-2.2758,-2.3961,-2.4871,-2.6306,-2.7133,-2.7224,-2.8739,-2.9585,-2.9621,-3.0473,-3.0908,-3.0944,-3.098,-3.0998,-3.0998,-3.0998,-3.0998,-3.0998,-3.0998,-3.0998,-3.0871,-2.9179,-2.8437,-2.8189,-2.6501,-2.5561,-2.5174,-2.4892,-2.4978,-2.5211,-2.5163,-2.5542,-2.6171,-2.6902,-2.6138,-2.4795,-2.4017,-2.2791,0.0,0.0,-2.2758,-2.3172,-2.458,-2.4961,-2.5193,-2.5904,-2.6086,-2.6086,-2.6086,-2.5507,-2.4547,0.0,-2.098,-1.9635,-2.0062,0.0,-1.789,-1.793,-1.8414,-1.8616,-1.8276,-1.8728,-1.9076,-1.912,-1.9101,-1.9087,-1.9058,-1.7911,-1.72,-1.7139,-1.595,-1.524,-1.524,-1.402,-1.3336,-1.3307,-1.1015,0.0,0.0,0.0,0.0,0.0,0.0,0.0,0.0,0.0,0.0,0.0,0.0,0.0,0.0,0.0,0.0,0.0,0.0,0.0,0.0,0.0,0.0,0.0,0.0,0.0,0.0,0.0,0.0,-2.1903,-2.2942,0.0,-2.1804,-2.3033,-2.3809,-2.3551,-2.4734,-2.5935,-2.6974,-2.781,-2.8464,-2.8992,-2.9812,-3.0478,-3.0959,-3.1502,-3.2035,-3.2542,-3.2542,-3.2542,-3.2542,-3.2542,-3.2542,-3.2542,-3.2542,-3.2542,-3.2451,-3.1365,-3.0604,-3.0039,-2.9076,-2.8298,-2.7637,-2.6998,-2.6505,-2.6135,-2.5893,-2.597,-2.6235,-2.6518,-2.5922,-2.506,-2.4795,-2.4679,-2.4696,-2.4961,-2.5359,-2.5857,-2.6387,-2.6154,-2.5871,-2.6136,-2.6202,-2.6202,-2.6202,-2.5987,-2.5622,-2.5008,-2.3506,-2.2061,-2.1188,-2.0393,-1.9624,-1.8915,-1.874,-1.873,-1.876,-1.897,-1.9101,-1.9101,-1.9101,-1.9101,-1.9101,-1.794,-1.72,-1.72,-1.5602,-1.466,-1.466,-1.344,-1.2758,-1.2758,-1.1133,-0.9958,0.0,0.0,0.0,0.0,0.0,0.0,0.0,0.0,0.0,0.0,0.0,0.0,0.0,0.0,0.0,0.0,0.0,0.0,0.0,0.0,0.0,0.0,0.0,0.0,0.0,-2.1192,-2.2263,-2.3779,-2.4789,-2.4938,-2.3879,-2.5354,-2.6291,-2.5994,-2.6981,-2.7914,-2.8679,-2.9224,-2.9747,-3.0288,-3.0827,-3.145,-3.2194,-3.2611,-3.3211,-3.397,-3.4129,-3.4081,-3.381,-3.381,-3.3665,-3.3393,-3.3256,-3.3193,-3.3157,-3.2511,-3.1879,-3.1282,-3.0508,-2.9777,-2.9117,-2.8425,-2.7767,-2.7186,-2.6987,-2.6783,-2.6568,-2.6568,-2.6236,-2.5789,-2.5557,-2.5805,-2.6202,-2.6202,-2.6551,-2.6934,-2.6934,-2.6568,-2.6202,-2.6202,-2.6202,-2.6202,-2.6202,-2.6168,-2.6097,-2.599,-2.4898,-2.3615,-2.244,-2.1701,-2.099,-2.0119,-1.9564,-1.9291,-1.9415,-1.9246,-1.9101,-1.9101,-1.9101,-1.9101,-1.9101,-1.794,-1.72,-1.72,-1.5588,-1.4529,-1.4312,-1.3379,-1.278,-1.2565,-1.1331,-1.034,-0.9631,0.0,0.0,0.0,0.0,0.0,0.0,0.0,0.0,0.0,0.0,0.0,0.0,0.0,0.0,0.0,0.0,0.0,0.0,0.0,0.0,0.0,0.0,0.0,-2.2712,-2.3702,-2.4397,-2.4782,-2.6831,-2.7491,-2.5592,-2.8122,-2.9556,-2.8772,-2.9452,-2.9906,-2.9922,-3.0674,-3.1146,-3.1146,-3.1933,-3.2704,-3.3423,-3.3825,-3.4366,-3.5098,-3.5539,-3.5356,-3.4597,-3.4612,-3.4193,-3.34,-3.3024,-3.2829,-3.2763,-3.2453,-3.2231,-3.1969,-3.073,-2.9972,-2.9557,-2.9084,-2.8697,-2.8392,-2.8392,-2.7928,-2.7315,-2.7317,-2.7298,-2.7149,-2.6419,-2.6219,-2.6219,-2.6219,-2.6219,-2.6219,-2.6219,-2.6219,-2.6219,-2.6219,-2.6219,-2.6219,-2.6235,-2.6114,-2.599,-2.5899,-2.4982,-2.4169,-2.3951,-2.2874,-2.194,-2.158,-2.0956,0.0,-2.0142,-1.9537,-1.9116,-1.9101,-1.9101,-1.9101,-1.9101,-1.794,-1.72,-1.72,-1.5965,-1.495,-1.4326,-1.3955,-1.3487,-1.287,-1.171,-1.0431,-0.9112,0.0,0.0,0.0,0.0,0.0,0.0,0.0,0.0,0.0,0.0,0.0,0.0,0.0,0.0,0.0,0.0,0.0,0.0,0.0,0.0,0.0,-2.1605,-2.2658,-2.3712,-2.4726,-2.596,-2.7623,-2.8293,-2.8452,-2.8032,-2.8921,-2.9453,-2.9229,-2.9728,-3.0121,-3.0318,-3.1358,-3.198,-3.198,-3.2988,-3.3642,-3.3831,-3.4175,-3.4463,-3.4674,-3.48,-3.4748,-3.4535,-3.4829,-3.4552,-3.3854,-3.4029,-3.3622,-3.2779,-3.2651,-3.2368,-3.1951,-3.1321,-3.064,-2.9978,-2.9453,-2.8901,-2.8392,-2.8392,-2.8276,-2.8011,-2.7464,-2.7298,-2.7149,-2.6419,-2.6568,-2.7,-2.7,-2.7,-2.7,-2.7,-2.7,-2.7,-2.7,-2.7,-2.6982,-2.6871,-2.6389,-2.5936,-2.5712,-2.5144,-2.4611,-2.4319,-2.3692,-2.2941,-2.2078,-2.152,0.0,-2.02,-1.9943,-1.9638,-1.9159,-1.9101,-1.9101,-1.9101,-1.794,-1.72,-1.72,-1.5139,-1.4049,-1.4283,-1.3319,-1.2616,-1.2252,-1.1482,-1.0534,0.0,0.0,0.0,0.0,0.0,0.0,0.0,0.0,0.0,0.0,0.0,0.0,0.0,0.0,0.0,0.0,0.0,0.0,0.0,0.0,0.0,0.0,-2.3644,-2.4746,-2.5765,-2.6447,-2.7371,-2.8747,-2.929,-2.9522,-2.9471,-2.9887,-3.015,-3.015,-3.0696,-3.1085,-3.1261,-3.2207,-3.2767,-3.2767,-3.3397,-3.3895,-3.4202,-3.4592,-3.4946,-3.5257,-3.5414,-3.5297,-3.4926,-3.5151,-3.4818,-3.4041,-3.3811,-3.3318,-3.2634,-3.2161,-3.175,0.0,0.0,0.0,0.0,0.0,-2.9433,-2.8804,-2.8804,-2.8641,-2.8326,-2.7895,-2.7746,-2.7613,-2.6866,-2.6967,-2.7232,-2.6934,-2.6851,-2.6851,-2.6851,-2.7066,-2.7298,-2.7298,-2.7298,-2.728,-2.7189,-2.6556,-2.5954,-2.5749,-2.5397,0.0,-2.4823,-2.412,-2.331,-2.2538,-2.2023,-2.1501,-2.0965,-2.0436,-1.9957,-1.9566,-1.9275,-1.9101,-1.9101,-1.8201,0.0,0.0,0.0,-1.4486,-1.4321,-1.3333,0.0,0.0,0.0,0.0,0.0,0.0,0.0,0.0,-0.9115,-0.9253,0.0,0.0,0.0,0.0,0.0,0.0,0.0,0.0,0.0,0.0,0.0,0.0,0.0,0.0,0.0,0.0,-2.5492,-2.685,-2.8226,-2.8434,-2.8582,-2.8967,-2.9918,-3.0449,-3.0247,-3.0818,-3.1224,-3.1309,-3.1938,-3.2344,-3.2429,0.0,0.0,0.0,0.0,-3.3964,-3.4624,-3.5035,-3.557,-3.6237,-3.6597,-3.6297,-3.5499,-3.5538,-3.5064,-3.411,-3.311,-3.263,-3.2432,-3.1361,-3.0834,-3.0712,-3.1061,-3.114,-3.0985,-3.0634,-3.0092,-2.9512,-2.9512,0.0,0.0,-2.8542,-2.8508,-2.8376,-2.7647,-2.7415,-2.7265,-2.6535,-2.6318,-2.6301,-2.6219,-2.675,-2.7315,-2.7398,-2.7415,-2.7415,-2.7415,-2.6743,-2.6089,-2.5915,-2.564,-2.5394,-2.5259,-2.4271,-2.3377,-2.3068,-2.2498,-2.2077,-2.2004,-2.0944,-2.0175,-2.0117,0.0,0.0,-1.9101,-1.855,-1.7954,-1.7342,-1.6675,-1.5739,-1.4472,-1.3841,-1.3428,-1.3234,-1.3162,-1.2852,-1.23,-1.2425,-1.2253,-1.1763,-1.1109,-1.1098,0.0,0.0,0.0,0.0,0.0,0.0,0.0,0.0,0.0,0.0,0.0,0.0,0.0,0.0,0.0,-2.559,-2.6483,-2.7464,-2.8901,-2.92,-2.9515,-3.0179,-3.0206,-3.0406,-3.0956,-3.1106,-3.1464,-3.2039,-3.2226,-3.2564,-3.3152,-3.388,-3.4286,-3.4286,-3.4878,-3.5245,-3.538,-3.5491,-3.5603,-3.5734,0.0,0.0,-3.5508,-3.5848,-3.5486,-3.4552,-3.4083,-3.3352,-3.2434,-3.1582,-3.0942,-3.0547,-3.0613,-3.0634,-3.0613,-3.0531,-3.0406,-3.029,-3.029,-3.0191,-2.9992,-2.9417,-2.9218,-2.9085,-2.8392,-2.8177,0.0,-2.7282,-2.7083,-2.695,-2.6352,-2.675,-2.7448,-2.8044,-2.8177,-2.8158,-2.8048,-2.7429,-2.6662,-2.5905,-2.564,-2.5429,-2.497,-2.4328,-2.3861,-2.3812,-2.3187,-2.2548,-2.2062,-2.1307,-2.064,-2.0146,-1.9508,-1.9101,-1.9101,-1.855,-1.8143,-1.8013,-1.7388,-1.6438,-1.5159,-1.4923,-1.4363,-1.3385,-1.283,-1.2291,-1.1751,-1.2626,-1.2985,-1.2877,-1.1889,-1.1487,0.0,0.0,0.0,0.0,0.0,0.0,0.0,0.0,0.0,0.0,0.0,-2.2027,-2.3231,0.0,-2.5311,-2.6495,-2.7401,-2.8287,-2.9259,-2.9743,-3.0144,-3.0506,-3.0607,-3.0801,-3.1157,-3.119,-3.1495,-3.2242,-3.2649,-3.3169,-3.3914,-3.4658,-3.5064,-3.5064,-3.5397,-3.56,-3.56,-3.56,-3.56,-3.56,-3.56,-3.5571,-3.5514,-3.5706,-3.5491,-3.4974,-3.4372,-3.3583,-3.2609,-3.1395,-3.0736,-3.0506,-3.0506,-3.0506,-3.0506,-3.0506,-3.0506,-3.0506,-3.0506,-3.0506,-3.0439,-3.0075,-2.9943,-2.981,-2.9102,-2.8903,-2.8738,-2.8044,-2.758,-2.7216,-2.6851,-2.7298,-2.7945,-2.831,-2.8674,-2.8867,-2.8827,-2.7968,-2.7036,-2.6489,-2.6034,-2.5565,-2.4938,-2.4451,-2.4051,-2.3739,-2.3231,-2.2786,-2.249,-2.1888,-2.1249,-2.0611,-1.9986,-1.9464,-1.913,-1.855,-1.8201,-1.8201,-1.7577,-1.6742,-1.5688,-1.5617,-1.5134,-1.4163,-1.3828,-1.3526,-1.325,-1.3785,-1.4048,-1.4036,-1.3501,-1.325,0.0,0.0,0.0,0.0,0.0,0.0,0.0,-2.0519,-2.1723,-2.2676,-2.3204,-2.3996,-2.5586,-2.5961,-2.6379,-2.7371,-2.8187,-2.8936,-2.9609,-3.0108,-3.0465,-3.0619,-3.0974,-3.119,-3.119,-3.119,-3.1582,-3.2462,-3.3068,-3.3795,-3.4675,-3.5284,-3.56,-3.56,-3.56,-3.56,-3.56,-3.56,-3.56,-3.56,-3.56,-3.5571,-3.5492,-3.5492,-3.5423,-3.5258,-3.4391,-3.3512,-3.2595,-3.1264,-3.0621,-3.0506,-3.0506,-3.0506,-3.0506,-3.0506,-3.0506,-3.0506,-3.0506,-3.0506,-3.0506,-3.0506,-3.0506,-3.039,-2.9777,-2.9612,-2.9463,-2.8787,-2.8078,-2.7464,-2.735,-2.763,-2.8044,-2.8326,-2.8804,-2.9251,-2.9363,-2.8426,-2.7446,-2.7184,-2.6426,-2.5624,-2.5056,-2.4538,-2.4015,-2.3471,-2.3105,-2.2888,-2.2888,-2.2359,-2.1743,-2.1061,-2.0465,-1.9827,-1.9159,-1.8651,-1.8357,-1.8357,-1.7882,-1.7227,-1.6468,-1.6273,-1.5851,-1.5133,-1.4961,-1.4896,-1.4896,-1.4997,-1.5047,-1.506,-1.516,-1.5097,-2.0752,-1.983,-1.9478,-2.0071,-2.0886,-2.2051,0.0,-2.4713,-2.5262,-2.6728,-2.6534,-2.6538,-2.8021,-2.757,-2.7406,-2.8838,-2.8658,-2.8833,-3.0195,-3.025,-3.0385,-3.1046,-3.1159,-3.119,-3.119,-3.119,-3.1782,-3.3169,-3.3355,-3.4015,-3.5397,-3.5549,-3.56,-3.56,-3.56,-3.56,-3.56,-3.56,-3.56,-3.56,-3.56,-3.5571,-3.5492,-3.5492,-3.5423,-3.5258,-3.4391,-3.3206,-3.1886,-3.1591,-3.1085,-3.0506,-3.0506,-3.0506,-3.0506,-3.0506,-3.0506,-3.0506,-3.0506,-3.0506,-3.0506,-3.0506,-3.0506,-3.0472,-3.0406,-3.0373,-3.0208,-2.9479,-2.8787,-2.8127,-2.7464,-2.6884,-2.6783,-2.8094,-2.8459,-2.8674,-2.9284,-2.8804,-2.8078,-2.7396,-2.6297,-2.5397,-2.5192,-2.4436,-2.376,-2.345,-2.3105,-2.2888,-2.2888,-2.2359,-2.1743,-2.1061,-2.0465,-1.9827,-1.9159,-1.9043,-1.8999,-1.8999,-1.8927,-1.8614,-1.7975,-1.7279,-1.6561,-1.5878,-1.5234,-1.4896,-1.4896,-1.5387,-1.5605,-1.5618,-1.6107,-1.5806,-2.2774,-2.2444,-2.2226,-2.2575,-2.3639,-2.474,-2.5283,-2.6127,-2.6969,-2.7588,-2.8173,-2.8625,-2.8743,-2.8452,-2.8394,-2.8962,-2.8861,-2.9072,-3.011,-3.0185,-3.0378,-3.1106,-3.0818,-3.0734,-3.1157,-3.119,-3.1799,-3.3288,-3.3406,-3.4027,-3.5515,-3.56,-3.56,-3.56,-3.56,-3.56,-3.56,-3.56,-3.56,-3.56,-3.56,-3.5577,-3.5549,-3.5549,-3.5458,-3.5258,-3.4459,-3.3684,-3.2896,-3.1967,-3.1416,-3.1101,-3.0671,-3.0506,-3.0506,-3.0506,-3.0506,-3.0506,-3.0506,-3.0506,-3.0506,-3.0506,-3.0506,-3.0506,-3.0506,-3.0506,-3.0439,-3.0125,-2.9533,-2.882,-2.8127,-2.7713,-2.7531,-2.7713,-2.8392,-2.9069,-2.933,-2.9185,-2.8771,-2.8078,-2.694,-2.5828,-2.4985,-2.4359,-2.3782,-2.3194,-2.2986,-2.2888,-2.2888,-2.2693,-2.2272,-2.1641,-2.0683,-1.9986,-1.9711,-1.9319,-1.9101,-1.9101,-1.9101,-1.8891,-1.8389,-1.7794,-1.7221,-1.6705,-1.6125,-1.5831,-1.5831,-1.607,-1.617,-1.6183,-1.6387,-1.6249,-2.3823,-2.419,-2.4575,-2.4814,-2.608,-2.7181,-2.6806,-2.7633,-2.8498,-2.8649,-2.9283,-2.9631,-2.9081,-2.8882,-2.8856,-2.9008,-2.9093,-2.9406,-3.0296,-3.0412,-3.0598,-3.114,-3.0734,-3.0615,-3.114,-3.119,-3.1799,-3.3288,-3.3406,-3.4027,-3.5515,-3.56,-3.56,-3.56,-3.56,-3.56,-3.56,-3.56,-3.56,-3.56,-3.56,-3.56,-3.56,-3.56,-3.5503,-3.5321,-3.4745,-3.4257,-3.3775,-3.2663,-3.2078,-3.183,-3.1085,-3.0803,-3.0787,-3.0572,-3.0506,-3.0506,-3.0506,-3.0506,-3.0506,-3.0506,-3.0506,-3.0506,-3.0506,-3.0506,-3.0506,-3.0506,-2.9959,-2.9251,-2.8575,-2.8243,-2.8011,-2.768,-2.8392,-2.9234,-2.9612,-2.9529,-2.9268,-2.8754,-2.7418,-2.6074,-2.5105,-2.4332,-2.3625,-2.3045,-2.2925,-2.2888,-2.2888,-2.2765,-2.2475,-2.2048,-2.1003,-2.0277,-2.0117,-1.9653,-1.9304,-1.9116,-1.9101,-1.8969,-1.8688,-1.8108,-1.7659,-1.7372,-1.6799,-1.65,-1.65,-1.65,-1.65,-1.65,-1.65,-1.65,-2.3446,-2.4171,-2.5558,-2.6337,-2.7739,-2.9133,-2.9879,-3.0099,-3.0332,-3.104,-3.0051,-2.9101,-2.9345,-2.8802,-2.8546,-2.9263,-2.9386,-2.9795,-3.1012,-3.1157,-3.1173,-3.119,-3.1173,-3.1173,-3.119,-3.119,-3.1799,-3.3288,-3.3406,-3.4027,-3.5515,-3.56,-3.56,-3.56,-3.56,-3.56,-3.56,-3.56,-3.56,-3.56,-3.56,-3.56,-3.56,-3.56,-3.5571,-3.5492,-3.5321,-3.477,-3.3972,-3.3825,-3.3292,-3.258,-3.1846,-3.1565,-3.1482,-3.0754,-3.0506,-3.0506,-3.0506,-3.0506,-3.0506,-3.0506,-3.0506,-3.0506,-3.0506,-3.0506,-3.0506,-3.0506,-2.9959,-2.9251,-2.8575,-2.7862,-2.7497,-2.8194,-2.8392,-2.8807,-3.0158,-2.9893,-2.938,-2.9363,-2.7461,-2.5811,-2.5774,-2.4297,-2.3127,-2.3105,-2.2992,-2.2888,-2.2888,-2.2388,-2.2019,-2.1989,-2.138,-2.0741,-2.0146,-2.0074,-1.9783,-1.9145,-1.9101,-1.9082,-1.9082,-1.8266,-1.7787,-1.7767,-1.6934,-1.65,-1.65,-1.65,-1.65,-1.65,-1.65,-1.65,-2.475,-2.6153,-2.7849,-2.8124,-2.939,-3.065,-3.0925,-3.0999,-3.0925,-3.0644,-3.0583,-3.0277,-2.9258,-2.8968,-2.8948,-2.9107,-2.9161,-2.9515,-3.0408,-3.0501,-3.0649,-3.114,-3.0768,-3.0666,-3.114,-3.119,-3.1596,-3.2615,-3.3119,-3.3829,-3.4827,-3.5329,-3.56,-3.56,-3.56,-3.56,-3.56,-3.56,-3.56,-3.56,-3.56,-3.56,-3.56,-3.56,-3.5526,-3.536,-3.5314,-3.5025,-3.4555,-3.4011,-3.364,-3.3365,-3.2613,-3.2034,-3.1565,-3.1317,-3.0919,-3.0506,-3.0506,-3.0506,-3.0506,-3.0506,-3.0506,-3.0506,-3.0506,-3.0506,-3.0506,-3.0506,-3.0323,-2.9959,-2.9251,-2.8539,-2.7961,-2.7729,-2.7663,-2.7928,-2.8887,-2.9268,-2.9397,-2.9397,-2.8273,-2.6955,-2.5864,-2.4756,-2.382,-2.32,-2.2992,-2.2888,-2.2888,-2.2722,-2.2606,-2.2606,-2.2048,-2.1569,-2.138,-2.0944,-2.0422,-1.9798,-1.9769,-1.9566,-1.9116,-1.8266,-1.7787,-1.7787,-1.6942,-1.65,-1.65,-1.6911,-1.7087,-1.7099,-1.7463,-1.7639,-2.6686,-2.8026,-2.9574,-3.0143,-3.1072,-3.1825,-3.1825,-3.1604,-3.1091,-3.0008,-2.9953,-2.966,-2.8141,-2.7992,-2.8168,-2.8361,-2.869,-2.9229,-3.009,-3.0389,-3.0705,-3.1159,-3.0784,-3.0683,-3.114,-3.119,-3.1495,-3.2242,-3.2983,-3.3728,-3.4455,-3.5194,-3.56,-3.56,-3.56,-3.56,-3.56,-3.56,-3.56,-3.56,-3.56,-3.56,-3.56,-3.56,-3.5503,-3.5291,-3.5291,-3.5152,-3.4866,-3.4386,-3.4187,-3.4104,-3.3398,-3.2796,-3.231,-3.1797,-3.13,-3.0853,-3.0588,-3.0506,-3.0506,-3.0506,-3.0506,-3.0506,-3.0506,-3.0506,-3.0506,-3.0506,-3.0506,-3.0323,-2.9579,-2.8903,-2.8276,-2.7796,-2.7481,-2.7564,-2.8558,-2.9102,-2.9479,-2.9744,-2.8839,-2.7602,-2.6234,-2.4849,-2.3723,-2.3118,-2.297,-2.2888,-2.2888,-2.2888,-2.2888,-2.2888,-2.2548,-2.2236,-2.2019,-2.1598,-2.109,-2.0465,-2.0219,-1.9914,-1.9478,-1.8548,-1.8078,-1.8119,-1.7401,-1.7064,-1.7102,-1.7501,-1.7677,-1.7689,-1.8041,-1.8204,-2.906,-2.9684,-3.0687,-3.2216,-3.2601,-3.2601,-3.2601,-3.1916,-3.0834,-2.9262,-2.8282,-2.7313,-2.6139,-2.6002,-2.6335,-2.7141,-2.8042,-2.9004,-3.0059,-3.0836,-3.1274,-3.121,-3.1224,-3.1258,-3.1258,-3.1275,-3.1616,-3.231,0.0,-3.3728,-3.4455,-3.5194,-3.56,-3.56,-3.56,-3.56,-3.56,-3.56,-3.56,-3.56,-3.56,-3.56,-3.56,-3.56,-3.5503,-3.5291,-3.5291,-3.5152,-3.4899,-3.4899,-3.4899,-3.4833,-3.4121,-3.3822,-3.3624,-3.2227,-3.1664,-3.1499,-3.0803,-3.0522,-3.0506,-3.0506,-3.0506,-3.0506,-3.0506,-3.0506,-3.0506,-3.0506,-3.0506,-3.034,-2.9628,-2.8953,-2.8442,-2.8409,-2.7829,-2.7663,-2.9003,-2.9314,-2.9525,-3.027,-2.9027,-2.7579,-2.6764,-2.4589,-2.2931,-2.2902,-2.2888,-2.2888,-2.2888,-2.2888,-2.2888,-2.2888,-2.2888,-2.2678,-2.2091,-2.2048,-2.1757,-2.109,-2.0509,-2.0175,-2.0146,-1.9154,-1.8661,-1.8771,-1.8305,-1.8106,-1.8251,-1.8229,-1.8242,-1.8242,-1.8279,-1.8292,-2.9721,-3.0913,-3.2087,-3.2491,-3.2601,-3.2601,-3.2601,-3.1041,-2.9329,-2.8319,-2.699,-2.5739,-2.4823,-2.5292,-2.6043,-2.679,-2.811,-2.935,-3.0233,-3.0851,-3.123,-3.121,-3.1701,-3.2022,-3.2022,-3.251,-3.2916,-3.3102,-3.3288,-3.3728,-3.4455,-3.5194,-3.56,-3.56,-3.56,-3.56,-3.56,-3.56,-3.56,-3.56,-3.56,-3.56,-3.56,-3.56,-3.5503,-3.5291,-3.5291,-3.5152,-3.4899,-3.4899,-3.4899,-3.4883,-3.4684,-3.427,-3.374,-3.3375,-3.2525,-3.1565,-3.1383,-3.0952,-3.0506,-3.0506,-3.0506,-3.0506,-3.0506,-3.0506,-3.0506,-3.0506,-3.0506,-3.0456,-3.0257,-2.9678,-2.9019,-2.8525,-2.7829,-2.7398,-2.7763,-2.7955,-2.8286,-2.9023,-2.811,-2.6887,-2.583,-2.4543,-2.3484,-2.2975,-2.2888,-2.2888,-2.2888,-2.2888,-2.2888,-2.2888,-2.2888,-2.283,-2.2693,-2.2678,-2.2403,-2.1786,-2.1598,-2.1278,-2.0785,-2.0222,-1.9915,-1.9963,-1.9168,-1.8754,-1.8796,-1.8798,-1.8795,-1.8807,-1.9221,-1.9397,-3.1115,-3.2161,-3.3041,-3.2693,-3.2601,-3.2234,-3.0815,-2.9457,-2.7941,-2.608,-2.4979,-2.3978,-2.2722,-2.3408,-2.4384,-2.507,-2.6918,-2.8647,-2.9705,-3.0649,-3.1232,-3.121,-3.1853,-3.2293,-3.2293,-3.2966,-3.3541,-3.3863,-3.388,-3.4066,-3.4472,-3.5194,-3.56,-3.56,-3.56,-3.56,-3.56,-3.56,-3.56,-3.56,-3.56,-3.56,-3.56,-3.56,-3.5526,-3.54,0.0,-3.5245,-3.4994,-3.4994,-3.4947,-3.4899,-3.4899,-3.4651,-3.4237,-3.3905,-3.3061,-3.205,-3.1714,-3.1118,-3.0506,-3.0506,-3.0506,-3.0506,-3.0506,-3.0506,-3.0506,-3.0506,-3.0506,-3.0506,-3.0506,-2.9943,-2.9317,-2.892,-2.8044,-2.7381,-2.7696,-2.7868,-2.8127,-2.8763,-2.8041,-2.6955,-2.5868,-2.4692,-2.3775,-2.3389,-2.3099,-2.2888,-2.2888,-2.2888,-2.2888,-2.2888,-2.2888,-2.2888,-2.2888,-2.2888,-2.2765,-2.2417,-2.2149,-2.183,-2.1452,-2.0953,-2.0692,-2.0745,-2.0223,-1.9984,-2.0067,-1.9812,-1.9684,-1.9697,-1.9762,-1.9798,-3.2693,-3.3275,-3.3605,-3.2803,-3.2436,-3.1482,-2.8484,-2.7559,-2.6465,-2.3465,-2.2749,-2.2163,-2.0478,-2.1277,-2.2431,-2.3168,-2.5435,-2.762,-2.9143,-3.0418,-3.1191,-3.1193,-3.1938,-3.2466,-3.2446,-3.3203,-3.3964,-3.459,-3.4641,-3.4641,-3.4641,-3.5245,-3.56,-3.56,-3.56,-3.56,-3.56,-3.56,-3.56,-3.56,-3.56,-3.56,-3.56,-3.56,-3.5571,-3.5492,-3.5469,-3.5314,-3.5088,-3.5065,-3.4994,-3.4899,-3.4899,-3.4899,-3.4816,-3.417,-3.3408,-3.2619,-3.1984,-3.1201,-3.0506,-3.0506,-3.0506,-3.0506,-3.0506,-3.0506,-3.0506,-3.0506,-3.0506,-3.0506,-3.0506,-3.0026,-2.9512,-2.9413,-2.839,-2.758,-2.8127,-2.8268,-2.8432,-2.8896,-2.8302,-2.7388,-2.6382,-2.5048,-2.408,-2.3943,-2.3426,-2.2989,-2.2902,-2.2888,-2.2888,-2.2888,-2.2888,-2.2888,-2.2888,-2.2888,-2.2888,-2.2888,-2.2403,-2.212,-2.212,-2.1569,-2.1319,-2.1417,-2.1364,-2.1402,-2.1489,-2.0968,-2.0684,-2.0585,-2.0131,-1.9875,-3.3238,-3.3697,-3.3605,-3.2803,-3.1592,-3.0118,-2.8227,-2.6264,-2.4281,-2.24,-2.1437,-2.0631,-1.9651,-2.0974,-2.2633,-2.3961,-2.582,-2.7826,-2.9911,-3.0404,-3.0721,-3.1142,-3.249,-3.3324,-3.3203,-3.4438,-3.5261,-3.5397,-3.5397,-3.5397,-3.5397,-3.5532,-3.56,-3.56,-3.56,-3.56,-3.56,-3.56,-3.56,-3.56,-3.56,-3.56,-3.56,-3.56,-3.5571,-3.5492,-3.5377,0.0,-3.5088,-3.497,-3.4923,-3.4899,-3.4899,-3.4899,-3.4883,-3.475,-3.3856,-3.2685,-3.2547,-3.1636,-3.0506,-3.0506,-3.0506,-3.0506,-3.0506,-3.0506,-3.0506,-3.0506,-3.0506,-3.0506,-3.0506,-3.0406,-3.0158,-2.9529,-2.8787,-2.8078,-2.758,-2.7623,-2.7874,-2.8358,-2.8124,-2.7516,-2.6396,-2.5794,-2.5096,-2.4051,-2.3789,-2.3543,-2.296,-2.2888,-2.2888,-2.2888,-2.2888,-2.2888,-2.2888,-2.2888,-2.2888,-2.2888,-2.2786,-2.2751,-2.2751,-2.2635,-2.259,-2.2602,-2.2223,-2.2049,-2.2053,-2.1527,-2.1042,-2.061,-2.051,-2.0232,-3.2981,-3.3476,-3.3513,-3.2284,-3.1091,-2.9457,-2.6576,-2.4704,-2.2997,-2.0913,-2.017,-1.9615,-1.8729,-1.9902,-2.1338,-2.2318,-2.3765,-2.5805,-2.8819,-2.9246,-2.9702,-3.1085,-3.2652,-3.3549,-3.3406,-3.4721,-3.56,-3.56,-3.56,-3.56,-3.56,-3.56,-3.56,-3.56,-3.56,-3.56,-3.56,-3.56,-3.56,-3.56,-3.56,-3.56,-3.56,-3.56,-3.5577,-3.5566,-3.5481,-3.5389,-3.5291,-3.5158,-3.5065,-3.4994,-3.4923,-3.4899,-3.4899,-3.4899,-3.3955,-3.2702,-3.2702,-3.1735,-3.0506,-3.0506,-3.0506,-3.0506,-3.0506,-3.0506,-3.0506,-3.0506,-3.0506,-3.0506,-3.0506,-3.0506,-3.0406,-3.0059,-2.9433,-2.882,-2.8472,-2.8461,-2.8577,-2.8692,-2.8496,-2.7994,-2.6905,-2.6213,-2.56,-2.4965,-2.4312,-2.3775,-2.3447,-2.3128,-2.2888,-2.2888,-2.2888,-2.2888,-2.2888,-2.2888,-2.2888,-2.2888,-2.2888,-2.2888,-2.2888,-2.2888,-2.2888,-2.2888,-2.2684,-2.2555,-2.2555,-2.2077,-2.1684,-2.142,-2.114,-2.0881,-3.2546,-3.3073,-3.3201,-3.1764,-3.054,-2.8723,-2.5034,-2.3437,-2.2097,-1.9774,-1.9297,-1.9049,-1.8281,-1.9094,-2.0078,-2.0598,-2.1787,-2.3813,-2.7259,-2.798,-2.8886,-3.0874,-3.2474,-3.3403,-3.3448,-3.4607,-3.543,-3.5583,-3.56,-3.56,-3.56,-3.56,-3.56,-3.56,-3.56,-3.56,-3.56,-3.56,-3.56,-3.56,-3.56,-3.56,-3.56,-3.56,-3.56,-3.56,-3.5577,-3.5566,-3.5492,-3.5354,-3.5222,-3.5105,-3.4994,-3.4923,-3.4883,-3.4717,-3.3822,-3.2685,-3.2514,-3.1603,-3.0506,-3.0506,-3.0506,-3.0506,-3.0506,-3.0506,-3.0506,-3.0506,-3.0506,-3.0506,-3.0506,-3.0506,-3.0456,-3.029,-2.981,-2.9397,-2.9397,-2.932,-2.9225,-2.913,-2.8865,-2.8343,-2.7372,-2.6612,-2.6064,-2.5832,-2.482,-2.4051,-2.3905,-2.3302,-2.2888,-2.2888,-2.2888,-2.2888,-2.2888,-2.2888,-2.2888,-2.2888,-2.2888,-2.2888,-2.2888,-2.2888,-2.2888,-2.2888,-2.2888,-2.2888,-2.2888,-2.2532,-2.2301,-2.2184,-2.1779,-2.1513,-3.2399,-3.2656,-3.2491,-3.1623,-2.9707,-2.7346,-2.4777,-2.3006,-2.1408,-1.9664,-1.9297,-1.9225,-1.8957,-1.9443,-2.0078,-2.0598,-2.1831,-2.3519,-2.5886,-2.7443,-2.8887,-3.0303,-3.1786,-3.2943,-3.3522,-3.4198,-3.4878,-3.5549,-3.56,-3.56,-3.56,-3.56,-3.56,-3.56,-3.56,-3.56,-3.56,-3.56,-3.56,-3.56,-3.56,-3.56,-3.56,-3.56,-3.56,-3.56,-3.5543,-3.5514,0.0,-3.5354,-3.5222,-3.5088,-3.5105,-3.4994,-3.4816,-3.4137,-3.3375,-3.2597,-3.1912,-3.1168,-3.0506,-3.0506,-3.0506,-3.0506,-3.0506,-3.0506,-3.0506,-3.0506,-3.0506,-3.0506,-3.0506,-3.0506,-3.0323,-2.9661,-2.9446,-2.9397,-2.9397,-2.9075,-2.8828,-2.9062,-2.8795,-2.8222,-2.7346,-2.724,-2.6912,-2.5955,-2.5172,-2.452,-2.3963,-2.3302,-2.2888,-2.2888,-2.2888,-2.2888,-2.2888,-2.2888,-2.2888,-2.2888,-2.2888,-2.2888,-2.2888,-2.2888,-2.2888,-2.2888,-2.2888,-2.2888,-2.2888,-2.2865,-2.2615,-2.2208,-2.2147,-2.1874,-3.0344,-3.1146,-3.1678,-3.087,-2.9219,-2.7174,-2.474,-2.2969,-2.1317,-1.9646,-1.9297,-1.9274,-1.9204,-1.9209,-1.9454,-2.0109,-2.0081,-2.0928,-2.3626,-2.4959,-2.6495,-2.8802,-3.0822,-3.2254,-3.288,-3.4019,-3.5023,-3.5661,-3.5644,-3.56,-3.56,-3.56,-3.56,-3.56,-3.56,-3.56,-3.56,-3.56,-3.56,-3.56,-3.56,-3.56,-3.56,-3.56,-3.56,-3.56,-3.5571,-3.5318,0.0,-3.4746,-3.4404,-3.3957,-3.3868,-3.3778,-3.3649,-3.3366,-3.2724,-3.2017,-3.1697,-3.1118,-3.0506,-3.0506,-3.0506,-3.0506,-3.0506,-3.0506,-3.0506,-3.0506,-3.0506,-3.0506,-3.0506,-3.0506,-3.0423,-3.0125,-3.0059,-3.0059,-3.0059,-2.9935,-2.9597,-2.8984,-2.8621,-2.8208,-2.7457,-2.6898,-2.6528,-2.6469,-2.5557,-2.4705,-2.4269,-2.3628,-2.3105,-2.291,-2.2888,-2.2888,-2.2888,-2.2888,-2.2888,-2.2888,-2.2888,-2.2888,-2.2888,-2.2888,-2.2888,-2.2888,-2.2888,-2.2888,-2.2888,-2.2888,-2.2797,-2.2615,-2.2615,-2.2509,-2.8583,-2.9475,-3.0203,-2.9622,-2.8282,-2.6531,-2.4337,-2.2786,-2.1317,-1.9646,-1.9297,-1.9282,-1.9227,-1.8982,-1.894,-1.9414,-1.8944,-1.951,-2.2302,-2.3543,-2.5168,-2.7926,-2.9849,-3.1285,-3.2159,-3.3854,-3.5062,-3.546,-3.5593,-3.5644,-3.56,-3.56,-3.56,-3.56,-3.56,-3.56,-3.56,-3.56,-3.56,-3.56,-3.56,-3.56,-3.56,-3.56,-3.5481,-3.5261,-3.5261,-3.4861,0.0,-3.4081,-3.3696,-3.3198,-3.3113,-3.3004,-3.2917,-3.2717,-3.2214,-3.1646,-3.1414,-3.0957,-3.0506,-3.0506,-3.0506,-3.0506,-3.0506,-3.0506,-3.0506,-3.0506,-3.0506,-3.0506,-3.0506,-3.0506,-3.0506,-3.0506,-3.0506,-3.0506,-3.0506,-3.0384,-2.9964,-2.8913,-2.8506,-2.8072,-2.7248,-2.6588,-2.6275,-2.6569,-2.5629,-2.4814,-2.459,-2.3881,-2.3312,-2.3075,-2.2955,-2.2888,-2.2888,-2.2888,-2.2888,-2.2888,-2.2888,-2.2888,-2.2888,-2.2888,-2.2888,-2.2888,-2.2888,-2.2888,-2.2888,-2.2888,-2.2888,-2.2888,-2.2888,-2.3012,-2.7596,-2.7824,-2.7835,-2.7835,-2.6623,-2.5007,-2.3373,-2.2373,-2.1317,-1.9646,-1.9297,-1.9243,-1.9048,-1.8895,-1.8752,-1.8551,-1.8954,-2.0096,-2.2371,-2.4008,-2.5833,-2.8127,-2.9008,-3.0003,-3.1478,-3.361,-3.484,-3.4725,-3.5387,0.0,-3.56,-3.56,-3.56,-3.56,-3.56,-3.56,-3.56,-3.56,-3.56,-3.56,-3.56,-3.56,-3.56,-3.56,-3.5194,-3.4506,-3.4506,-3.4083,0.0,-3.3423,-3.3322,-3.3198,-3.3198,-3.3113,-3.2926,-3.2244,-3.193,-3.1691,-3.0958,-3.0609,-3.0506,-3.0506,-3.0506,-3.0506,-3.0506,-3.0506,-3.0506,-3.0506,-3.0506,-3.0506,-3.0506,-3.0506,-3.0506,-3.0506,-3.0506,-3.0506,-3.0506,-3.0135,-2.9583,-2.8833,-2.8442,-2.7804,-2.6627,-2.6519,-2.643,-2.5971,-2.5326,-2.4902,-2.4902,-2.4036,-2.3406,-2.3384,-2.3098,-2.2888,-2.2888,-2.2888,-2.2888,-2.2888,-2.2888,-2.2888,-2.2888,-2.2888,-2.2888,-2.2888,-2.2888,-2.2888,-2.2888,-2.2888,-2.2888,-2.2888,-2.2888,-2.3258,-2.4605,-2.5321,-2.6035,-2.5485,-2.4538,-2.3474,-2.2409,-2.1528,-2.0611,-1.9517,-1.9297,-1.9282,-1.9227,-1.8982,-1.9118,-2.0058,-2.0127,-2.067,-2.2457,-2.4456,-2.623,-2.7489,-2.9575,-3.1326,-3.2399,-3.3,-3.357,-3.4103,-3.4708,-3.5026,-3.4982,-3.5374,-3.56,-3.56,-3.56,-3.56,-3.56,-3.56,-3.56,-3.56,-3.56,-3.56,-3.5583,-3.5081,-3.4726,-3.4455,-3.3964,-3.3322,-3.2666,-3.2666,-3.232,-3.1823,-3.1823,-3.1763,-3.1607,-3.1348,-3.1161,-3.1008,-3.0672,-3.0547,-3.0506,-3.0506,-3.0506,-3.0506,-3.0506,-3.0506,-3.0506,-3.0506,-3.0506,-3.0506,-3.0506,-3.0506,-3.0506,-3.0506,-3.0506,-3.0506,-3.0506,-3.0384,-2.9917,-2.8737,-2.8306,-2.7777,-2.673,-2.6077,-2.5772,-2.5951,-2.5394,-2.4875,-2.4662,-2.4336,-2.3952,-2.345,-2.3312,-2.315,-2.291,-2.2888,-2.2888,-2.2888,-2.2888,-2.2888,-2.2888,-2.2888,-2.2888,-2.2888,-2.2888,-2.2888,-2.2888,-2.2888,-2.3142,-2.3586,-2.3586,-2.3934,-2.2636,-2.3318,-2.3943,-2.3437,-2.2914,-2.2335,-2.15,-2.0896,-2.0272,-1.9481,-1.9243,-1.9219,-1.9282,-1.8965,-1.9007,-2.0006,-2.0077,-2.0618,-2.244,-2.4422,-2.6299,-2.7937,-3.0229,-3.1777,-3.2041,-3.2462,-3.2916,-3.3453,-3.4049,-3.4371,-3.4329,-3.4648,-3.4837,-3.4837,-3.5334,-3.5464,-3.5199,-3.5447,-3.5312,-3.4771,-3.5064,-3.5025,-3.4737,-3.4303,-3.3931,-3.3626,-3.3169,-3.2581,0.0,-3.1887,-3.1596,-3.119,-3.119,-3.1151,-3.1055,-3.0972,-3.0871,-3.077,-3.063,-3.0547,-3.0506,-3.0506,-3.0506,-3.0506,-3.0506,-3.0506,-3.0506,-3.0506,-3.0506,-3.0506,-3.0506,-3.0506,-3.0506,-3.0506,-3.0506,-3.0506,-3.0506,-3.0506,-3.0158,-2.9003,-2.8652,-2.8161,-2.6951,-2.6241,-2.5801,-2.5759,-2.535,-2.4946,-2.4722,-2.458,-2.4276,-2.3696,-2.3486,-2.3371,-2.3267,-2.3055,-2.2888,-2.2888,-2.2888,-2.3004,-2.3273,-2.3018,-2.312,-2.3598,-2.3403,-2.3403,-2.365,-2.3635,-2.3838,-2.4268,-2.4254,-2.4433,0.0,-2.1775,-2.1785,-2.1668,-2.1641,-2.1422,-2.0619,-2.0419,0.0,-1.9462,-1.9138,-1.9074,-1.9316,-1.8887,-1.8616,-1.8965,-1.9318,-2.032,-2.2543,-2.4267,-2.6385,-2.9248,-3.0903,-3.1524,-3.0834,-3.2024,-3.2796,-3.2735,-3.3402,-3.3774,-3.3635,-3.3622,-3.359,-3.359,-3.4825,-3.5115,-3.4421,-3.5115,-3.4754,-3.3406,-3.4083,-3.4066,-3.3406,-3.3355,-3.2949,0.0,-3.2242,-3.1836,-3.119,-3.119,-3.119,-3.119,-3.119,-3.119,-3.119,-3.1052,-3.0955,-3.0892,-3.0733,-3.0609,-3.0506,-3.0506,-3.0506,-3.0506,-3.0506,-3.0506,-3.0506,-3.0506,-3.0506,-3.0506,-3.0506,-3.0506,-3.0506,-3.0506,-3.0506,-3.0506,-3.0506,-3.0506,-3.0274,-2.9529,-2.9353,-2.8827,-2.7309,-2.6909,-2.6435,-2.5509,-2.5265,-2.5151,-2.5021,-2.4742,-2.4431,-2.4128,-2.3777,-2.3659,-2.3985,-2.3325,-2.2917,-2.2983,-2.296,-2.3244,-2.3862,-2.3345,-2.3583,-2.4795,-2.4254,-2.4268,-2.4878,-2.4839,-2.4853,-2.495,-2.4897,-2.4882,-2.01,0.0,-2.0831,-2.0195,-2.0048,-1.9977,0.0,-1.9658,-1.9596,-1.936,-1.9138,-1.9196,-1.9874,-1.9181,-1.9084,-2.0881,-2.1584,-2.2492,-2.4229,-2.6764,0.0,-3.0248,-3.1231,-3.1731,-3.1558,-3.1852,-3.2059,-3.2038,-3.2668,-3.3041,-3.3002,-3.3433,-3.3656,-3.359,-3.3909,-3.3948,-3.366,-3.3846,-3.3744,-3.3406,-3.3592,-3.3575,-3.3389,-3.2814,-3.2462,-3.2276,-3.1701,-3.136,-3.119,-3.119,-3.119,-3.119,-3.119,-3.119,-3.119,-3.1052,-3.0955,-3.0892,-3.0733,-3.0609,-3.0506,-3.0506,-3.0506,-3.0506,-3.0506,-3.0506,-3.0506,-3.0506,-3.0506,-3.0506,-3.0506,-3.0506,-3.0506,-3.0506,-3.0506,-3.0506,-3.0506,-3.0506,-3.0274,-2.9529,-2.9353,-2.8971,-2.7869,-2.7562,-2.7139,-2.615,-2.5958,-2.5711,-2.5069,-2.4926,-2.495,-2.5137,-2.5056,-2.5013,-2.5061,-2.3733,-2.3128,-2.363,-2.3659,-2.3731,-2.3876,-2.4239,-2.4534,-2.481,-2.4665,-2.4665,-2.4824,-2.4863,-2.511,-2.56,-2.556,-2.556,-1.9008,-1.9859,-2.0626,-2.0167,-2.0056,-2.0041,-1.9996,-1.9689,-1.9398,-1.9387,-1.9156,-1.9108,-1.9594,-1.9285,-1.9475,-2.109,-2.2109,-2.3491,0.0,0.0,-3.0593,-3.0679,-3.1645,-3.2162,0.0,-3.18,-3.18,-3.18,-3.2142,-3.2345,-3.2345,-3.2591,-3.2735,-3.2676,-3.2653,-3.2723,-3.2882,-3.3237,-3.3068,-3.2391,-3.273,-3.2713,-3.2374,-3.1989,-3.1802,-3.1769,-3.136,-3.119,-3.119,-3.119,-3.119,-3.119,-3.119,-3.119,-3.119,-3.1052,-3.0992,-3.0932,-3.0753,-3.0609,-3.0506,-3.0506,-3.0506,-3.0506,-3.0506,-3.0506,-3.0506,-3.0506,-3.0506,-3.0506,-3.0506,-3.0506,-3.0506,-3.0506,-3.0506,-3.0506,-3.0506,-3.0506,-3.0373,-2.9976,-2.9848,-2.9552,-2.8686,-2.8351,-2.7881,-2.6931,-2.6716,-2.6375,-2.5555,-2.546,-2.548,-2.5491,-2.5517,-2.5599,-2.5834,-2.4743,-2.4122,-2.4297,-2.4326,-2.4457,-2.4747,-2.4849,-2.5009,-2.5255,-2.5549,-2.5734,-2.5734,-2.5749,-2.5948,-2.6242,-2.5948,-2.5803,-1.8432,-1.962,-2.0771,-2.0582,-2.063,-2.0678,-2.054,-1.9948,-1.942,-1.9453,-1.9158,-1.9002,-1.9315,-1.9536,-1.9959,-2.0859,-2.2257,0.0,-2.7213,-2.9937,-3.1386,-3.0765,-3.1903,0.0,-3.1852,-3.18,-3.18,-3.18,-3.18,-3.18,-3.18,-3.169,-3.1617,-3.1598,-3.1557,-3.173,-3.2164,-3.2788,-3.2462,-3.1207,-3.1836,-3.1802,-3.119,-3.119,-3.119,-3.119,0.0,0.0,-3.119,-3.119,-3.119,-3.119,-3.119,-3.119,-3.119,-3.1055,-3.0995,-3.0955,-3.0733,-3.0589,-3.0506,-3.0506,-3.0506,-3.0506,-3.0506,-3.0506,-3.0506,-3.0506,-3.0506,-3.0506,-3.0506,-3.0506,-3.0506,-3.0506,-3.0506,-3.0506,-3.0506,-3.0506,-3.0506,-3.0506,-3.0443,-3.0219,-2.9585,-2.9225,-2.8735,-2.7856,-2.7576,-2.7153,-2.6308,-2.6208,-2.6094,-2.5833,-2.5805,-2.6007,-2.6495,-2.6029,-2.5534,-2.5125,-2.5013,-2.5245,-2.5934,-2.5444,-2.544,-2.5948,-2.6515,-2.6806,-2.6806,-2.6806,-2.6806,-2.6806,-2.6224,-2.5905,-1.9008,-2.0084,-2.0622,-1.9936,-2.0288,-2.0597,-1.9844,-1.9589,-1.9453,-1.9344,-1.9153,-1.9327,-2.0428,-2.0521,-2.0865,-2.2176,-2.4174,-2.6421,0.0,0.0,-3.0835,-3.0696,0.0,-3.1921,-3.18,-3.18,-3.18,-3.18,-3.18,-3.18,-3.18,-3.1781,-3.1727,-3.1598,-3.1579,-3.1591,-3.163,-3.1621,-3.1492,-3.119,-3.1309,-3.1309,-3.119,-3.119,-3.119,-3.119,0.0,-3.119,-3.119,-3.119,-3.119,-3.119,-3.119,-3.119,-3.119,-3.1171,-3.1052,-3.0892,-3.063,-3.0526,-3.0506,-3.0506,-3.0506,-3.0506,-3.0506,-3.0506,-3.0506,-3.0506,-3.0506,-3.0506,-3.0506,-3.0506,-3.0506,-3.0506,-3.0506,-3.0506,-3.0506,-3.0506,-3.0506,-3.0506,-3.0506,-3.0431,-3.0269,-3.0189,-2.9842,-2.8914,-2.8649,-2.8227,-2.7294,-2.7089,-2.7062,-2.7162,-2.7178,-2.7217,-2.7239,-2.7149,-2.6912,-2.6515,-2.5952,-2.5937,-2.6631,-2.6573,-2.6533,-2.6646,-2.6762,-2.6806,-2.6806,-2.6806,-2.6806,-2.6806,-2.6678,-2.6355,-1.7912,-1.884,-1.9583,-2.0103,-2.1179,-2.1972,-2.1496,-2.1031,-2.0643,-2.0511,-2.0328,-2.0355,-2.0859,-2.1503,-2.2661,-2.4884,0.0,-2.83,-2.9351,-3.0196,-3.0714,0.0,0.0,-3.18,-3.18,-3.18,-3.18,-3.18,-3.18,-3.18,-3.18,-3.18,-3.1764,-3.1709,-3.1709,-3.1653,-3.1557,-3.1445,-3.1368,-3.1235,-3.1235,-3.1232,-3.119,-3.119,-3.119,-3.119,0.0,-3.119,-3.119,-3.119,-3.119,-3.119,-3.119,-3.119,-3.119,-3.119,-3.1072,-3.0892,-3.0753,-3.063,-3.0506,-3.0506,-3.0506,-3.0506,-3.0506,-3.0506,-3.0506,-3.0506,-3.0506,-3.0506,-3.0506,-3.0506,-3.0506,-3.0506,-3.0506,-3.0506,-3.0506,-3.0506,-3.0506,-3.0506,-3.0464,-3.0422,-3.0417,-3.0274,-3.001,-2.9518,-2.9356,-2.8941,-2.8019,-2.7838,-2.7797,-2.7807,-2.7619,-2.7549,-2.766,-2.7156,-2.6701,-2.6294,-2.6326,-2.6326,-2.6242,-2.6617,-2.6806,-2.6806,-2.6806,-2.6806,-2.6806,-2.6806,-2.6806,-2.6806,-2.6442,-2.6297,-1.7114,-1.7819,-1.8633,-2.0092,-2.1554,-2.2698,-2.293,-2.229,-2.1752,-2.1951,-2.1864,-2.1732,-2.1753,-2.2904,0.0,-2.7492,-2.8693,-2.9385,-2.9748,-3.0162,-3.0507,-3.0697,-3.1196,-3.161,-3.1783,-3.18,-3.18,-3.18,-3.18,-3.18,-3.18,-3.18,-3.18,-3.18,-3.18,-3.1746,-3.1653,-3.1595,-3.1483,-3.1295,-3.1276,-3.1252,-3.119,-3.119,-3.119,-3.119,-3.119,-3.119,-3.119,-3.119,-3.119,-3.119,-3.119,-3.119,-3.119,-3.1171,-3.1052,-3.0932,-3.0871,-3.0712,-3.0547,-3.051,-3.0506,-3.0506,-3.0506,-3.0506,-3.0506,-3.0506,-3.0506,-3.0506,-3.0506,-3.0506,-3.0506,-3.0506,-3.0506,-3.0506,-3.0506,-3.0506,-3.0506,-3.0506,-3.0464,-3.0422,-3.0422,-3.0231,-3.006,-2.9979,-2.982,-2.9466,-2.8716,-2.863,-2.8542,-2.8271,-2.8005,-2.7836,-2.7784,-2.7096,-2.6406,-2.5843,-2.6283,-2.6341,-2.5832,-2.6457,-2.6806,-2.6806,-2.6806,-2.6806,-2.6806,-2.6806,-2.6806,-2.6806,-2.6257,-2.6326,-1.7801,-1.8211,-1.8418,-1.9272,-2.0244,-2.1308,-2.2609,-2.2236,-2.1953,-2.3185,-2.3381,-2.3459,-2.3895,-2.517,-2.6904,-2.9173,-2.8985,-2.9072,-3.0508,0.0,-2.9868,-3.061,-3.0748,-3.1041,-3.1731,-3.18,-3.18,-3.18,-3.18,-3.18,-3.18,-3.18,-3.18,-3.18,-3.18,-3.18,-3.18,-3.1781,-3.1615,-3.1295,-3.1232,-3.121,-3.119,-3.119,-3.119,-3.119,-3.119,-3.119,-3.119,-3.119,-3.119,-3.119,-3.119,-3.119,-3.119,-3.1055,-3.0995,-3.0955,-3.0773,-3.0692,-3.0671,-3.0547,-3.0506,-3.0506,-3.0506,-3.0506,-3.0506,-3.0506,-3.0506,-3.0506,-3.0506,-3.0506,-3.0506,-3.0506,-3.0506,-3.0506,-3.0506,-3.0506,-3.0506,-3.0506,-3.0506,-3.0489,-3.0489,-3.0422,-3.0375,-3.0375,-3.0027,-2.9744,-2.9617,-2.9595,-2.9355,-2.8717,-2.8756,-2.8432,-2.7514,-2.7382,-2.6882,-2.5847,-2.5861,-2.5836,-2.5803,-2.6457,-2.6806,-2.6806,-2.6806,-2.6806,-2.6806,-2.6806,-2.6806,-2.6806,-2.6736,-2.6736,-1.7244,-1.8294,-1.9267,-2.0059,-2.1224,-2.2259,-2.2628,-2.3172,-2.384,-2.4712,-2.4821,-2.4938,-2.5591,-2.6449,-2.7685,-2.953,-2.9115,-2.9085,-3.0595,-2.9695,-2.9143,-2.9868,-2.9955,-3.0058,-3.0351,-3.0368,-3.0368,-3.0368,-3.0368,-3.0368,-3.0368,-3.0368,-3.0368,-3.0368,-3.0851,-3.111,-3.111,-3.1039,-3.0929,-3.0801,-3.1202,-3.1346,-3.1254,-3.123,-3.119,-3.119,-3.119,-3.119,-3.119,-3.119,-3.119,-3.119,-3.119,-3.119,-3.119,-3.1151,-3.1055,-3.0995,-3.0915,-3.0794,-3.0692,-3.0651,-3.0568,-3.0506,-3.0506,-3.0506,-3.0506,-3.0506,-3.0506,-3.0506,-3.0506,-3.0506,-3.0506,-3.0506,-3.0506,-3.0506,-3.0506,-3.0506,-3.0506,-3.0506,-3.0506,-3.0506,-3.0506,-3.0485,-3.0443,-3.0417,-3.0274,-3.0087,-2.9924,-2.988,-2.9732,-2.9357,-2.8772,-2.7957,-2.6867,-2.6537,-2.6057,-2.5241,-2.5952,-2.6239,-2.5832,-2.6457,-2.6806,-2.6806,-2.6806,-2.6806,-2.6806,-2.6806,-2.6806,-2.6806,-2.6806,-2.6806,-1.7021,-1.8109,-1.9286,-1.9786,-2.138,-2.2838,-2.2849,-2.3831,-2.5046,-2.6162,-2.629,-2.6409,-2.7163,-2.765,-2.8373,0.0,-2.9404,-2.9357,-3.0368,-2.938,-2.8724,-2.9126,-2.9195,-2.9265,-2.9489,-2.9506,-2.961,-2.9868,-2.9886,-2.9972,-3.0213,-3.0231,-3.0127,-2.9886,-3.0403,-3.0575,-3.0317,-3.047,-3.0554,-3.0571,-3.0976,-3.1103,-3.0955,-3.1152,-3.123,-3.119,-3.119,-3.119,-3.119,-3.119,-3.119,-3.119,-3.119,-3.119,-3.119,-3.119,-3.1151,-3.1055,-3.1015,-3.0915,-3.0773,-3.0712,-3.0651,-3.0568,-3.051,-3.0506,-3.0506,-3.0506,-3.0506,-3.0506,-3.0506,-3.0506,-3.0506,-3.0506,-3.0506,-3.0506,-3.0506,-3.0506,-3.0506,-3.0506,-3.0506,-3.0506,-3.0506,-3.0485,-3.0443,-3.0417,-3.0333,-3.021,-3.0017,-3.0038,-2.9995,-2.9814,-2.9067,-2.8158,-2.7024,-2.6649,-2.6172,-2.5473,-2.6286,-2.6515,-2.5832,-2.6457,-2.6806,-2.6806,-2.6806,-2.6806,-2.6806,-2.6806,-2.6806,-2.6806,-2.6806,-2.6806,-1.7318,-1.7668,-1.8195,-1.8052,-2.0291,-2.2689,-2.3281,-2.4047,-2.5262,-2.7455,-2.7795,-2.7932,-2.8662,-2.8866,-2.9127,-2.9783,-2.9889,-2.9889,-2.9907,-2.9214,-2.8665,-2.8517,-2.8517,-2.8779,-2.9437,-2.9489,-2.9817,-3.0645,-3.0697,-3.1007,-3.1731,-3.1783,-3.1438,-3.0696,-3.0714,-3.0317,-2.9523,-3.03,-3.0714,-3.0714,-3.0571,-3.0409,-3.0224,-3.0955,-3.1237,-3.119,-3.119,-3.119,-3.119,-3.119,-3.119,-3.119,-3.119,-3.119,-3.119,-3.119,-3.119,-3.1171,-3.1052,-3.0995,-3.0955,-3.0773,-3.0692,-3.0671,-3.0547,-3.0506,-3.0506,-3.0506,-3.0506,-3.0506,-3.0506,-3.0506,-3.0506,-3.0506,-3.0506,-3.0506,-3.0506,-3.0506,-3.0506,-3.0506,-3.0506,-3.0506,-3.0506,-3.0443,-3.0396,-3.0396,-3.0167,-2.9995,-2.9995,-3.0124,-3.0146,-3.0017,-2.9814,-2.9259,-2.8198,-2.7987,-2.758,-2.6858,-2.6806,-2.6515,-2.5847,-2.6457,-2.6806,-2.6806,-2.6806,-2.6806,-2.6806,-2.6806,-2.6806,-2.6806,-2.6806,-2.6806,-1.7318,-1.888,-2.0588,-1.9979,-2.2414,-2.4997,-2.5123,-2.5671,-2.6605,-2.8267,-2.8559,-2.8614,-2.8829,-2.9353,-2.9809,-3.0021,-3.004,-3.0199,-3.0693,-3.0048,-2.951,-2.9411,-2.896,-2.891,-2.9573,-2.9124,-2.9091,-2.9799,-2.9868,-2.9955,-3.0179,-3.0179,-3.0075,-2.9868,-3.0386,-3.0593,-3.0351,-3.0575,-3.0714,-3.0714,-3.0661,-3.0571,-3.0392,-2.9957,-3.0019,-3.0491,-3.0448,-3.0717,-3.119,-3.119,-3.119,-3.119,-3.119,-3.119,-3.119,-3.119,-3.119,-3.119,-3.1151,-3.1052,-3.0932,-3.0871,-3.0712,-3.0568,-3.051,-3.0506,-3.0506,-3.0506,-3.0506,-3.0506,-3.0506,-3.0506,-3.0506,-3.0506,-3.0506,-3.0506,-3.0506,-3.0506,-3.0506,-3.0506,-3.0506,-3.0506,-3.0506,-3.0468,-3.0464,-3.0464,-3.0401,-3.0359,-3.0359,-3.0253,-3.0146,-3.0017,-2.947,-2.8974,-2.8559,-2.7919,-2.7448,-2.7248,-2.6963,-2.6718,-2.6515,-2.6704,-2.6806,-2.6806,-2.6806,-2.6806,-2.6806,-2.6806,-2.6806,-2.6806,-2.6806,-2.6806,-1.7964,-1.9536,-2.1248,-2.1307,-2.3446,-2.5739,-2.6534,-2.6924,-2.7501,-2.8664,-2.8649,-2.8526,-2.8842,-2.9299,0.0,-3.0053,-3.0352,-3.0687,-3.1093,-3.0725,-3.0272,-2.9893,-2.944,-2.9321,-2.9691,-2.931,-2.9311,-3.0006,-3.0041,-3.0128,-3.0438,-3.0421,-3.0282,-2.9989,-3.0437,-3.0559,-3.0231,-3.0524,-3.0714,-3.0714,-3.0714,-3.0661,-3.0572,-3.0238,-3.0299,-3.0632,-3.0569,-3.0632,-3.0784,-3.1072,-3.119,-3.119,-3.119,-3.119,-3.119,-3.119,-3.119,-3.119,-3.119,-3.1112,-3.1012,-3.0932,-3.0794,-3.0651,-3.0531,-3.0506,-3.0506,-3.0506,-3.0506,-3.0506,-3.0506,-3.0506,-3.0506,-3.0506,-3.0506,-3.0506,-3.0506,-3.0506,-3.0506,-3.0506,-3.0506,-3.0506,-3.0506,-3.0506,-3.0506,-3.0506,-3.0506,-3.0506,-3.0464,-3.038,-3.0253,-3.0103,-2.9694,-2.9296,-2.8996,-2.8448,-2.8018,-2.7785,-2.7367,-2.7115,-2.7041,-2.6884,-2.6806,-2.6806,-2.6806,-2.6806,-2.6806,-2.6806,-2.6806,-2.6806,-2.6806,-2.6806,-1.8846,-1.9716,-2.078,-2.207,-2.3647,-2.5385,-2.7416,-2.7795,-2.7929,-2.8737,-2.8315,-2.8035,-2.8772,-2.8965,-2.9228,-2.9878,-3.0615,-3.1089,-3.1089,-3.1089,-3.081,-3.0009,-2.9923,-2.9908,-2.9912,-2.993,-3.0209,-3.0941,-3.0942,-3.1202,-3.186,-3.1856,-3.1508,-3.0817,-3.08,-3.0437,-2.973,-3.042,-3.08,-3.08,-3.08,-3.08,-3.08,-3.1225,-3.1333,-3.121,-3.1215,-3.0804,-3.0176,-3.0903,-3.1157,-3.1106,-3.1173,-3.119,-3.119,-3.119,-3.119,-3.119,-3.119,-3.119,-3.1151,-3.0972,-3.0892,-3.0831,-3.0589,-3.0506,-3.0506,-3.0506,-3.0506,-3.0506,-3.0506,-3.0506,-3.0506,-3.0506,-3.0506,-3.0506,-3.0506,-3.0506,-3.0506,-3.0506,-3.0506,-3.0506,-3.0506,-3.0506,-3.0506,-3.0506,-3.0506,-3.0485,-3.0417,-3.0464,-3.0422,-3.0231,-3.0205,-2.9979,-2.9512,-2.9309,-2.8973,-2.8408,-2.8006,-2.7715,-2.7539,-2.7067,-2.6806,-2.6806,-2.6806,-2.6806,-2.6806,-2.6806,-2.6806,-2.6806,-2.6806,-2.6806,-1.8225,-1.9611,-2.1243,-2.2103,-2.3845,-2.5773,-2.739,-2.7716,-2.7929,-2.8737,-2.8754,-2.8684,-2.8877,-2.9421,-2.9702,-2.9228,-2.9825,-3.0352,-3.0352,-3.0352,-3.0265,-3.0074,-3.0056,-3.0252,-3.0764,-3.0816,-3.1097,-3.1795,-3.1829,-3.1828,-3.1894,-3.1893,-3.177,-3.1558,-3.1558,-3.1472,-3.13,-3.1472,-3.1558,-3.1558,-3.1558,-3.1558,-3.1524,-3.0383,-3.0085,-3.0479,-3.1038,-3.0828,-3.0176,-3.0903,-3.0852,-3.0395,-3.097,-3.119,-3.119,-3.119,-3.119,-3.119,-3.119,-3.1131,-3.1052,-3.0995,-3.0875,-3.0733,-3.0671,-3.0572,-3.0506,-3.0506,-3.0506,-3.0506,-3.0506,-3.0506,-3.0506,-3.0506,-3.0506,-3.0506,-3.0506,-3.0506,-3.0506,-3.0506,-3.0506,-3.0506,-3.0506,-3.0506,-3.0506,-3.0506,-3.0506,-3.0489,-3.0485,-3.0443,-3.0401,-3.0375,-3.0167,-2.9995,-2.987,-2.9461,-2.9134,-2.8996,-2.867,-2.8472,-2.8439,-2.7382,-2.6806,-2.6806,-2.6806,-2.6806,-2.6806,-2.6806,-2.6806,-2.6806,-2.6806,-2.6806,-1.826,-1.9758,-2.1511,-2.2927,-2.4378,-2.5758,-2.6911,-2.7455,-2.7824,-2.8245,-2.8333,-2.8333,-2.8333,-2.8667,-2.8947,-2.8912,-2.9263,-2.9667,-3.0053,-3.0106,-3.0106,-3.0106,-3.0106,-3.0248,-3.0585,-3.062,-3.0778,-3.1113,-3.1446,-3.1586,-3.1516,-3.1828,-3.1948,-3.1839,-3.1856,-3.1838,-3.18,-3.18,-3.18,-3.18,-3.18,-3.18,-3.1765,-3.0882,-3.0412,-3.039,-3.1011,-3.0664,-2.9675,-3.0381,-3.0446,-3.0142,-3.0531,-3.0886,-3.119,-3.119,-3.119,-3.119,-3.119,-3.1151,-3.1092,-3.1015,-3.0935,-3.0834,-3.0733,-3.0651,-3.0589,-3.0526,-3.0506,-3.0506,-3.0506,-3.0506,-3.0506,-3.0506,-3.0506,-3.0506,-3.0506,-3.0506,-3.0506,-3.0506,-3.0506,-3.0506,-3.0506,-3.0506,-3.0506,-3.0506,-3.0506,-3.0506,-3.0464,-3.0443,-3.0422,-3.0401,-3.0295,-3.0253,-3.0253,-2.9984,-2.9793,-2.9683,-2.9332,-2.9065,-2.8943,-2.8134,-2.7595,-2.7316,-2.7104,-2.6963,-2.6899,-2.6899,-2.6873,-2.6806,-2.6806,-2.6806,-1.8115,-1.9733,-2.1547,-2.3652,-2.4699,-2.5454,-2.6388,-2.7069,-2.7543,-2.7666,-2.7701,-2.7701,-2.7701,-2.7701,-2.7912,-2.8579,-2.8684,-2.893,-2.9597,-2.9702,-2.9702,-2.9702,-2.9808,-2.9879,-2.9879,-3.0036,-3.0106,-3.0106,-3.062,-3.092,-3.0886,-3.1411,-3.1672,-3.1549,-3.1652,-3.1685,-3.1628,-3.1749,-3.18,-3.18,-3.18,-3.18,-3.18,-3.169,-3.1273,-3.0706,-3.1136,-3.0549,-2.9322,-3.001,-3.0226,-3.0106,-3.0243,-3.0581,-3.1004,-3.1004,-3.1004,-3.1004,-3.1004,-3.1089,-3.1171,-3.1055,-3.0995,-3.0955,-3.0773,-3.0692,-3.0651,-3.0531,-3.0506,-3.0506,-3.0506,-3.0506,-3.0506,-3.0506,-3.0506,-3.0506,-3.0506,-3.0506,-3.0506,-3.0506,-3.0506,-3.0506,-3.0506,-3.0506,-3.0506,-3.0506,-3.0506,-3.0485,-3.0422,-3.0464,-3.0485,-3.0422,-3.0464,-3.0506,-3.0506,-3.0506,-3.0443,-3.0253,-2.9946,-2.9607,-2.9332,-2.9035,-2.8599,-2.7972,-2.7545,-2.7192,-2.7003,-2.7003,-2.6925,-2.6806,-2.6806,-2.6806,-1.6558,-1.8747,-2.1233,-2.2868,-2.3869,-2.4818,-2.6279,-2.6683,-2.6929,0.0,-2.7701,-2.7701,-2.7701,-2.7701,-2.7736,-2.7841,-2.7859,-2.7894,-2.7999,-2.8017,-2.8017,-2.8017,-2.8649,-2.907,-2.907,-2.9702,-3.0106,-3.0106,-3.0178,-3.018,-3.008,-3.0152,-3.0172,-3.0089,-3.063,-3.0941,-3.0923,-3.1509,-3.18,-3.18,-3.18,-3.18,-3.18,-3.1781,-3.1637,-3.1363,-3.1447,-3.0889,-3.0025,-3.0751,-3.0683,-3.0176,-3.0801,-3.0717,-3.026,-3.026,-3.026,-3.026,-3.026,-3.0666,-3.119,-3.1171,-3.1052,-3.0912,-3.0892,-3.0712,-3.0526,-3.0506,-3.0506,-3.0506,-3.0506,-3.0506,-3.0506,-3.0506,-3.0506,-3.0506,-3.0506,-3.0506,-3.0506,-3.0506,-3.0506,-3.0506,-3.0506,-3.0506,-3.0506,-3.0506,-3.0506,-3.0506,-3.0506,-3.0489,-3.0506,-3.0506,-3.0489,-3.0506,-3.0506,-3.0506,-3.0506,-3.0447,-3.0405,-3.0177,-2.9728,-2.9683,-2.9219,-2.8264,-2.7963,-2.7545,-2.7003,-2.7003,-2.6925,-2.6806,-2.6806,-2.6806,-1.7124,-1.8555,-1.9988,-2.1996,-2.3049,-2.3909,-2.5064,-2.563,-2.6156,-2.6929,-2.7087,-2.721,-2.7613,-2.7701,-2.7701,-2.7701,-2.7701,-2.7701,-2.7701,-2.7701,-2.7701,-2.7701,-2.8017,-2.8228,-2.8228,-2.8544,-2.8754,-2.8754,-2.9176,-2.9406,-2.9341,-2.9761,-2.9957,-2.9875,-3.014,-3.0247,-3.0127,-3.0421,-3.0766,-3.1179,-3.1593,-3.18,-3.18,-3.18,-3.1744,-3.1651,-3.1555,-3.1033,-3.0277,-3.0484,-3.0142,-2.9516,-2.9839,-2.9771,-2.9482,-2.9482,-2.9482,-2.9533,-2.9973,-3.0311,-3.0649,-3.1072,-3.1092,-3.0952,-3.0912,-3.077,-3.0589,-3.0526,-3.0506,-3.0506,-3.0506,-3.0506,-3.0506,-3.0506,-3.0506,-3.0506,-3.0506,-3.0506,-3.0506,-3.0506,-3.0506,-3.0506,-3.0506,-3.0506,-3.0506,-3.0506,-3.0506,-3.0506,-3.0506,-3.0506,-3.0506,-3.0506,-3.0506,-3.0506,-3.0506,-3.0506,-3.0506,-3.0506,-3.0506,-3.03,-2.9815,-2.9793,-2.9332,-2.8312,-2.8192,-2.783,-2.7222,-2.7144,-2.7041,-2.6925,-2.6832,-2.6806,-1.6753,-1.7717,-1.8483,-2.0639,-2.2007,-2.3038,-2.3842,-2.4589,-2.5349,0.0,-2.6458,-2.6756,-2.7315,-2.7561,-2.7701,-2.7701,-2.7701,-2.7701,-2.7701,-2.7701,-2.7701,-2.7701,-2.7701,-2.7701,-2.7701,-2.7701,-2.7701,-2.7701,-2.8263,-2.8596,-2.8596,-2.9158,-2.9443,-2.9344,-2.9521,-2.9546,-2.9398,-2.9521,-2.9972,-3.0714,-3.1248,-3.161,-3.18,-3.18,-3.18,-3.18,-3.1614,-3.1175,-3.0609,-3.0457,-2.9958,-2.9281,-2.9281,-2.9044,-2.8687,-2.8687,-2.8687,-2.8789,-2.9567,-2.9939,-3.0207,-3.0954,-3.1112,-3.0975,-3.0932,-3.081,-3.0671,-3.0547,-3.0506,-3.0506,-3.0506,-3.0506,-3.0506,-3.0506,-3.0506,-3.0506,-3.0506,-3.0506,-3.0506,-3.0506,-3.0506,-3.0506,-3.0506,-3.0506,-3.0506,-3.0506,-3.0506,-3.0506,-3.0506,-3.0506,-3.0506,-3.0506,-3.0506,-3.0506,-3.0506,-3.0506,-3.0447,-3.0342,-3.0426,-3.0177,-2.9445,-2.9661,-2.9264,-2.8134,-2.8231,-2.7978,-2.735,-2.7284,-2.7144,-2.6951,-2.6873,-2.6846,-1.387,-1.5401,-1.6892,-1.8491,-2.0533,-2.2352,-2.3081,0.0,-2.4572,-2.5314,-2.6068,-2.6616,-2.6651,-2.7227,-2.7701,-2.7701,-2.7701,-2.7701,-2.7701,-2.7701,-2.7701,-2.7701,-2.7701,-2.7701,-2.7701,-2.7701,-2.7701,-2.7701,-2.7736,-2.7754,-2.7754,-2.7789,-2.7824,-2.7806,-2.8487,-2.886,-2.8844,-2.9345,-2.9972,-3.0714,-3.0748,-3.111,-3.18,-3.18,-3.18,-3.18,-3.1635,-3.1451,-3.1264,-3.1244,-3.0779,-3.004,-3.004,-2.9142,-2.7858,-2.7858,-2.7858,-2.7976,-2.8772,-2.9499,-3.0207,-3.0954,-3.1112,-3.0975,-3.0932,-3.081,-3.0671,-3.0547,-3.0506,-3.0506,-3.0506,-3.0506,-3.0506,-3.0506,-3.0506,-3.0506,-3.0506,-3.0506,-3.0506,-3.0506,-3.0506,-3.0506,-3.0506,-3.0506,-3.0506,-3.0506,-3.0506,-3.0506,-3.0506,-3.0506,-3.0506,-3.0506,-3.0506,-3.0506,-3.0506,-3.0506,-3.0321,-2.9859,-3.0241,-2.9865,-2.8432,-2.9287,-2.9127,-2.766,-2.8061,-2.7953,-2.7207,-2.7335,-2.7196,-2.6806,-2.6925,-2.6977,-1.3129,-1.4809,-1.6658,-1.7728,-1.8961,-2.0261,-2.1492,-2.2329,-2.3028,-2.3769,-2.4559,-2.5261,-2.5752,-2.6858,-2.7701,-2.7701,-2.7701,-2.7701,-2.7701,-2.7701,-2.7701,-2.7701,-2.7701,-2.7701,-2.7701,-2.7701,-2.7701,-2.7701,-2.7701,-2.7701,-2.7701,-2.7701,-2.7701,-2.7701,-2.7952,-2.8065,-2.8021,-2.8599,-2.9037,-2.9298,-3.0248,-3.0834,-3.1093,-3.1576,-3.18,-3.18,-3.1746,-3.1653,-3.1485,-3.1353,-3.0562,-2.9439,-2.9417,-2.845,-2.7165,-2.7621,-2.7807,-2.7976,-2.9262,-2.9888,-3.0207,-3.0954,-3.1112,-3.0995,-3.0955,-3.0834,-3.0692,-3.0651,-3.0568,-3.0506,-3.0506,-3.0506,-3.0506,-3.0506,-3.0506,-3.0506,-3.0506,-3.0506,-3.0506,-3.0506,-3.0506,-3.0506,-3.0506,-3.0506,-3.0506,-3.0506,-3.0506,-3.0506,-3.0506,-3.0506,-3.0506,-3.0506,-3.0506,-3.0506,-3.0506,-3.0506,-3.0426,-3.0262,-3.0113,-2.9683,-2.885,-2.8826,-2.8448,-2.7625,-2.7785,-2.7735,-2.7448,-2.7412,-2.7325,-2.7196,-2.7055,-2.7055,-1.2484,-1.3894,-1.5645,-1.6938,-1.7611,-1.8422,-2.0213,-2.1149,-2.183,-2.2576,-2.3566,-2.4449,-2.4927,-2.6068,-2.7016,-2.7297,-2.7543,-2.7701,-2.7701,-2.7701,-2.7701,-2.7701,-2.7701,-2.7701,-2.7701,-2.7701,-2.7701,-2.7701,-2.7701,0.0,-2.7701,-2.7701,-2.7701,-2.7701,-2.7701,-2.7674,-2.7602,-2.8002,-2.8305,-2.8501,-2.9488,-3.0076,-3.0317,-3.1076,-3.142,-3.1438,-3.1679,-3.1727,-3.1579,-3.1466,-3.0657,-2.9459,-2.9422,-2.8605,-2.7537,-2.8027,-2.8213,-2.8365,-2.9668,-3.0108,-3.0207,-3.0954,-3.1151,-3.1055,-3.1015,-3.0895,-3.0753,-3.0712,-3.0609,-3.0506,-3.0506,-3.0506,-3.0506,-3.0506,-3.0506,-3.0506,-3.0506,-3.0506,-3.0506,-3.0506,-3.0506,-3.0506,-3.0506,-3.0506,-3.0506,-3.0506,-3.0506,-3.0506,-3.0506,-3.0506,-3.0506,-3.0506,-3.0506,-3.0506,-3.0506,-3.0721,-3.0691,-3.0279,-3.0342,-3.0008,-2.9136,-2.8756,-2.8328,-2.7845,-2.7685,-2.76,-2.76,-2.7514,-2.7412,-2.7335,-2.7196,-2.738,0.0,0.0,0.0,-1.6005,-1.6504,-1.7053,-1.9333,0.0,-2.1017,-2.1807,-2.3163,-2.4216,-2.4269,-2.487,-2.563,-2.6405,-2.7157,-2.7631,-2.7631,-2.7648,-2.7666,-2.7666,-2.7683,-2.7701,-2.7701,-2.7701,-2.7701,-2.7701,-2.7701,-2.7701,-2.7701,-2.7701,-2.7701,-2.7701,-2.7701,-2.7657,-2.7602,-2.7602,-2.7877,-2.8482,-2.85,-2.8831,-2.9506,-3.03,-3.0697,-3.0748,-3.1455,-3.171,-3.1598,-3.1598,-3.104,-3.0207,-3.0207,-2.971,-2.8993,-2.9027,-2.9027,-2.9145,-2.9888,-3.0123,-3.026,-3.097,-3.119,-3.1171,-3.1052,-3.0972,-3.0871,-3.0733,-3.0609,-3.0506,-3.0506,-3.0506,-3.0506,-3.0506,-3.0506,-3.0506,-3.0506,-3.0506,-3.0506,-3.0506,-3.0506,-3.0506,-3.0506,-3.0506,-3.0506,-3.0506,-3.0506,-3.0506,-3.0506,-3.0506,-3.0506,-3.0506,-3.0506,-3.0506,-3.0522,-3.1184,-3.1111,-2.9918,-3.0926,-3.0838,-2.9175,-2.9097,-2.8842,-2.8328,-2.7845,-2.76,-2.76,-2.76,-2.7473,-2.7233,-2.7365,-2.8035,-1.2567,0.0,0.0,0.0,0.0,0.0,0.0,0.0,-1.9044,-2.0884,-2.158,-2.2183,-2.3298,-2.4106,-2.4677,-2.4906,-2.5559,-2.6033,-2.6033,-2.6542,-2.6897,-2.6897,-2.7385,-2.7701,-2.7701,-2.7701,-2.7701,0.0,-2.7701,-2.7701,-2.7701,-2.7701,-2.7701,-2.7701,-2.7701,-2.7686,-2.7672,-2.7615,-2.7661,-2.7795,-2.8272,-2.8572,-2.873,-2.9489,-3.0144,-3.0696,-3.0903,-3.1282,-3.1727,-3.1635,-3.1096,-3.0336,-3.0245,-2.971,-2.9061,-2.96,-2.9803,-2.9905,-3.0632,-3.0903,-3.092,-3.1123,-3.119,-3.119,-3.1151,-3.1032,-3.0892,-3.0851,-3.0671,-3.0506,-3.0506,-3.0506,-3.0506,-3.0506,-3.0506,-3.0506,-3.0506,-3.0506,-3.0506,-3.0506,-3.0506,-3.0506,-3.0506,-3.0506,-3.0506,-3.0506,-3.0506,-3.0506,-3.0506,-3.0506,-3.0506,-3.0506,-3.0506,-3.0721,-3.125,-3.1482,-3.1472,-3.1128,-3.1095,-3.0644,-2.9649,-2.8919,-2.8448,-2.8288,-2.7845,-2.76,-2.76,-2.76,-2.7575,-2.7514,-2.8006,-2.8624,-1.4134,-1.513,-1.6416,-1.5764,0.0,0.0,-1.7488,-1.7509,-1.7699,0.0,-2.0301,-2.0746,-2.1622,-2.2653,-2.3374,-2.3344,-2.3957,-2.4669,-2.5314,-2.5805,-2.609,-2.609,-2.649,-2.6876,-2.721,-2.7245,-2.7368,-2.7683,-2.7701,-2.7701,-2.7701,-2.7701,-2.7701,-2.7701,-2.7701,-2.7701,-2.7701,-2.7674,-2.7585,-2.7496,-2.7903,-2.8032,-2.7971,-2.8696,-2.9299,-2.9782,-3.0421,-3.0938,-3.1351,-3.1588,-3.1376,-3.0889,-3.0778,-3.0411,-3.0014,-3.0415,-3.0565,-3.0615,-3.1055,-3.119,-3.119,-3.119,-3.119,-3.119,-3.119,-3.1052,-3.0892,-3.0892,-3.0712,-3.0506,-3.0506,-3.0506,-3.0506,-3.0506,-3.0506,-3.0506,-3.0506,-3.0506,-3.0506,-3.0506,-3.0506,-3.0506,-3.0506,-3.0506,-3.0506,-3.0506,-3.0506,-3.0506,-3.0506,-3.0506,-3.0506,-3.0506,-3.0506,-3.0671,-3.1101,-3.1697,-3.1797,-3.1184,-3.1457,-3.1087,-2.9864,-2.9288,-2.8783,-2.8304,-2.8107,-2.7884,-2.76,-2.76,-2.775,-2.8034,-2.836,-2.9006,-1.6096,-1.6161,-1.6401,-1.691,-1.5913,0.0,-1.7333,-1.7085,-1.685,0.0,-1.9136,-1.9579,-1.9787,-2.0941,-2.1863,-2.1911,-2.2512,-2.35,-2.4945,-2.5226,-2.5279,-2.5279,-2.5349,-2.5682,-2.6388,-2.6458,-2.6753,-2.7403,-2.7526,-2.7578,-2.7578,-2.7648,-2.7701,-2.7701,-2.7701,-2.7701,-2.7701,-2.7701,-2.7627,-2.7496,-2.7496,-2.7436,-2.7316,-2.7971,-2.8316,-2.8472,-2.9937,-3.061,-3.0766,-3.1489,-3.1727,-3.1579,-3.1538,-3.1426,-3.1295,-3.1232,-3.121,-3.119,-3.119,-3.119,-3.119,-3.119,-3.119,-3.119,-3.119,-3.1072,-3.0912,-3.0892,-3.0692,-3.0506,-3.0506,-3.0506,-3.0506,-3.0506,-3.0506,-3.0506,-3.0506,-3.0506,-3.0506,-3.0506,-3.0506,-3.0506,-3.0506,-3.0506,-3.0506,-3.0506,-3.0506,-3.0506,-3.0506,-3.0506,-3.0506,-3.0506,-3.0506,-3.0522,-3.0621,-3.1818,-3.2017,-3.0704,-3.1851,-3.1737,-2.988,-2.986,-2.9398,-2.8328,-2.8424,-2.8188,-2.76,-2.7675,-2.8034,-2.8607,-2.8621,-2.9292,-1.7216,-1.7508,-1.7888,-1.7367,-1.6961,0.0,-1.7098,-1.6526,-1.6337,0.0,-1.7589,-1.7799,-1.9638,-2.0149,-2.0545,-2.1167,-2.1888,-2.2647,-2.3448,-2.4102,-2.4502,-2.4502,-2.5033,-2.5472,-2.563,-2.5616,-2.57,-2.584,-2.6455,-2.6809,-2.6809,-2.7385,-2.7701,-2.7701,-2.7701,-2.7701,-2.7701,-2.7701,-2.7627,-2.7496,-2.7496,-2.7436,-2.7299,-2.7437,-2.7833,-2.8454,-2.9351,-3.0093,-3.0766,-3.1489,-3.1727,-3.1598,-3.1596,-3.1466,-3.1295,-3.1293,-3.1252,-3.119,-3.119,-3.119,-3.119,-3.119,-3.119,-3.119,-3.119,-3.1092,-3.0952,-3.0773,-3.063,-3.0506,-3.0506,-3.0506,-3.0506,-3.0506,-3.0506,-3.0506,-3.0506,-3.0506,-3.0506,-3.0506,-3.0506,-3.0506,-3.0506,-3.0506,-3.0506,-3.0506,-3.0506,-3.0506,-3.0506,-3.0506,-3.0506,-3.0506,-3.0506,-3.0737,-3.1333,-3.1648,-3.1681,-3.1399,-3.1648,-3.1205,-2.9864,-2.9476,-2.8967,-2.8328,-2.7981,-2.7735,-2.76,-2.8128,-2.8472,-2.8622,-2.9627,-3.024,-1.8726,-1.8819,-1.8944,-1.8112,-1.7854,0.0,0.0,-1.6682,-1.622,-1.7705,-1.7045,-1.6659,-1.8177,-1.9002,-1.9569,-1.9981,-2.0955,-2.1626,-2.1527,-2.2799,-2.3736,-2.3711,-2.4032,-2.4418,-2.4818,-2.4853,-2.4998,-2.5366,-2.5756,-2.6002,-2.6002,-2.6736,-2.7157,-2.7157,-2.7508,-2.7701,-2.7701,-2.7701,-2.7642,-2.7557,-2.7511,-2.7452,-2.7362,-2.7315,-2.7489,-2.7885,-2.8627,-2.9386,-3.0162,-3.092,-3.1418,-3.169,-3.1617,-3.1542,-3.1447,-3.1334,-3.1293,-3.1252,-3.121,-3.119,-3.119,-3.119,-3.119,-3.1123,-3.0768,-3.0555,-3.0505,-3.0653,-3.0651,-3.0572,-3.0526,-3.0506,-3.0506,-3.0506,-3.0506,-3.0506,-3.0506,-3.0506,-3.0506,-3.0506,-3.0506,-3.0506,-3.0506,-3.0506,-3.0506,-3.0506,-3.0506,-3.0506,-3.0506,-3.0506,-3.0506,-3.0506,-3.0506,-3.0654,-3.1019,-3.1399,-3.1346,-3.0729,-3.1057,-3.0599,-2.9097,-2.9147,-2.8949,-2.8445,-2.7891,-2.76,-2.76,-2.8618,-2.9086,-2.9116,-3.0058,-3.0687,-1.9945,-1.9864,-1.982,-1.8962,-1.8821,-1.8796,0.0,0.0,0.0,-1.7734,-1.6953,0.0,0.0,0.0,0.0,0.0,0.0,0.0,0.0,-2.1274,0.0,-2.2289,-2.2535,-2.2957,-2.359,-2.3661,-2.4005,-2.4892,-2.484,-2.4875,-2.5173,-2.5932,-2.6441,-2.6598,-2.7174,-2.7561,-2.7701,-2.7701,-2.7674,-2.7602,-2.7542,-2.7483,-2.7392,-2.7329,-2.7315,-2.7333,-2.8075,-2.8747,-2.9351,-3.0144,-3.0903,-3.1593,-3.1638,-3.1617,-3.1579,-3.1411,-3.1334,-3.1295,-3.1232,-3.121,-3.119,-3.119,-3.119,-3.1089,-3.0497,-3.0217,-3.0202,-3.0647,-3.0733,-3.0671,-3.0568,-3.0526,-3.0506,-3.0506,-3.0506,-3.0506,-3.0506,-3.0506,-3.0506,-3.0506,-3.0506,-3.0506,-3.0506,-3.0506,-3.0506,-3.0506,-3.0506,-3.0506,-3.0506,-3.0506,-3.0506,-3.0506,-3.0506,-3.0506,-3.0506,-3.1052,-3.0968,-2.9995,-3.0477,-3.0144,-2.8654,-2.8916,-2.8951,-2.8618,-2.8079,-2.7854,-2.7989,-2.9202,-2.9726,-2.9636,-3.0357,-3.0972,-2.0007,-2.0308,-2.0671,-1.9857,-2.0176,-2.0307,-1.874,0.0,-1.7998,-1.7281,0.0,0.0,0.0,0.0,0.0,0.0,0.0,0.0,-1.8079,-1.9343,-2.0071,-1.9282,-2.0464,-2.1352,-2.1359,-2.1322,-2.1854,-2.326,-2.2751,-2.2974,-2.4344,-2.5121,-2.5875,-2.6581,-2.6669,-2.7052,-2.7683,-2.7701,-2.7674,-2.7602,-2.7587,-2.7529,-2.7392,-2.7376,-2.7362,-2.7333,-2.8075,-2.8454,-2.8575,-2.9334,-3.011,-3.0886,-3.1523,-3.1709,-3.1598,-3.1579,-3.1449,-3.1295,-3.1276,-3.1252,-3.119,-3.119,-3.119,-3.1173,-3.1106,-3.0977,-3.0894,-3.0958,-3.0834,-3.0692,-3.0671,-3.0589,-3.0506,-3.0506,-3.0506,-3.0506,-3.0506,-3.0506,-3.0506,-3.0506,-3.0506,-3.0506,-3.0506,-3.0506,-3.0506,-3.0506,-3.0506,-3.0506,-3.0506,-3.0506,-3.0506,-3.0506,-3.0506,-3.0506,-3.0506,-3.0572,-3.0567,-3.0426,-3.0509,-3.0259,-2.9661,-2.8842,-2.8488,-2.8592,-2.8532,-2.8771,-2.9382,-3.0058,-3.0118,-2.9636,-3.0823,-3.1436,-2.0026,-2.0389,-2.0809,-1.9989,-2.0408,-2.0683,-1.9482,-1.8845,-1.8513,-1.8615,0.0,0.0,0.0,0.0,0.0,0.0,-1.7653,0.0,0.0,0.0,-1.8402,0.0,0.0,0.0,-2.0965,-2.0593,-2.0746,-2.18,-2.1154,-2.139,-2.2881,-2.3659,-2.4436,-2.5239,-2.6139,-2.6739,-2.7069,-2.749,-2.7686,-2.7659,-2.7615,-2.7572,-2.7513,-2.7438,-2.7376,-2.7362,-2.7625,-2.7989,-2.842,-2.873,-2.9592,-3.0713,-3.1041,-3.1402,-3.1709,-3.1617,-3.1504,-3.1406,-3.1332,-3.1271,-3.119,-3.119,-3.0903,-3.0649,-3.1072,-3.0864,-3.0552,-3.0897,-3.0935,-3.0855,-3.0733,-3.0651,-3.0589,-3.0526,-3.0506,-3.0506,-3.0506,-3.0506,-3.0506,-3.0506,-3.0506,-3.0506,-3.0506,-3.0506,-3.0506,-3.0506,-3.0506,-3.0506,-3.0506,-3.0506,-3.0506,-3.0506,-3.0506,-3.0506,-3.0506,-3.0506,-3.0384,-3.0113,-2.9913,-2.9721,-2.9509,-2.9229,-2.9083,-2.9187,-2.916,-2.931,-2.9606,-3.0208,-3.0372,-3.0133,-3.1062,-3.1511,-2.0408,-2.0896,-2.1391,-2.012,-2.0577,-2.1084,-2.0045,-1.9488,-1.93,-1.9726,0.0,0.0,0.0,0.0,-1.7385,-1.7114,0.0,-1.649,0.0,-1.5916,0.0,0.0,0.0,0.0,0.0,-1.9885,-1.9765,-2.0916,-1.9851,-1.9969,-2.1895,-2.2523,-2.326,-2.4256,-2.5384,-2.6174,-2.6598,-2.7139,-2.749,-2.7701,-2.7659,-2.7632,-2.7602,-2.7483,-2.7423,-2.7409,-2.733,-2.7592,-2.8092,-2.8092,-2.8868,-3.0075,-3.0282,-3.0817,-3.1524,-3.1621,-3.1595,-3.1498,-3.1387,-3.1291,-3.119,-3.119,-3.0835,-3.0497,-3.1038,-3.0835,-3.0495,-3.094,-3.1015,-3.0955,-3.081,-3.0733,-3.0671,-3.0531,-3.0506,-3.0506,-3.0506,-3.0506,-3.0506,-3.0506,-3.0506,-3.0506,-3.0506,-3.0506,-3.0506,-3.0506,-3.0506,-3.0506,-3.0506,-3.0506,-3.0506,-3.0506,-3.0506,-3.0506,-3.0506,-3.0506,-3.0446,-3.0304,-3.0266,-3.0094,-2.9813,-2.9924,-2.9947,-2.9861,-2.9834,-2.9924,-3.0118,-3.0567,-3.0763,-3.0806,-3.1271,-3.1511,0.0,0.0,0.0,-2.0408,0.0,0.0,0.0,0.0,-2.0715,-1.9951,-2.037,-2.0652,-1.9895,-1.9031,-1.814,-1.7158,-1.7002,0.0,0.0,0.0,0.0,0.0,0.0,0.0,0.0,-1.8778,-1.8672,0.0,-1.8807,-1.8804,-2.1842,-2.2013,-2.2728,-2.4238,-2.4344,-2.5099,-2.6581,-2.6616,-2.6999,-2.7701,-2.7701,-2.7657,-2.7602,-2.7526,-2.7467,-2.7409,-2.733,-2.7299,-2.7333,-2.7333,-2.7782,-2.8541,-2.9265,-3.0024,-3.0817,-3.1524,-3.167,-3.1498,-3.1498,-3.1366,-3.119,-3.119,-3.1173,-3.1157,-3.119,-3.1173,-3.1157,-3.119,-3.1112,-3.0975,-3.0912,-3.081,-3.0671,-3.0531,-3.0506,-3.0506,-3.0506,-3.0506,-3.0506,-3.0506,-3.0506,-3.0506,-3.0506,-3.0506,-3.0506,-3.0506,-3.0506,-3.0506,-3.0506,-3.0506,-3.0506,-3.0506,-3.0506,-3.0506,-3.0506,-3.0506,-3.0803,-3.1494,-3.2205,-3.2138,-3.109,-3.1047,-3.0871,-3.049,-3.0477,-3.0806,-3.1451,-3.1466,-3.1466,-3.1466,-3.1496,-3.1511,0.0,0.0,-2.3175,-2.1797,0.0,0.0,0.0,0.0,0.0,0.0,-2.0446,-2.0746,-1.9951,-1.9094,-1.8382,-1.8054,-1.7025,-1.6075,0.0,0.0,0.0,0.0,0.0,0.0,0.0,0.0,0.0,-1.8771,-1.7968,0.0,-2.0439,-2.0963,-2.1691,-2.2745,-2.3764,-2.4783,-2.5805,-2.6335,-2.6981,-2.7701,-2.7701,-2.7686,-2.7657,-2.7602,-2.7526,-2.7467,-2.7392,-2.7346,-2.7299,-2.7299,-2.773,-2.842,-2.8678,-2.9558,-3.0782,-3.1524,-3.169,-3.1559,-3.1408,-3.1291,-3.119,-3.119,-3.119,-3.1106,-3.0615,-3.0818,-3.1089,-3.0615,-3.0799,-3.1112,-3.1012,-3.0935,-3.0855,-3.0671,-3.063,-3.0609,-3.0526,-3.0506,-3.0506,-3.0506,-3.0506,-3.0506,-3.0506,-3.0506,-3.0506,-3.0506,-3.0506,-3.0506,-3.0506,-3.0506,-3.0688,-3.1184,-3.1234,-3.1416,-3.1918,-3.1951,-3.205,-3.2315,-3.2692,-3.2555,-3.1792,-3.1904,-3.1716,-3.118,-3.1152,-3.1271,-3.1511,-3.1511,-3.1511,-3.1511,-3.1511,-3.1511,-2.2792,-2.3299,0.0,-2.2567,-2.2511,0.0,-2.1259,0.0,-2.1234,0.0,0.0,-2.094,-2.0727,-1.9751,-1.8857,-1.8514,-1.7283,-1.6142,0.0,-1.5466,0.0,0.0,0.0,-1.7656,0.0,-1.6938,-1.7111,-1.8061,-1.7228,-1.7595,0.0,-2.0445,-2.1176,-2.1972,-2.3219,-2.4238,-2.4998,-2.5788,-2.656,-2.7315,-2.7561,-2.7701,-2.7701,-2.763,-2.7572,-2.7526,-2.7438,-2.7378,-2.7329,-2.7315,-2.7575,-2.8023,-2.8299,-2.9161,-3.0368,-3.1127,-3.1485,-3.1579,-3.1372,-3.1274,-3.1232,-3.121,-3.119,-3.1055,-3.0328,-3.0615,-3.1055,-3.0311,-3.0632,-3.1171,-3.1035,-3.0995,-3.0955,-3.0753,-3.0692,-3.0651,-3.0526,-3.0506,-3.0506,-3.0506,-3.0506,-3.0506,-3.0506,-3.0506,-3.0506,-3.0506,-3.0506,-3.0506,-3.0506,-3.0737,-3.1068,-3.1548,-3.183,-3.2183,-3.2669,-3.295,-3.31,-3.31,-3.347,-3.3323,-3.2519,-3.2634,-3.2299,-3.1511,-3.1511,-3.1511,-3.1511,-3.1511,-3.1511,-3.1511,-3.1511,-3.1511]},{"header":{"parameterUnit":"m.s-1","parameterCategory":1,"la1":30.6,"la2":29.2853,"lo1":-89.7004,"lo2":-87.6739,"dy":0.0162,"dx":0.0183,"nx":112,"ny":82,"refTime":"2026-04-24T00:00:00:Z","depth":0,"parameterNumber":3,"parameterNumberName":"V-component_of_WINDS"},"data":[0.0,0.0,0.0,0.0,0.0,0.0,0.0,0.0,0.0,0.0,0.0,0.0,0.0,0.0,0.0,0.0,0.0,0.0,0.0,0.0,0.0,0.0,0.0,0.0,0.0,0.0,0.0,0.0,0.0,0.0,0.0,0.0,0.0,0.0,0.0,0.0,0.0,0.0,0.0,0.0,0.0,0.0,0.0,0.0,0.0,0.0,0.0,0.0,0.0,0.0,0.0,0.0,0.0,0.0,0.0,0.0,0.0,0.0,0.0,0.0,0.0,0.0,0.0,0.0,0.0,0.0,0.0,0.0,0.0,0.0,0.0,0.0,0.0,0.0,0.0,0.0,0.0,0.0,0.0,0.0,0.0,0.0,0.0,0.0,0.0,0.0,0.0,0.0,0.0,0.0,-0.944,-1.0813,-1.2537,-1.3314,-1.2649,-1.2726,-1.215,-1.0621,0.0,0.0,0.0,0.0,0.0,0.0,0.0,0.0,0.0,0.0,0.0,0.0,0.0,0.0,0.0,0.0,0.0,0.0,0.0,0.0,0.0,0.0,0.0,0.0,0.0,0.0,0.0,0.0,0.0,0.0,0.0,0.0,0.0,0.0,0.0,0.0,0.0,0.0,0.0,0.0,0.0,0.0,0.0,0.0,0.0,0.0,0.0,0.0,0.0,0.0,0.0,0.0,0.0,0.0,0.0,0.0,0.0,0.0,0.0,0.0,0.0,0.0,0.0,0.0,0.0,0.0,0.0,0.0,0.0,0.0,0.0,0.0,0.0,0.0,0.0,0.0,0.0,0.0,0.0,0.0,0.0,0.0,0.0,0.0,0.0,0.0,0.0,0.0,0.0,0.0,0.0,0.0,0.0,0.0,0.0,0.0,0.0,0.0,0.0,0.0,0.0,0.0,0.0,0.0,-1.0203,-1.2324,-1.3171,-1.3542,-1.3423,-1.2781,-1.2265,-1.1996,0.0,0.0,0.0,0.0,0.0,0.0,0.0,0.0,0.0,0.0,0.0,0.0,0.0,0.0,0.0,0.0,0.0,0.0,0.0,0.0,0.0,0.0,0.0,0.0,0.0,0.0,0.0,0.0,0.0,0.0,0.0,0.0,0.0,0.0,0.0,0.0,0.0,0.0,0.0,0.0,0.0,0.0,0.0,0.0,0.0,0.0,0.0,0.0,0.0,0.0,0.0,0.0,0.0,0.0,0.0,0.0,0.0,0.0,0.0,0.0,0.0,0.0,0.0,0.0,0.0,0.0,0.0,0.0,0.0,0.0,0.0,0.0,0.0,0.0,0.0,0.0,0.0,0.0,0.0,0.0,0.0,0.0,0.0,0.0,0.0,0.0,0.0,0.0,0.0,0.0,0.0,0.0,0.0,0.0,0.0,0.0,0.0,0.0,0.0,0.0,0.0,0.0,0.0,-0.9763,-1.0931,-1.2708,-1.3318,-1.3597,-1.3597,-1.2805,-1.2068,-1.1571,-0.9822,0.0,0.0,0.0,0.0,0.0,0.0,0.0,0.0,0.0,0.0,0.0,0.0,0.0,0.0,0.0,0.0,0.0,0.0,0.0,0.0,0.0,0.0,0.0,0.0,0.0,0.0,0.0,0.0,0.0,0.0,0.0,0.0,0.0,0.0,0.0,0.0,0.0,0.0,0.0,0.0,0.0,0.0,0.0,0.0,0.0,0.0,0.0,0.0,0.0,0.0,0.0,0.0,0.0,0.0,0.0,0.0,0.0,0.0,0.0,0.0,0.0,0.0,0.0,0.0,0.0,0.0,0.0,0.0,0.0,0.0,0.0,0.0,0.0,0.0,0.0,0.0,0.0,0.0,0.0,0.0,0.0,0.0,0.0,0.0,0.0,0.0,0.0,0.0,0.0,0.0,0.0,0.0,0.0,0.0,0.0,0.0,0.0,0.0,0.0,0.0,0.0,0.0,-1.1085,-1.1705,-1.2925,-1.338,-1.3597,-1.3597,-1.2711,-1.183,-1.1116,-0.9176,0.0,0.0,0.0,0.0,0.0,0.0,0.0,0.0,0.0,0.0,0.0,0.0,0.0,0.0,0.0,0.0,0.0,0.0,0.0,0.0,0.0,0.0,0.0,0.0,0.0,0.0,0.0,0.0,0.0,0.0,0.0,0.0,0.0,0.0,0.0,0.0,0.0,0.0,0.0,0.0,0.0,0.0,0.0,0.0,0.0,0.0,0.0,0.0,0.0,0.0,0.0,0.0,0.0,0.0,0.0,0.0,0.0,0.0,0.0,0.0,0.0,0.0,0.0,0.0,0.0,0.0,0.0,0.0,0.0,0.0,0.0,0.0,0.0,0.0,0.0,0.0,0.0,0.0,0.0,0.0,0.0,0.0,0.0,0.0,0.0,0.0,0.0,0.0,0.0,0.0,0.0,0.0,0.0,0.0,0.0,0.0,0.0,0.0,0.0,0.0,0.0,0.0,-1.1654,-1.2545,-1.3442,-1.3576,-1.3597,-1.3597,-1.2411,-1.1612,-1.155,-0.9093,0.0,0.0,0.0,0.0,0.0,0.0,0.0,0.0,0.0,0.0,0.0,0.0,0.0,0.0,0.0,0.0,0.0,0.0,0.0,0.0,0.0,0.0,0.0,0.0,0.0,0.0,0.0,0.0,0.0,0.0,0.0,0.0,0.0,0.0,0.0,0.0,0.0,0.0,0.0,0.0,0.0,0.0,0.0,0.0,0.0,0.0,0.0,0.0,0.0,0.0,0.0,0.0,0.0,0.0,0.0,0.0,0.0,0.0,0.0,0.0,0.0,0.0,0.0,0.0,0.0,0.0,0.0,0.0,0.0,0.0,0.0,0.0,0.0,0.0,0.0,0.0,0.0,0.0,0.0,0.0,0.0,0.0,0.0,0.0,0.0,0.0,0.0,0.0,0.0,0.0,0.0,0.0,0.0,0.0,0.0,0.0,0.0,0.0,0.0,0.0,0.0,0.0,-1.1467,-1.2317,-1.3486,-1.3597,-1.3473,-1.3183,-1.2483,-1.1664,-1.0785,0.0,0.0,0.0,0.0,0.0,0.0,0.0,0.0,0.0,0.0,0.0,0.0,0.0,0.0,0.0,0.0,0.0,0.0,0.0,0.0,0.0,0.0,0.0,0.0,0.0,0.0,0.0,0.0,0.0,0.0,0.0,0.0,0.0,0.0,0.0,0.0,0.0,0.0,0.0,0.0,0.0,0.0,0.0,0.0,0.0,0.0,0.0,0.0,0.0,0.0,0.0,0.0,0.0,0.0,0.0,0.0,0.0,0.0,0.0,0.0,0.0,0.0,0.0,0.0,0.0,0.0,0.0,0.0,0.0,0.0,0.0,0.0,0.0,0.0,0.0,0.0,0.0,0.0,0.0,0.0,0.0,0.0,0.0,0.0,0.0,0.0,0.0,0.0,0.0,0.0,0.0,0.0,0.0,0.0,0.0,0.0,0.0,0.0,0.0,0.0,0.0,0.0,-1.064,-1.1446,-1.2286,-1.3462,-1.3597,-1.34,-1.2936,-1.2254,-1.1394,-1.0298,0.0,0.0,0.0,0.0,0.0,0.0,0.0,0.0,0.0,0.0,0.0,0.0,0.0,0.0,0.0,0.0,0.0,0.0,0.0,0.0,0.0,0.0,0.0,0.0,0.0,0.0,0.0,0.0,0.0,0.0,0.0,0.0,0.0,0.0,0.0,0.0,0.0,0.0,0.0,0.0,0.0,0.0,0.0,0.0,0.0,0.0,0.0,0.0,0.0,0.0,0.0,0.0,0.0,0.0,0.0,0.0,0.0,0.0,0.0,0.0,0.0,0.0,0.0,0.0,0.0,0.0,0.0,0.0,0.0,0.0,0.0,0.0,0.0,0.0,0.0,0.0,0.0,0.0,0.0,0.0,0.0,0.0,0.0,0.0,0.0,0.0,0.0,0.0,0.0,0.0,0.0,0.0,0.0,0.0,0.0,0.0,0.0,0.0,0.0,0.0,0.0,0.0,-1.0764,-1.1767,-1.2628,-1.3517,-1.3597,-1.34,-1.2936,-1.1675,-1.0741,0.0,0.0,0.0,0.0,0.0,0.0,0.0,0.0,0.0,0.0,0.0,0.0,0.0,0.0,0.0,0.0,0.0,0.0,0.0,0.0,0.0,0.0,0.0,0.0,0.0,0.0,0.0,0.0,0.0,0.0,0.0,0.0,0.0,0.0,0.0,0.0,0.0,0.0,0.0,0.0,0.0,0.0,0.0,0.0,0.0,0.0,0.0,0.0,0.0,0.0,0.0,0.0,0.0,0.0,0.0,0.0,0.0,0.0,0.0,0.0,0.0,0.0,0.0,0.0,0.0,0.0,0.0,0.0,0.0,0.0,0.0,0.0,0.0,0.0,0.0,0.0,0.0,0.0,0.0,0.0,0.0,0.0,0.0,0.0,0.0,0.0,0.0,0.0,0.0,0.0,0.0,0.0,0.0,0.0,0.0,0.0,0.0,0.0,0.0,0.0,0.0,0.0,0.0,-1.0885,-1.1889,-1.277,-1.3645,-1.3739,-1.3426,-1.2622,-1.2044,-1.1303,-1.0293,0.0,0.0,0.0,0.0,0.0,0.0,0.0,0.0,0.0,0.0,0.0,0.0,0.0,0.0,0.0,0.0,0.0,0.0,0.0,0.0,0.0,0.0,0.0,0.0,0.0,0.0,0.0,0.0,0.0,0.0,0.0,0.0,0.0,0.0,0.0,0.0,0.0,0.0,0.0,0.0,0.0,0.0,0.0,0.0,0.0,0.0,0.0,0.0,0.0,0.0,0.0,0.0,0.0,0.0,0.0,0.0,0.0,0.0,0.0,0.0,0.0,0.0,0.0,0.0,0.0,0.0,0.0,0.0,0.0,0.0,0.0,0.0,0.0,0.0,0.0,0.0,0.0,0.0,0.0,0.0,0.0,0.0,0.0,0.0,0.0,0.0,0.0,0.0,0.0,0.0,0.0,0.0,0.0,0.0,0.0,0.0,0.0,0.0,0.0,0.0,0.0,0.0,-1.1022,-1.2181,-1.3108,-1.3869,-1.4082,-1.3788,-1.287,-1.2432,-1.1708,-1.0514,0.0,0.0,0.0,0.0,0.0,0.0,0.0,0.0,0.0,0.0,0.0,0.0,0.0,0.0,0.0,0.0,0.0,0.0,0.0,0.0,0.0,0.0,0.0,0.0,0.0,0.0,0.0,0.0,0.0,0.0,0.0,0.0,0.0,0.0,0.0,0.0,0.0,0.0,0.0,0.0,0.0,0.0,0.0,0.0,0.0,0.0,0.0,0.0,0.0,0.0,0.0,0.0,0.0,0.0,0.0,0.0,0.0,0.0,0.0,0.0,0.0,0.0,0.0,0.0,0.0,0.0,0.0,0.0,0.0,0.0,0.0,0.0,0.0,0.0,0.0,0.0,0.0,0.0,0.0,0.0,0.0,0.0,0.0,0.0,0.0,0.0,0.0,0.0,0.0,0.0,0.0,0.0,0.0,0.0,0.0,0.0,0.0,0.0,0.0,0.0,0.0,0.0,-1.1238,-1.2558,-1.3591,-1.4253,-1.4594,-1.4462,-1.3616,-1.2907,-1.2063,-1.1002,0.0,0.0,0.0,0.0,0.0,0.0,0.0,0.0,0.0,0.0,0.0,0.0,0.0,0.0,0.0,0.0,0.0,0.0,0.0,0.0,0.0,0.0,0.0,0.0,0.0,0.0,0.0,0.0,0.0,0.0,0.0,0.0,0.0,0.0,0.0,0.0,0.0,0.0,0.0,0.0,0.0,0.0,0.0,0.0,0.0,0.0,0.0,0.0,0.0,0.0,0.0,0.0,0.0,0.0,0.0,0.0,0.0,0.0,0.0,0.0,-0.5679,0.0,0.0,0.0,0.0,0.0,0.0,0.0,0.0,0.0,0.0,0.0,0.0,0.0,0.0,0.0,0.0,0.0,0.0,0.0,0.0,0.0,0.0,0.0,0.0,0.0,0.0,0.0,0.0,0.0,0.0,0.0,0.0,0.0,0.0,0.0,0.0,0.0,0.0,0.0,0.0,0.0,-1.2013,-1.3043,-1.4,-1.5171,-1.5365,-1.5185,-1.4636,-1.3882,-1.301,-1.2041,-1.0729,0.0,0.0,0.0,0.0,0.0,0.0,0.0,0.0,0.0,0.0,0.0,0.0,0.0,0.0,0.0,0.0,0.0,0.0,0.0,0.0,0.0,0.0,0.0,0.0,0.0,0.0,0.0,0.0,0.0,0.0,0.0,0.0,0.0,0.0,0.0,0.0,0.0,0.0,0.0,0.0,0.0,0.0,0.0,0.0,0.0,0.0,0.0,0.0,0.0,0.0,0.0,0.0,0.0,0.0,0.0,0.0,0.0,0.0,0.0,0.0,-0.6762,0.0,0.0,0.0,0.0,0.0,0.0,0.0,0.0,0.0,0.0,0.0,0.0,0.0,0.0,0.0,0.0,0.0,0.0,0.0,0.0,0.0,0.0,0.0,0.0,0.0,0.0,0.0,0.0,0.0,0.0,0.0,0.0,0.0,0.0,0.0,0.0,0.0,0.0,0.0,0.0,-1.2525,-1.3547,-1.4426,-1.5438,-1.5832,-1.5734,-1.5012,-1.445,-1.3678,-1.2612,-1.1372,0.0,0.0,0.0,0.0,0.0,0.0,0.0,0.0,0.0,0.0,0.0,0.0,0.0,0.0,0.0,0.0,0.0,0.0,0.0,0.0,0.0,0.0,0.0,0.0,0.0,0.0,0.0,0.0,0.0,0.0,0.0,0.0,0.0,0.0,0.0,0.0,0.0,0.0,0.0,0.0,0.0,0.0,0.0,0.0,0.0,0.0,0.0,0.0,0.0,0.0,0.0,0.0,0.0,-0.8209,-0.8489,-0.8576,-0.8744,-0.9018,-0.93,-0.8663,-0.8368,-0.8352,-0.807,0.0,0.0,0.0,0.0,0.0,0.0,0.0,0.0,0.0,0.0,0.0,0.0,0.0,0.0,0.0,0.0,0.0,0.0,0.0,0.0,0.0,0.0,0.0,0.0,-1.2514,-1.2006,-1.013,0.0,0.0,0.0,0.0,0.0,0.0,0.0,0.0,0.0,0.0,0.0,-1.3074,-1.4179,-1.4996,-1.5704,-1.6293,-1.6291,-1.5445,-1.5004,-1.428,-1.3181,-1.2041,-1.1144,0.0,0.0,0.0,0.0,0.0,0.0,0.0,0.0,0.0,0.0,0.0,0.0,0.0,0.0,0.0,0.0,0.0,0.0,0.0,0.0,0.0,0.0,0.0,0.0,0.0,0.0,0.0,0.0,0.0,0.0,0.0,0.0,-0.4312,-0.4657,0.0,0.0,0.0,0.0,0.0,0.0,0.0,0.0,0.0,0.0,0.0,0.0,0.0,-0.7718,-0.7759,-0.8743,-0.9038,-0.865,-0.9387,-0.9554,-0.9208,-0.9616,-0.9961,-1.0239,-1.0551,0.0,-0.9372,-0.9108,0.0,0.0,0.0,0.0,0.0,0.0,0.0,0.0,0.0,0.0,0.0,0.0,0.0,0.0,0.0,0.0,0.0,0.0,0.0,0.0,0.0,0.0,-1.3266,-1.3414,-1.3434,-1.3362,0.0,-1.1479,-0.9932,-0.9371,-0.8411,0.0,0.0,0.0,0.0,0.0,0.0,0.0,-1.4164,-1.5178,-1.6031,-1.6891,-1.7039,-1.705,-1.6928,-1.5984,-1.5086,-1.4415,-1.3291,-1.2387,-1.1797,-1.0678,0.0,0.0,0.0,0.0,0.0,0.0,0.0,0.0,0.0,0.0,0.0,0.0,0.0,0.0,0.0,0.0,0.0,0.0,0.0,0.0,0.0,0.0,0.0,0.0,0.0,0.0,0.0,0.0,0.0,-0.459,-0.5073,-0.5536,-0.5837,-0.6002,0.0,0.0,0.0,0.0,0.0,0.0,0.0,0.0,0.0,-0.8718,-0.9027,-0.9271,-0.9448,-1.0301,-1.0684,-1.0618,-1.1149,-1.1298,-1.11,-1.1305,-1.1471,-1.1586,-1.1786,-1.1641,-1.118,-1.0324,-0.9672,-0.92,0.0,0.0,0.0,0.0,-1.0496,-1.098,-1.2398,-1.2775,-1.2739,-1.3328,0.0,0.0,0.0,0.0,0.0,0.0,0.0,0.0,0.0,0.0,-1.4066,-1.4335,-1.4397,-1.4397,-1.4397,-1.3403,-1.2212,0.0,-1.0707,-1.0163,-0.9371,0.0,0.0,0.0,0.0,-1.3183,-1.5044,-1.5638,-1.6161,-1.6862,-1.7094,-1.7081,-1.6767,-1.597,-1.5238,-1.4642,-1.353,-1.2768,-1.2533,-1.1409,-1.0547,0.0,0.0,0.0,0.0,0.0,0.0,0.0,0.0,0.0,0.0,0.0,0.0,0.0,0.0,0.0,0.0,0.0,0.0,0.0,0.0,0.0,0.0,0.0,0.0,0.0,0.0,0.0,0.0,-0.5461,-0.5903,-0.6345,-0.6685,-0.6799,0.0,0.0,0.0,0.0,0.0,0.0,-0.8861,-0.9065,-0.942,-0.9972,-1.0382,-1.0711,-1.096,-1.1555,-1.1926,-1.2127,-1.2368,-1.2485,-1.2485,-1.2485,-1.2485,-1.2485,-1.2485,-1.2485,-1.2397,-1.1304,-1.055,-1.0102,-0.9959,-0.9976,-1.0197,-1.1437,-1.198,-1.2357,-1.4,-1.4505,-1.4449,-1.4847,-1.4607,-1.3993,-1.323,0.0,0.0,0.0,0.0,-1.3824,-1.4062,-1.4407,-1.478,-1.5245,-1.5349,-1.5349,-1.5349,-1.4987,-1.4283,0.0,-1.2677,-1.2201,-1.0961,0.0,0.0,0.0,-1.3224,-1.4175,-1.5743,-1.6125,-1.6389,-1.6778,-1.7039,-1.7042,-1.6637,-1.5937,-1.5304,-1.4859,-1.3765,-1.3137,-1.3137,-1.2025,-1.12,-1.0743,0.0,0.0,0.0,0.0,0.0,0.0,0.0,0.0,0.0,0.0,0.0,0.0,0.0,0.0,0.0,0.0,0.0,0.0,0.0,0.0,0.0,0.0,0.0,0.0,0.0,0.0,0.0,0.0,0.0,-0.6953,-0.7874,0.0,0.0,0.0,0.0,-0.8353,-0.9051,-0.962,-0.9923,-1.0595,-1.0997,-1.1034,-1.1611,-1.1916,-1.193,-1.2273,-1.2448,-1.2463,-1.2477,-1.2485,-1.2485,-1.2485,-1.2485,-1.2485,-1.2485,-1.2485,-1.2434,-1.1826,-1.1525,-1.1461,-1.1147,-1.1448,-1.2142,-1.2923,-1.3917,-1.4962,-1.5457,-1.5921,-1.6314,-1.6729,-1.6293,-1.5494,-1.5007,-1.4242,0.0,0.0,-1.4221,-1.448,-1.5359,-1.5597,-1.5742,-1.6226,-1.634,-1.634,-1.634,-1.5977,-1.5339,0.0,-1.3269,-1.269,-1.3216,0.0,-1.279,-1.4103,-1.4845,-1.5552,-1.6276,-1.6825,-1.7139,-1.7178,-1.7199,-1.7186,-1.716,-1.6127,-1.5487,-1.5466,-1.4393,-1.3752,-1.3752,-1.2596,-1.1955,-1.1929,-1.0637,0.0,0.0,0.0,0.0,0.0,0.0,0.0,0.0,0.0,0.0,0.0,0.0,0.0,0.0,0.0,0.0,0.0,0.0,0.0,0.0,0.0,0.0,0.0,0.0,0.0,0.0,0.0,0.0,-0.8822,-0.9066,0.0,-0.9851,-1.0165,-1.0291,-1.0149,-1.1239,-1.1854,-1.1729,-1.2637,-1.3273,-1.3481,-1.3234,-1.3173,-1.3341,-1.3008,-1.2943,-1.3148,-1.3148,-1.3148,-1.3148,-1.3148,-1.3148,-1.3148,-1.3148,-1.3148,-1.3111,-1.2672,-1.2365,-1.2251,-1.287,-1.312,-1.333,-1.4621,-1.5264,-1.5548,-1.5984,-1.6267,-1.6433,-1.657,-1.6198,-1.5659,-1.5494,-1.5421,-1.5432,-1.5597,-1.5846,-1.6118,-1.6448,-1.6343,-1.6205,-1.6371,-1.6413,-1.6413,-1.6413,-1.6278,-1.6088,-1.5817,-1.4939,-1.419,-1.3991,-1.3983,-1.4193,-1.4778,-1.5311,-1.5962,-1.6818,-1.7081,-1.7199,-1.7199,-1.7199,-1.7199,-1.7199,-1.6153,-1.5487,-1.5487,-1.4079,-1.3229,-1.3229,-1.2102,-1.1488,-1.1488,-1.0313,-0.9595,0.0,0.0,0.0,0.0,0.0,0.0,0.0,0.0,0.0,0.0,0.0,0.0,0.0,0.0,0.0,0.0,0.0,0.0,0.0,0.0,0.0,0.0,0.0,0.0,0.0,-0.7845,-0.8602,-1.0063,-1.0331,-1.0779,-1.1679,-1.2127,-1.2294,-1.219,-1.316,-1.3652,-1.3411,-1.4175,-1.475,-1.4978,-1.458,-1.454,-1.4884,-1.4095,-1.3884,-1.4245,-1.3963,-1.377,-1.366,-1.366,-1.3601,-1.3492,-1.3775,-1.3876,-1.3861,-1.3884,-1.382,-1.3724,-1.4064,-1.4243,-1.4438,-1.5837,-1.6356,-1.6416,-1.6741,-1.6736,-1.6601,-1.6601,-1.6394,-1.6115,-1.597,-1.6164,-1.6413,-1.6413,-1.6591,-1.6789,-1.6789,-1.6601,-1.6413,-1.6413,-1.6413,-1.6413,-1.6413,-1.6431,-1.6506,-1.6637,-1.6169,-1.5668,-1.5315,-1.5587,-1.5925,-1.6183,-1.6307,-1.6659,-1.7405,-1.7329,-1.7199,-1.7199,-1.7199,-1.7199,-1.7199,-1.6153,-1.5487,-1.5487,-1.4066,-1.3111,-1.2915,-1.2286,-1.184,-1.1641,-1.0871,-1.0431,-1.0327,0.0,0.0,0.0,0.0,0.0,0.0,0.0,0.0,0.0,0.0,0.0,0.0,0.0,0.0,0.0,0.0,0.0,0.0,0.0,0.0,0.0,0.0,0.0,-0.852,-0.8773,-0.9365,-1.0647,-1.1666,-1.2348,-1.2621,-1.3983,-1.4696,-1.4385,-1.4684,-1.487,-1.4837,-1.521,-1.5402,-1.5402,-1.5661,-1.5995,-1.6437,-1.5593,-1.5346,-1.5718,-1.4948,-1.442,-1.411,-1.4072,-1.3858,-1.3579,-1.4274,-1.4573,-1.4673,-1.5392,-1.5807,-1.5896,-1.474,-1.478,-1.5551,-1.6497,-1.72,-1.7699,-1.7699,-1.7409,-1.7027,-1.6987,-1.7017,-1.6924,-1.6508,-1.6423,-1.6423,-1.6423,-1.6423,-1.6423,-1.6423,-1.6423,-1.6423,-1.6423,-1.6423,-1.6423,-1.6433,-1.6516,-1.6637,-1.6779,-1.689,-1.7002,-1.7242,-1.7513,-1.7846,-1.8309,-1.7898,0.0,-1.8057,-1.7591,-1.7212,-1.7199,-1.7199,-1.7199,-1.7199,-1.6153,-1.5487,-1.5487,-1.4406,-1.349,-1.2928,-1.3185,-1.3053,-1.2483,-1.2421,-1.1868,-1.0788,0.0,0.0,0.0,0.0,0.0,0.0,0.0,0.0,0.0,0.0,0.0,0.0,0.0,0.0,0.0,0.0,0.0,0.0,0.0,0.0,0.0,-0.8024,-0.8331,-0.8689,-0.9865,-1.122,-1.2625,-1.3269,-1.4108,-1.5418,-1.554,-1.5496,-1.5378,-1.6183,-1.6482,-1.5993,-1.707,-1.7681,-1.7681,-1.7586,-1.756,-1.7705,-1.69,-1.653,-1.6632,-1.6413,-1.6249,-1.615,-1.5507,-1.5069,-1.4764,-1.4357,-1.4315,-1.4637,-1.4966,-1.5569,-1.6236,-1.6435,-1.655,-1.666,-1.761,-1.7841,-1.7699,-1.7699,-1.7626,-1.7461,-1.712,-1.7017,-1.6924,-1.6508,-1.6601,-1.6831,-1.6831,-1.6831,-1.6831,-1.6831,-1.6831,-1.6831,-1.6831,-1.6831,-1.686,-1.7036,-1.6812,-1.6722,-1.7099,-1.7484,-1.7595,-1.7028,-1.7332,-1.7683,-1.7799,-1.8017,0.0,-1.8109,-1.7957,-1.7682,-1.7251,-1.7199,-1.7199,-1.7199,-1.6153,-1.5487,-1.5487,-1.3601,-1.2622,-1.2888,-1.2178,-1.1816,-1.1858,-1.2206,-1.1803,0.0,0.0,0.0,0.0,0.0,0.0,0.0,0.0,0.0,0.0,0.0,0.0,0.0,0.0,0.0,0.0,0.0,0.0,0.0,0.0,0.0,0.0,-0.8928,-0.9437,-1.0052,-1.1022,-1.2186,-1.3635,-1.4484,-1.5491,-1.6844,-1.6823,-1.6713,-1.6713,-1.7456,-1.7721,-1.7328,-1.8315,-1.887,-1.887,-1.8751,-1.874,-1.891,-1.8104,-1.7758,-1.7965,-1.7609,-1.7406,-1.7319,-1.6813,-1.6468,-1.6237,-1.5901,-1.5847,-1.6093,-1.6298,-1.6793,0.0,0.0,0.0,0.0,0.0,-1.8392,-1.7999,-1.7999,-1.7854,-1.7657,-1.7389,-1.7296,-1.7213,-1.6788,-1.681,-1.6975,-1.6789,-1.6738,-1.6738,-1.6738,-1.6872,-1.7017,-1.7017,-1.7017,-1.7046,-1.7155,-1.6877,-1.6694,-1.7043,-1.7496,0.0,-1.7261,-1.797,-1.8667,-1.887,-1.8934,-1.8939,-1.8836,-1.8401,-1.797,-1.7617,-1.7356,-1.7199,-1.7199,-1.6388,0.0,0.0,0.0,-1.3274,-1.368,-1.2819,0.0,0.0,0.0,0.0,0.0,0.0,0.0,0.0,-1.0887,-1.1052,0.0,0.0,0.0,0.0,0.0,0.0,0.0,0.0,0.0,0.0,0.0,0.0,0.0,0.0,0.0,0.0,-0.9945,-1.0916,-1.1981,-1.229,-1.2875,-1.4167,-1.545,-1.6575,-1.7375,-1.7793,-1.8027,-1.8076,-1.8393,-1.8627,-1.8676,0.0,0.0,0.0,0.0,-1.9609,-1.999,-1.9221,-1.9012,-1.942,-1.8647,-1.8246,-1.8136,-1.8059,-1.7914,-1.7804,-1.7977,-1.8041,-1.8116,-1.8335,-1.8573,-1.8774,-1.8114,-1.7978,-1.8206,-1.8865,-1.8849,-1.8486,-1.8486,0.0,0.0,-1.7792,-1.7771,-1.7688,-1.7234,-1.7089,-1.6996,-1.6581,-1.6485,-1.6475,-1.6423,-1.6715,-1.7027,-1.7079,-1.7089,-1.7089,-1.7089,-1.6873,-1.6701,-1.679,-1.7172,-1.7534,-1.7728,-1.8963,-2.0055,-2.0498,-2.0169,-1.9878,-1.9812,-1.8858,-1.8166,-1.8114,0.0,0.0,-1.7199,-1.6702,-1.6166,-1.5649,-1.5047,-1.4709,-1.4695,-1.4301,-1.4558,-1.5564,-1.5651,-1.535,-1.4691,-1.4841,-1.4603,-1.4019,-1.3268,-1.3226,0.0,0.0,0.0,0.0,0.0,0.0,0.0,0.0,0.0,0.0,0.0,0.0,0.0,0.0,0.0,-1.0016,-1.0834,-1.1728,-1.283,-1.4045,-1.5038,-1.5626,-1.6572,-1.7334,-1.7828,-1.7959,-1.812,-1.8451,-1.8559,-1.8754,-1.9141,-1.9561,-1.9795,-1.9795,-2.0137,-2.04,-2.0478,-2.0285,-2.0246,-2.0372,0.0,0.0,-2.0294,-1.9565,-1.9167,-1.9005,-1.798,-1.7734,-1.8071,-1.7914,-1.8317,-1.9042,-1.8898,-1.8865,-1.8898,-1.9031,-1.9046,-1.8973,-1.8973,-1.8911,-1.8787,-1.8382,-1.8257,-1.8175,-1.7699,-1.7564,0.0,-1.7006,-1.6882,-1.68,-1.6467,-1.6715,-1.711,-1.7482,-1.7564,-1.7595,-1.7697,-1.7432,-1.7109,-1.6984,-1.7172,-1.7518,-1.81,-1.8922,-1.9539,-1.9629,-2.0156,-2.0347,-1.9865,-1.9185,-1.8584,-1.814,-1.7565,-1.7199,-1.7199,-1.6702,-1.6336,-1.6219,-1.5657,-1.4931,-1.4043,-1.4825,-1.4938,-1.4197,-1.4726,-1.4648,-1.4004,-1.508,-1.5544,-1.538,-1.4169,-1.369,0.0,0.0,0.0,0.0,0.0,0.0,0.0,0.0,0.0,0.0,0.0,-0.84,-0.886,0.0,-1.0549,-1.0907,-1.2021,-1.319,-1.4192,-1.5278,-1.6028,-1.6221,-1.7097,-1.7783,-1.7988,-1.8008,-1.8184,-1.8568,-1.8802,-1.915,-1.958,-2.001,-2.0244,-2.0244,-2.0488,-2.0605,-2.0605,-2.0605,-2.0605,-2.0605,-2.0605,-2.0693,-2.0867,-2.0459,-2.0285,-2.0243,-1.9447,-1.9097,-1.9065,-1.8586,-1.8697,-1.9108,-1.9108,-1.9108,-1.9108,-1.9108,-1.9108,-1.9108,-1.9108,-1.9108,-1.9067,-1.8839,-1.8756,-1.8673,-1.8185,-1.8061,-1.7957,-1.7482,-1.7192,-1.6965,-1.6738,-1.7017,-1.742,-1.7647,-1.7874,-1.8082,-1.8145,-1.7604,-1.7141,-1.7161,-1.7109,-1.7284,-1.8077,-1.8762,-1.9303,-1.9656,-2.0283,-2.0607,-2.0294,-1.9708,-1.9133,-1.8558,-1.7996,-1.7525,-1.7225,-1.6702,-1.6388,-1.6388,-1.5826,-1.5409,-1.5216,-1.5788,-1.5983,-1.5764,-1.6084,-1.6084,-1.5755,-1.6428,-1.6742,-1.6727,-1.6054,-1.5755,0.0,0.0,0.0,0.0,0.0,0.0,0.0,-0.7468,-0.7987,-0.8506,-0.882,-0.9211,-0.9918,-1.092,-1.1676,-1.1795,-1.3219,-1.4625,-1.5537,-1.622,-1.6627,-1.6711,-1.748,-1.8008,-1.8008,-1.8008,-1.8188,-1.8695,-1.9092,-1.9512,-2.0019,-2.0371,-2.0605,-2.0605,-2.0605,-2.0605,-2.0605,-2.0605,-2.0605,-2.0605,-2.0605,-2.0693,-2.0906,-2.0906,-2.1022,-2.1185,-2.092,-2.0486,-1.9925,-1.9442,-1.9181,-1.9108,-1.9108,-1.9108,-1.9108,-1.9108,-1.9108,-1.9108,-1.9108,-1.9108,-1.9108,-1.9108,-1.9108,-1.9036,-1.8652,-1.8548,-1.8455,-1.7988,-1.7502,-1.712,-1.7007,-1.7223,-1.7482,-1.7657,-1.7999,-1.8278,-1.8393,-1.7719,-1.715,-1.7235,-1.7079,-1.7162,-1.7913,-1.8617,-1.9317,-1.9914,-2.0397,-2.0699,-2.0699,-2.0177,-1.9577,-1.8963,-1.8427,-1.7852,-1.7251,-1.6794,-1.6565,-1.6565,-1.6101,-1.6064,-1.654,-1.6704,-1.6998,-1.7486,-1.7633,-1.7713,-1.7713,-1.7833,-1.7893,-1.7908,-1.8027,-1.7953,-0.6918,-0.678,-0.7017,-0.733,-0.7602,-0.7999,0.0,-0.8964,-0.9226,-0.9993,-0.9954,-1.0054,-1.1038,-1.1526,-1.2059,-1.2877,-1.4132,-1.5291,-1.6182,-1.6854,-1.741,-1.7789,-1.7944,-1.8008,-1.8008,-1.8008,-1.835,-1.915,-1.9258,-1.9639,-2.0488,-2.0576,-2.0605,-2.0605,-2.0605,-2.0605,-2.0605,-2.0605,-2.0605,-2.0605,-2.0605,-2.0693,-2.0906,-2.0906,-2.1022,-2.1185,-2.092,-2.0349,-1.9588,-1.9693,-1.9471,-1.9108,-1.9108,-1.9108,-1.9108,-1.9108,-1.9108,-1.9108,-1.9108,-1.9108,-1.9108,-1.9108,-1.9108,-1.9088,-1.9046,-1.9025,-1.8922,-1.8465,-1.7988,-1.7533,-1.712,-1.6758,-1.6736,-1.7513,-1.774,-1.7874,-1.8299,-1.7999,-1.7502,-1.7119,-1.7241,-1.7496,-1.7722,-1.875,-1.963,-1.994,-2.0397,-2.0699,-2.0699,-2.0177,-1.9577,-1.8963,-1.8427,-1.7852,-1.7251,-1.7146,-1.7107,-1.7107,-1.7042,-1.6834,-1.6435,-1.7054,-1.7187,-1.6732,-1.7372,-1.7713,-1.7713,-1.8296,-1.8597,-1.8612,-1.9196,-1.8837,-0.8065,-0.8003,-0.809,-0.8216,-0.8604,-0.9005,-0.9171,-0.9477,-0.9849,-1.0315,-1.0534,-1.0774,-1.1178,-1.215,-1.3052,-1.3544,-1.4984,-1.624,-1.6906,-1.7209,-1.7539,-1.7959,-1.7793,-1.7744,-1.7988,-1.8008,-1.8359,-1.9219,-1.9287,-1.9695,-2.0556,-2.0605,-2.0605,-2.0605,-2.0605,-2.0605,-2.0605,-2.0605,-2.0605,-2.0605,-2.0605,-2.0644,-2.0731,-2.0731,-2.0886,-2.1185,-2.0807,-2.0541,-2.0406,-1.9975,-1.9679,-1.9482,-1.9212,-1.9108,-1.9108,-1.9108,-1.9108,-1.9108,-1.9108,-1.9108,-1.9108,-1.9108,-1.9108,-1.9108,-1.9108,-1.9108,-1.9067,-1.887,-1.8454,-1.8009,-1.7533,-1.7275,-1.7161,-1.7275,-1.7699,-1.8164,-1.8372,-1.8237,-1.7978,-1.7502,-1.7579,-1.7834,-1.8111,-1.8818,-1.9604,-2.0296,-2.0561,-2.0699,-2.0699,-2.0478,-2.0098,-1.9486,-1.8623,-1.7996,-1.7748,-1.7395,-1.7199,-1.7199,-1.7199,-1.7197,-1.7223,-1.7755,-1.8068,-1.8071,-1.859,-1.8867,-1.8867,-1.9151,-1.9271,-1.9286,-1.9573,-1.9408,-0.8671,-0.8804,-0.8945,-0.9031,-0.9492,-0.9893,-0.9724,-1.0023,-1.0443,-1.0711,-1.0912,-1.1152,-1.1492,-1.2484,-1.3494,-1.4305,-1.5551,-1.6722,-1.7447,-1.7559,-1.7666,-1.7978,-1.7744,-1.7676,-1.7978,-1.8008,-1.8359,-1.9219,-1.9287,-1.9695,-2.0556,-2.0605,-2.0605,-2.0605,-2.0605,-2.0605,-2.0605,-2.0605,-2.0605,-2.0605,-2.0605,-2.0605,-2.0605,-2.0605,-2.0809,-2.1118,-2.0825,-2.0839,-2.0952,-2.041,-2.0093,-1.9938,-1.9471,-1.9295,-1.9285,-1.915,-1.9108,-1.9108,-1.9108,-1.9108,-1.9108,-1.9108,-1.9108,-1.9108,-1.9108,-1.9108,-1.9108,-1.9108,-1.8766,-1.8278,-1.7812,-1.7606,-1.7461,-1.7254,-1.7699,-1.8268,-1.8548,-1.8497,-1.8288,-1.7968,-1.8061,-1.83,-1.8577,-1.9139,-1.9823,-2.0524,-2.0687,-2.0699,-2.0699,-2.0543,-2.0281,-1.9852,-1.8911,-1.8257,-1.8114,-1.7695,-1.7382,-1.7212,-1.7199,-1.7344,-1.7618,-1.8187,-1.8649,-1.8917,-1.9453,-1.9708,-1.9708,-1.9708,-1.9708,-1.9708,-1.9708,-1.9708,-0.8563,-0.8798,-0.9271,-0.9586,-1.0131,-1.064,-1.0875,-1.0955,-1.1115,-1.1567,-1.1087,-1.1062,-1.2494,-1.2374,-1.2859,-1.5355,-1.579,-1.6346,-1.777,-1.7988,-1.7998,-1.8008,-1.7998,-1.7998,-1.8008,-1.8008,-1.8359,-1.9219,-1.9287,-1.9695,-2.0556,-2.0605,-2.0605,-2.0605,-2.0605,-2.0605,-2.0605,-2.0605,-2.0605,-2.0605,-2.0605,-2.0605,-2.0605,-2.0605,-2.0693,-2.0906,-2.1118,-2.1047,-2.0818,-2.0983,-2.0803,-2.0358,-1.9948,-1.9772,-1.972,-1.9264,-1.9108,-1.9108,-1.9108,-1.9108,-1.9108,-1.9108,-1.9108,-1.9108,-1.9108,-1.9108,-1.9108,-1.9108,-1.8766,-1.8278,-1.7812,-1.7368,-1.7141,-1.7575,-1.7699,-1.7957,-1.8891,-1.8725,-1.8403,-1.8393,-1.8698,-1.8969,-1.8985,-1.9807,-2.0461,-2.0486,-2.0612,-2.0699,-2.0699,-2.0203,-1.9826,-1.9799,-1.9251,-1.8675,-1.814,-1.8074,-1.7813,-1.7238,-1.7199,-1.722,-1.722,-1.8028,-1.85,-1.8519,-1.931,-1.9708,-1.9708,-1.9708,-1.9708,-1.9708,-1.9708,-1.9708,-0.8978,-0.9519,-1.0171,-1.0271,-1.0734,-1.1156,-1.1256,-1.1283,-1.1256,-1.1229,-1.1169,-1.1207,-1.1415,-1.2184,-1.3154,-1.4236,-1.5464,-1.6529,-1.7292,-1.7521,-1.7695,-1.7978,-1.7764,-1.7705,-1.7978,-1.8008,-1.8242,-1.8783,-1.9121,-1.9531,-2.0107,-2.0449,-2.0605,-2.0605,-2.0605,-2.0605,-2.0605,-2.0605,-2.0605,-2.0605,-2.0605,-2.0605,-2.0605,-2.0605,-2.077,-2.1089,-2.1167,-2.1306,-2.1436,-2.1201,-2.1021,-2.0798,-2.0379,-2.0017,-1.9772,-1.9616,-1.9367,-1.9108,-1.9108,-1.9108,-1.9108,-1.9108,-1.9108,-1.9108,-1.9108,-1.9108,-1.9108,-1.9108,-1.8994,-1.8766,-1.8278,-1.7833,-1.743,-1.7285,-1.7244,-1.7409,-1.805,-1.8288,-1.8414,-1.8414,-1.9206,-1.9719,-1.9226,-2.0047,-2.0707,-2.0526,-2.0612,-2.0699,-2.0699,-2.0504,-2.0399,-2.0399,-1.9852,-1.942,-1.9251,-1.8858,-1.8388,-1.7826,-1.78,-1.7617,-1.7212,-1.8028,-1.85,-1.85,-1.9277,-1.9708,-1.9708,-2.0154,-2.0363,-2.0378,-2.0812,-2.1021,-0.9713,-1.02,-1.0801,-1.1008,-1.1309,-1.1583,-1.1583,-1.1503,-1.1316,-1.0922,-1.0902,-1.0905,-1.0838,-1.1631,-1.2652,-1.3718,-1.4975,-1.6119,-1.6981,-1.7325,-1.7638,-1.7944,-1.7773,-1.7715,-1.7978,-1.8008,-1.8184,-1.8568,-1.9043,-1.9473,-1.9893,-2.037,-2.0605,-2.0605,-2.0605,-2.0605,-2.0605,-2.0605,-2.0605,-2.0605,-2.0605,-2.0605,-2.0605,-2.0605,-2.0809,-2.1205,-2.1205,-2.1436,-2.1787,-2.1487,-2.1362,-2.1311,-2.0819,-2.0493,-2.0238,-1.9917,-1.9606,-1.9326,-1.916,-1.9108,-1.9108,-1.9108,-1.9108,-1.9108,-1.9108,-1.9108,-1.9108,-1.9108,-1.9108,-1.8994,-1.8528,-1.8061,-1.7626,-1.7327,-1.713,-1.7182,-1.7802,-1.8185,-1.8465,-1.8631,-1.959,-2.0192,-1.9545,-2.0212,-2.0759,-2.0588,-2.0637,-2.0699,-2.0699,-2.0699,-2.0699,-2.0699,-2.0347,-2.0022,-1.9826,-1.9447,-1.8989,-1.8427,-1.8205,-1.7931,-1.7539,-1.799,-1.8436,-1.8804,-1.9497,-2.0024,-2.0427,-2.0857,-2.1066,-2.1081,-2.15,-2.1695,-1.0613,-1.0841,-1.1169,-1.1765,-1.1906,-1.1906,-1.1906,-1.1617,-1.1223,-1.0687,-1.0294,-1.0212,-1.0694,-1.077,-1.1485,-1.3717,-1.4443,-1.526,-1.6877,-1.7446,-1.7784,-1.7974,-1.8027,-1.8047,-1.8047,-1.8057,-1.8208,-1.8607,0.0,-1.9473,-1.9893,-2.037,-2.0605,-2.0605,-2.0605,-2.0605,-2.0605,-2.0605,-2.0605,-2.0605,-2.0605,-2.0605,-2.0605,-2.0605,-2.0809,-2.1205,-2.1205,-2.1436,-2.1807,-2.1807,-2.1807,-2.1766,-2.1321,-2.1135,-2.101,-2.0187,-1.9834,-1.973,-1.9295,-1.9119,-1.9108,-1.9108,-1.9108,-1.9108,-1.9108,-1.9108,-1.9108,-1.9108,-1.9108,-1.9005,-1.8559,-1.8092,-1.773,-1.7709,-1.7347,-1.7244,-1.8123,-1.8362,-1.8539,-1.9007,-1.9903,-2.0454,-2.0077,-2.0405,-2.0738,-2.0712,-2.0699,-2.0699,-2.0699,-2.0699,-2.0699,-2.0699,-2.0699,-2.0465,-1.9891,-1.9852,-1.959,-1.8989,-1.8466,-1.8166,-1.814,-1.7979,-1.8378,-1.9396,-1.989,-2.0646,-2.1655,-2.1724,-2.1739,-2.1739,-2.1784,-2.1799,-1.0854,-1.129,-1.1718,-1.1866,-1.1906,-1.1906,-1.1906,-1.1337,-1.0675,-1.0307,-0.979,-0.94,-0.9343,-1.0444,-1.1663,-1.2564,-1.4439,-1.606,-1.6845,-1.7499,-1.794,-1.7974,-1.8256,-1.8442,-1.8442,-1.8769,-1.9004,-1.9111,-1.9219,-1.9473,-1.9893,-2.037,-2.0605,-2.0605,-2.0605,-2.0605,-2.0605,-2.0605,-2.0605,-2.0605,-2.0605,-2.0605,-2.0605,-2.0605,-2.0809,-2.1205,-2.1205,-2.1436,-2.1807,-2.1807,-2.1807,-2.1797,-2.1673,-2.1414,-2.1083,-2.0855,-2.0373,-1.9772,-1.9658,-1.9388,-1.9108,-1.9108,-1.9108,-1.9108,-1.9108,-1.9108,-1.9108,-1.9108,-1.9108,-1.9077,-1.8953,-1.859,-1.8133,-1.7781,-1.7347,-1.7079,-1.7306,-1.8024,-1.8766,-1.921,-2.0423,-2.1387,-2.1387,-2.1335,-2.1146,-2.0777,-2.0699,-2.0699,-2.0699,-2.0699,-2.0699,-2.0699,-2.0699,-2.0646,-2.0478,-2.0465,-2.0216,-1.9616,-1.9447,-1.9159,-1.8715,-1.8981,-1.9274,-1.9533,-2.0287,-2.0828,-2.1105,-2.201,-2.2448,-2.2463,-2.2906,-2.3116,-1.1363,-1.1745,-1.2067,-1.194,-1.1906,-1.1772,-1.1216,-1.0722,-1.0204,-0.9492,-0.9092,-0.8757,-0.8495,-0.9786,-1.1112,-1.1724,-1.3938,-1.5839,-1.6508,-1.7341,-1.7896,-1.7974,-1.8344,-1.8598,-1.8598,-1.9033,-1.9365,-1.9551,-1.9561,-1.9668,-1.9902,-2.037,-2.0605,-2.0605,-2.0605,-2.0605,-2.0605,-2.0605,-2.0605,-2.0605,-2.0605,-2.0605,-2.0605,-2.0605,-2.077,-2.1061,0.0,-2.1282,-2.1655,-2.1655,-2.1731,-2.1807,-2.1807,-2.1652,-2.1393,-2.1186,-2.0659,-2.0027,-1.9865,-1.9492,-1.9108,-1.9108,-1.9108,-1.9108,-1.9108,-1.9108,-1.9108,-1.9108,-1.9108,-1.9108,-1.9108,-1.8756,-1.8319,-1.8071,-1.7482,-1.7068,-1.7265,-1.7797,-1.8617,-1.9907,-2.0749,-2.1489,-2.2191,-2.1846,-2.1407,-2.1106,-2.0844,-2.0699,-2.0699,-2.0699,-2.0699,-2.0699,-2.0699,-2.0699,-2.0699,-2.0699,-2.0543,-2.0229,-1.9943,-1.9656,-1.9316,-1.9284,-1.9507,-1.9989,-2.049,-2.0967,-2.1425,-2.2345,-2.2794,-2.2809,-2.3344,-2.3595,-1.194,-1.2111,-1.2231,-1.198,-1.1846,-1.1497,-1.0367,-0.9997,-0.9633,-0.8569,-0.8308,-0.8204,-0.7912,-0.9059,-1.0311,-1.1175,-1.3276,-1.5153,-1.6154,-1.7035,-1.7692,-1.7964,-1.8393,-1.865,-1.8685,-1.917,-1.9609,-1.9971,-2.0,-2.0,-2.0,-2.04,-2.0605,-2.0605,-2.0605,-2.0605,-2.0605,-2.0605,-2.0605,-2.0605,-2.0605,-2.0605,-2.0605,-2.0605,-2.0693,-2.0906,-2.0945,-2.1167,-2.1502,-2.154,-2.1655,-2.1807,-2.1807,-2.1807,-2.1756,-2.1352,-2.0876,-2.0333,-1.9986,-1.9544,-1.9108,-1.9108,-1.9108,-1.9108,-1.9108,-1.9108,-1.9108,-1.9108,-1.9108,-1.9108,-1.9108,-1.8808,-1.8486,-1.8424,-1.774,-1.7192,-1.7533,-1.775,-1.8508,-2.0802,-2.1086,-2.135,-2.2582,-2.221,-2.1681,-2.1511,-2.1093,-2.0791,-2.0712,-2.0699,-2.0699,-2.0699,-2.0699,-2.0699,-2.0699,-2.0699,-2.0699,-2.0699,-2.0216,-1.9917,-1.9917,-1.942,-1.9578,-2.0502,-2.0586,-2.1078,-2.2011,-2.2535,-2.2822,-2.2912,-2.3312,-2.353,-1.2098,-1.2265,-1.2231,-1.198,-1.1538,-1.0962,-1.0274,-0.9559,-0.8838,-0.8125,-0.7802,-0.756,-0.7225,-0.8822,-1.0434,-1.1237,-1.3298,-1.5266,-1.658,-1.694,-1.7293,-1.7935,-1.8569,-1.8998,-1.917,-1.9883,-2.041,-2.0488,-2.0488,-2.0488,-2.0488,-2.0566,-2.0605,-2.0605,-2.0605,-2.0605,-2.0605,-2.0605,-2.0605,-2.0605,-2.0605,-2.0605,-2.0605,-2.0605,-2.0693,-2.0906,-2.1099,0.0,-2.1502,-2.1693,-2.1769,-2.1807,-2.1807,-2.1807,-2.1797,-2.1714,-2.1155,-2.0374,-2.0338,-1.9768,-1.9108,-1.9108,-1.9108,-1.9108,-1.9108,-1.9108,-1.9108,-1.9108,-1.9108,-1.9108,-1.9108,-1.9046,-1.8891,-1.8497,-1.7988,-1.7502,-1.7192,-1.7853,-1.9202,-2.1466,-2.2121,-2.2381,-2.2745,-2.287,-2.2596,-2.1655,-2.142,-2.1198,-2.0764,-2.0699,-2.0699,-2.0699,-2.0699,-2.0699,-2.0699,-2.0699,-2.0699,-2.0699,-2.0607,-2.053,-2.053,-2.0425,-2.0475,-2.0665,-2.1043,-2.1339,-2.153,-2.2002,-2.2466,-2.2889,-2.2979,-2.3224,-1.2004,-1.2184,-1.2198,-1.175,-1.1316,-1.0722,-0.9673,-0.8991,-0.837,-0.7586,-0.7341,-0.7212,-0.7072,-0.8448,-0.9837,-1.0645,-1.2338,-1.4157,-1.5892,-1.6169,-1.6634,-1.7721,-1.8521,-1.9078,-1.9287,-2.0096,-2.0605,-2.0605,-2.0605,-2.0605,-2.0605,-2.0605,-2.0605,-2.0605,-2.0605,-2.0605,-2.0605,-2.0605,-2.0605,-2.0605,-2.0605,-2.0605,-2.0605,-2.0605,-2.0644,-2.0741,-2.0848,-2.1002,-2.1205,-2.1387,-2.154,-2.1655,-2.1769,-2.1807,-2.1807,-2.1807,-2.1217,-2.0385,-2.0385,-1.9831,-1.9108,-1.9108,-1.9108,-1.9108,-1.9108,-1.9108,-1.9108,-1.9108,-1.9108,-1.9108,-1.9108,-1.9108,-1.9046,-1.8828,-1.8392,-1.8009,-1.7792,-1.8175,-1.914,-2.1182,-2.1865,-2.2317,-2.3081,-2.3192,-2.3,-2.2479,-2.189,-2.1407,-2.1158,-2.087,-2.0699,-2.0699,-2.0699,-2.0699,-2.0699,-2.0699,-2.0699,-2.0699,-2.0699,-2.0699,-2.0699,-2.0699,-2.0699,-2.0699,-2.0923,-2.1033,-2.1033,-2.1506,-2.1874,-2.2133,-2.2374,-2.2589,-1.1886,-1.2037,-1.2084,-1.1522,-1.1116,-1.0454,-0.9112,-0.853,-0.8043,-0.7173,-0.7,-0.7051,-0.7201,-0.8203,-0.9256,-1.0074,-1.1402,-1.2997,-1.4877,-1.535,-1.6012,-1.7379,-1.828,-1.8899,-1.9214,-1.998,-2.0507,-2.0595,-2.0605,-2.0605,-2.0605,-2.0605,-2.0605,-2.0605,-2.0605,-2.0605,-2.0605,-2.0605,-2.0605,-2.0605,-2.0605,-2.0605,-2.0605,-2.0605,-2.0605,-2.0605,-2.0644,-2.0741,-2.0906,-2.1138,-2.132,-2.1512,-2.1655,-2.1769,-2.1797,-2.1694,-2.1135,-2.0374,-2.0317,-1.9748,-1.9108,-1.9108,-1.9108,-1.9108,-1.9108,-1.9108,-1.9108,-1.9108,-1.9108,-1.9108,-1.9108,-1.9108,-1.9077,-1.8973,-1.8673,-1.8414,-1.8414,-1.8499,-1.9116,-2.0778,-2.1408,-2.2094,-2.3378,-2.3389,-2.3212,-2.3208,-2.2348,-2.1655,-2.1525,-2.1027,-2.0699,-2.0699,-2.0699,-2.0699,-2.0699,-2.0699,-2.0699,-2.0699,-2.0699,-2.0699,-2.0699,-2.0699,-2.0699,-2.0699,-2.0699,-2.0699,-2.0699,-2.1057,-2.1302,-2.1423,-2.1779,-2.1988,-1.1832,-1.1926,-1.1866,-1.151,-1.0776,-0.9953,-0.9018,-0.8345,-0.7766,-0.7133,-0.7,-0.714,-0.7563,-0.8379,-0.9256,-1.0074,-1.1274,-1.2637,-1.4091,-1.4784,-1.5603,-1.684,-1.771,-1.8402,-1.8966,-1.9595,-2.0137,-2.0576,-2.0605,-2.0605,-2.0605,-2.0605,-2.0605,-2.0605,-2.0605,-2.0605,-2.0605,-2.0605,-2.0605,-2.0605,-2.0605,-2.0605,-2.0605,-2.0605,-2.0605,-2.0605,-2.078,-2.0867,0.0,-2.1138,-2.132,-2.1502,-2.1512,-2.1655,-2.1756,-2.1331,-2.0855,-2.0369,-1.999,-1.9523,-1.9108,-1.9108,-1.9108,-1.9108,-1.9108,-1.9108,-1.9108,-1.9108,-1.9108,-1.9108,-1.9108,-1.9108,-1.8994,-1.8579,-1.8445,-1.8414,-1.8414,-1.8881,-1.9675,-2.0873,-2.1502,-2.2249,-2.3407,-2.3471,-2.3343,-2.3217,-2.2715,-2.2126,-2.1577,-2.1027,-2.0699,-2.0699,-2.0699,-2.0699,-2.0699,-2.0699,-2.0699,-2.0699,-2.0699,-2.0699,-2.0699,-2.0699,-2.0699,-2.0699,-2.0699,-2.0699,-2.0699,-2.0724,-2.0997,-2.1399,-2.1434,-2.1684,-1.1082,-1.1336,-1.153,-1.1236,-1.0635,-0.9857,-0.9005,-0.8332,-0.7732,-0.7126,-0.7,-0.7063,-0.7252,-0.7981,-0.8789,-0.9377,-1.0149,-1.1186,-1.2728,-1.3341,-1.4237,-1.5801,-1.691,-1.7833,-1.8555,-1.9198,-1.9764,-2.0382,-2.0527,-2.0605,-2.0605,-2.0605,-2.0605,-2.0605,-2.0605,-2.0605,-2.0605,-2.0605,-2.0605,-2.0605,-2.0605,-2.0605,-2.0605,-2.0605,-2.0605,-2.0605,-2.0693,-2.0545,0.0,-2.0518,-2.0519,-2.0353,-2.0501,-2.0649,-2.0822,-2.0648,-2.0349,-2.0006,-1.9855,-1.9492,-1.9108,-1.9108,-1.9108,-1.9108,-1.9108,-1.9108,-1.9108,-1.9108,-1.9108,-1.9108,-1.9108,-1.9108,-1.9056,-1.887,-1.8828,-1.8828,-1.8828,-1.9025,-1.9404,-1.9966,-2.0415,-2.1016,-2.1987,-2.2026,-2.2014,-2.2358,-2.1683,-2.1147,-2.1143,-2.063,-2.0397,-2.0674,-2.0699,-2.0699,-2.0699,-2.0699,-2.0699,-2.0699,-2.0699,-2.0699,-2.0699,-2.0699,-2.0699,-2.0699,-2.0699,-2.0699,-2.0699,-2.0699,-2.0799,-2.0997,-2.0997,-2.1082,-1.0439,-1.0728,-1.0956,-1.0782,-1.0294,-0.9624,-0.8858,-0.8265,-0.7732,-0.7126,-0.7,-0.7042,-0.7189,-0.7814,-0.8457,-0.8924,-0.9497,-1.0401,-1.1889,-1.2551,-1.3488,-1.5123,-1.6207,-1.7163,-1.7964,-1.8814,-1.9535,-2.0062,-2.0343,-2.0527,-2.0605,-2.0605,-2.0605,-2.0605,-2.0605,-2.0605,-2.0605,-2.0605,-2.0605,-2.0605,-2.0605,-2.0605,-2.0605,-2.0605,-2.0537,-2.041,-2.041,-2.0127,0.0,-1.9875,-1.9799,-1.9604,-1.9749,-1.9929,-2.0073,-1.9951,-1.9837,-1.9679,-1.9534,-1.9344,-1.9108,-1.9108,-1.9108,-1.9108,-1.9108,-1.9108,-1.9108,-1.9108,-1.9108,-1.9108,-1.9108,-1.9108,-1.9108,-1.9108,-1.9108,-1.9108,-1.9108,-1.9264,-1.9413,-1.941,-1.973,-2.0209,-2.0861,-2.082,-2.09,-2.1564,-2.0893,-2.0409,-2.0679,-2.0307,-2.0131,-2.046,-2.0624,-2.0699,-2.0699,-2.0699,-2.0699,-2.0699,-2.0699,-2.0699,-2.0699,-2.0699,-2.0699,-2.0699,-2.0699,-2.0699,-2.0699,-2.0699,-2.0699,-2.0699,-2.0699,-2.0766,-1.001,-1.0127,-1.0097,-1.0097,-0.9657,-0.9071,-0.8536,-0.8143,-0.7732,-0.7126,-0.7,-0.7147,-0.7599,-0.8021,-0.8447,-0.8923,-0.9736,-1.0713,-1.1926,-1.2799,-1.3736,-1.4955,-1.5627,-1.6333,-1.7136,-1.8487,-1.9412,-1.9696,-2.0072,0.0,-2.0605,-2.0605,-2.0605,-2.0605,-2.0605,-2.0605,-2.0605,-2.0605,-2.0605,-2.0605,-2.0605,-2.0605,-2.0605,-2.0605,-2.037,-1.9922,-1.9922,-1.9678,0.0,-1.9297,-1.9433,-1.9604,-1.9604,-1.9749,-1.9833,-1.9374,-1.9328,-1.942,-1.8971,-1.8942,-1.9108,-1.9108,-1.9108,-1.9108,-1.9108,-1.9108,-1.9108,-1.9108,-1.9108,-1.9108,-1.9108,-1.9108,-1.9108,-1.9108,-1.9108,-1.9108,-1.9108,-1.9616,-1.9954,-1.9494,-1.9823,-2.0247,-2.0386,-2.0303,-2.0418,-2.1031,-2.0646,-2.0301,-2.0301,-2.0124,-1.9991,-2.0016,-2.0435,-2.0699,-2.0699,-2.0699,-2.0699,-2.0699,-2.0699,-2.0699,-2.0699,-2.0699,-2.0699,-2.0699,-2.0699,-2.0699,-2.0699,-2.0699,-2.0699,-2.0699,-2.0699,-2.0988,-0.8804,-0.9122,-0.9444,-0.9244,-0.8931,-0.8544,-0.8156,-0.7836,-0.7502,-0.708,-0.7,-0.7042,-0.7189,-0.7814,-0.8537,-0.93,-1.0145,-1.1048,-1.1972,-1.3038,-1.3947,-1.4616,-1.5933,-1.6965,-1.7363,-1.8057,-1.856,-1.8807,-1.9487,-1.9918,-1.9994,-2.0372,-2.0605,-2.0605,-2.0605,-2.0605,-2.0605,-2.0605,-2.0605,-2.0605,-2.0605,-2.0605,-2.0595,-2.0254,-2.0049,-1.9893,-1.9609,-1.9238,-1.8812,-1.8812,-1.8707,-1.8512,-1.8512,-1.8616,-1.8804,-1.8743,-1.8863,-1.9002,-1.9026,-1.9042,-1.9108,-1.9108,-1.9108,-1.9108,-1.9108,-1.9108,-1.9108,-1.9108,-1.9108,-1.9108,-1.9108,-1.9108,-1.9108,-1.9108,-1.9108,-1.9108,-1.9108,-1.9264,-1.9197,-1.8396,-1.8558,-1.8824,-1.876,-1.8601,-1.8724,-1.9467,-1.9136,-1.8915,-1.9225,-1.9228,-1.9396,-1.994,-2.0131,-2.0346,-2.0674,-2.0699,-2.0699,-2.0699,-2.0699,-2.0699,-2.0699,-2.0699,-2.0699,-2.0699,-2.0699,-2.0699,-2.0699,-2.0699,-2.0883,-2.1237,-2.1237,-2.1551,-0.7988,-0.8286,-0.8567,-0.8415,-0.8255,-0.8074,-0.7799,-0.7631,-0.7404,-0.7066,-0.7147,-0.721,-0.7042,-0.7855,-0.8687,-0.9038,-0.9983,-1.1021,-1.1963,-1.302,-1.3983,-1.4854,-1.62,-1.7075,-1.7037,-1.7534,-1.7965,-1.8164,-1.8825,-1.9249,-1.9324,-1.9753,-2.0012,-2.0012,-2.04,-2.0527,-2.0322,-2.0517,-2.0439,-2.0126,-2.0244,-2.0273,-2.0106,-1.9805,-1.959,-1.9414,-1.915,-1.8763,0.0,-1.8364,-1.8242,-1.8008,-1.8008,-1.8076,-1.8202,-1.8381,-1.8549,-1.8717,-1.8908,-1.9042,-1.9108,-1.9108,-1.9108,-1.9108,-1.9108,-1.9108,-1.9108,-1.9108,-1.9108,-1.9108,-1.9108,-1.9108,-1.9108,-1.9108,-1.9108,-1.9108,-1.9108,-1.9108,-1.8891,-1.8123,-1.8166,-1.8244,-1.7881,-1.7783,-1.7941,-1.8374,-1.8207,-1.8166,-1.8503,-1.8691,-1.9052,-1.9708,-1.9927,-2.0271,-2.0949,-2.0805,-2.0699,-2.0699,-2.0699,-2.0804,-2.1001,-2.0817,-2.0908,-2.1341,-2.1119,-2.1119,-2.1341,-2.1328,-2.1511,-2.1851,-2.1838,-2.2048,0.0,-0.7551,-0.7581,-0.762,-0.7637,-0.7612,-0.7479,-0.7457,0.0,-0.706,-0.737,-0.7586,-0.7174,-0.8139,-0.8879,-0.8543,-0.9579,-1.0833,-1.2018,-1.2937,-1.4029,-1.5551,-1.6431,-1.6762,-1.6395,-1.7027,-1.753,-1.7727,-1.8136,-1.8433,-1.8644,-1.8829,-1.9004,-1.9004,-1.9954,-2.0273,-1.9873,-2.0273,-2.0116,-1.9287,-1.9678,-1.9668,-1.9287,-1.9258,-1.9023,0.0,-1.8568,-1.8334,-1.8008,-1.8008,-1.8008,-1.8008,-1.8008,-1.8008,-1.8008,-1.8245,-1.8371,-1.8516,-1.8741,-1.8942,-1.9108,-1.9108,-1.9108,-1.9108,-1.9108,-1.9108,-1.9108,-1.9108,-1.9108,-1.9108,-1.9108,-1.9108,-1.9108,-1.9108,-1.9108,-1.9108,-1.9108,-1.9108,-1.8963,-1.8497,-1.852,-1.8365,-1.7692,-1.7768,-1.7915,-1.7779,-1.7855,-1.7982,-1.8096,-1.8476,-1.8917,-1.9364,-1.9732,-2.0386,-2.1407,-2.1002,-2.0725,-2.0739,-2.0764,-2.0975,-2.1485,-2.1066,-2.1328,-2.2375,-2.1838,-2.1851,-2.24,-2.2414,-2.2427,-2.2465,-2.2467,-2.2453,-0.6652,0.0,-0.7173,-0.6978,-0.6927,-0.6952,0.0,-0.7034,-0.7036,-0.6999,-0.737,-0.7756,-0.7954,-0.854,-0.9257,-1.0072,-1.1027,-1.1991,-1.2883,-1.4231,0.0,-1.6083,-1.6606,-1.6872,-1.678,-1.6936,-1.7046,-1.7125,-1.7645,-1.794,-1.8012,-1.8485,-1.8848,-1.9004,-1.9234,-1.9403,-1.9434,-1.9541,-1.9482,-1.9287,-1.9394,-1.9385,-1.9277,-1.8945,-1.8695,-1.8588,-1.8256,-1.8105,-1.8008,-1.8008,-1.8008,-1.8008,-1.8008,-1.8008,-1.8008,-1.8245,-1.8371,-1.8516,-1.8741,-1.8942,-1.9108,-1.9108,-1.9108,-1.9108,-1.9108,-1.9108,-1.9108,-1.9108,-1.9108,-1.9108,-1.9108,-1.9108,-1.9108,-1.9108,-1.9108,-1.9108,-1.9108,-1.9108,-1.8963,-1.8497,-1.852,-1.8501,-1.8228,-1.8373,-1.8478,-1.8396,-1.8431,-1.834,-1.813,-1.8193,-1.8589,-1.9376,-1.9576,-2.0165,-2.1451,-2.1043,-2.087,-2.1276,-2.1302,-2.1368,-2.1498,-2.1825,-2.2139,-2.2388,-2.2257,-2.2257,-2.2401,-2.2387,-2.2609,-2.3,-2.3014,-2.3014,-0.6222,-0.6572,-0.6926,-0.6821,-0.6784,-0.6827,-0.6958,-0.6948,-0.6893,-0.6865,-0.7377,-0.7866,-0.7916,-0.8738,-0.9657,-1.0401,-1.1417,-1.2523,0.0,0.0,-1.6266,-1.6312,-1.6826,-1.7101,0.0,-1.6908,-1.6908,-1.6908,-1.718,-1.738,-1.738,-1.7787,-1.8052,-1.8159,-1.824,-1.8514,-1.8984,-1.9189,-1.9092,-1.8701,-1.8896,-1.8887,-1.8691,-1.8422,-1.8315,-1.8295,-1.8105,-1.8008,-1.8008,-1.8008,-1.8008,-1.8008,-1.8008,-1.8008,-1.8008,-1.8245,-1.8347,-1.8448,-1.8707,-1.8942,-1.9108,-1.9108,-1.9108,-1.9108,-1.9108,-1.9108,-1.9108,-1.9108,-1.9108,-1.9108,-1.9108,-1.9108,-1.9108,-1.9108,-1.9108,-1.9108,-1.9108,-1.9108,-1.9025,-1.8776,-1.8833,-1.8826,-1.8584,-1.881,-1.8984,-1.8813,-1.8881,-1.8856,-1.8524,-1.8455,-1.8726,-1.9428,-1.9491,-2.0181,-2.187,-2.1461,-2.1341,-2.1877,-2.1904,-2.2021,-2.2283,-2.2374,-2.2518,-2.274,-2.3055,-2.3171,-2.3171,-2.3184,-2.3313,-2.3629,-2.3313,-2.3182,-0.6033,-0.6422,-0.6799,-0.6812,-0.6853,-0.6894,-0.6997,-0.6917,-0.6829,-0.6793,-0.7426,-0.7968,-0.7877,-0.9032,-1.0087,-1.0428,-1.1555,0.0,-1.4469,-1.5918,-1.6688,-1.6358,-1.6963,0.0,-1.6936,-1.6908,-1.6908,-1.6908,-1.6908,-1.6908,-1.6908,-1.7072,-1.7166,-1.7201,-1.7358,-1.777,-1.843,-1.8835,-1.8695,-1.8018,-1.8334,-1.8315,-1.8008,-1.8008,-1.8008,-1.8008,0.0,0.0,-1.8008,-1.8008,-1.8008,-1.8008,-1.8008,-1.8008,-1.8008,-1.8202,-1.8303,-1.8371,-1.8741,-1.8975,-1.9108,-1.9108,-1.9108,-1.9108,-1.9108,-1.9108,-1.9108,-1.9108,-1.9108,-1.9108,-1.9108,-1.9108,-1.9108,-1.9108,-1.9108,-1.9108,-1.9108,-1.9108,-1.9108,-1.9108,-1.9208,-1.9159,-1.8847,-1.9116,-1.9291,-1.9055,-1.922,-1.9279,-1.8983,-1.8954,-1.9177,-1.9688,-1.9757,-2.0548,-2.2479,-2.2182,-2.2099,-2.2622,-2.2571,-2.2781,-2.33,-2.291,-2.2856,-2.3313,-2.3822,-2.4083,-2.4083,-2.4083,-2.4083,-2.4083,-2.3561,-2.3274,-0.6222,-0.6574,-0.675,-0.6526,-0.6641,-0.6767,-0.6616,-0.6578,-0.6675,-0.7041,-0.7545,-0.8254,-0.9337,-1.0009,-1.0718,-1.1668,-1.282,-1.4085,0.0,0.0,-1.6352,-1.6321,0.0,-1.6972,-1.6908,-1.6908,-1.6908,-1.6908,-1.6908,-1.6908,-1.6908,-1.6943,-1.7003,-1.7201,-1.7235,-1.7376,-1.7668,-1.7845,-1.7953,-1.8008,-1.8076,-1.8076,-1.8008,-1.8008,-1.8008,-1.8008,0.0,-1.8008,-1.8008,-1.8008,-1.8008,-1.8008,-1.8008,-1.8008,-1.8008,-1.8042,-1.8245,-1.8516,-1.8908,-1.9075,-1.9108,-1.9108,-1.9108,-1.9108,-1.9108,-1.9108,-1.9108,-1.9108,-1.9108,-1.9108,-1.9108,-1.9108,-1.9108,-1.9108,-1.9108,-1.9108,-1.9108,-1.9108,-1.9108,-1.9108,-1.9108,-1.9154,-1.9191,-1.9279,-1.9241,-1.9092,-1.9278,-1.9309,-1.9112,-1.9233,-1.9707,-2.0748,-2.0855,-2.1504,-2.3111,-2.3187,-2.3343,-2.3822,-2.3367,-2.3354,-2.3926,-2.3874,-2.389,-2.3939,-2.4044,-2.4083,-2.4083,-2.4083,-2.4083,-2.4083,-2.4021,-2.3678,-0.5863,-0.6167,-0.641,-0.658,-0.6933,-0.7272,-0.7402,-0.737,-0.7412,-0.7771,-0.829,-0.8877,-0.9616,-1.0401,-1.1453,-1.3023,0.0,-1.5087,-1.5606,-1.6056,-1.6288,0.0,0.0,-1.6908,-1.6908,-1.6908,-1.6908,-1.6908,-1.6908,-1.6908,-1.6908,-1.6908,-1.6934,-1.7038,-1.7038,-1.7141,-1.7358,-1.752,-1.7657,-1.7852,-1.7852,-1.7896,-1.8008,-1.8008,-1.8008,-1.8008,0.0,-1.8008,-1.8008,-1.8008,-1.8008,-1.8008,-1.8008,-1.8008,-1.8008,-1.8008,-1.8212,-1.8516,-1.8707,-1.8908,-1.9108,-1.9108,-1.9108,-1.9108,-1.9108,-1.9108,-1.9108,-1.9108,-1.9108,-1.9108,-1.9108,-1.9108,-1.9108,-1.9108,-1.9108,-1.9108,-1.9108,-1.9108,-1.9108,-1.9108,-1.9175,-1.9241,-1.9285,-1.9473,-1.9629,-1.963,-1.9801,-1.9891,-1.9711,-1.9765,-2.0057,-2.067,-2.0954,-2.162,-2.2852,-2.2938,-2.3109,-2.3571,-2.3652,-2.3652,-2.3629,-2.3913,-2.4083,-2.4083,-2.4083,-2.4083,-2.4083,-2.4083,-2.4083,-2.4083,-2.3757,-2.3626,-0.5602,-0.5897,-0.6235,-0.6674,-0.7107,-0.7567,-0.8092,-0.8141,-0.8187,-0.8702,-0.9225,-0.9676,-1.0057,-1.1048,0.0,-1.4273,-1.5096,-1.5583,-1.5734,-1.5995,-1.6178,-1.6279,-1.6587,-1.6807,-1.6899,-1.6908,-1.6908,-1.6908,-1.6908,-1.6908,-1.6908,-1.6908,-1.6908,-1.6908,-1.6908,-1.6968,-1.7141,-1.7289,-1.7451,-1.7706,-1.774,-1.7862,-1.8008,-1.8008,-1.8008,-1.8008,-1.8008,-1.8008,-1.8008,-1.8008,-1.8008,-1.8008,-1.8008,-1.8008,-1.8008,-1.8042,-1.8245,-1.8448,-1.8549,-1.8774,-1.9042,-1.9065,-1.9108,-1.9108,-1.9108,-1.9108,-1.9108,-1.9108,-1.9108,-1.9108,-1.9108,-1.9108,-1.9108,-1.9108,-1.9108,-1.9108,-1.9108,-1.9108,-1.9108,-1.9108,-1.9175,-1.9241,-1.9241,-1.9539,-1.9802,-1.9889,-2.0161,-2.0299,-2.0248,-2.0234,-2.0359,-2.0634,-2.096,-2.1601,-2.2701,-2.2736,-2.2853,-2.3167,-2.3613,-2.3665,-2.3208,-2.377,-2.4083,-2.4083,-2.4083,-2.4083,-2.4083,-2.4083,-2.4083,-2.4083,-2.3642,-2.3652,-0.5827,-0.6204,-0.65,-0.666,-0.6774,-0.7104,-0.8062,-0.8231,-0.8537,-0.9812,-1.0197,-1.0598,-1.1558,-1.2549,-1.3708,-1.5106,-1.5129,-1.5215,-1.5882,0.0,-1.5881,-1.6276,-1.6349,-1.6505,-1.6872,-1.6908,-1.6908,-1.6908,-1.6908,-1.6908,-1.6908,-1.6908,-1.6908,-1.6908,-1.6908,-1.6908,-1.6908,-1.6943,-1.721,-1.7706,-1.7896,-1.7974,-1.8008,-1.8008,-1.8008,-1.8008,-1.8008,-1.8008,-1.8008,-1.8008,-1.8008,-1.8008,-1.8008,-1.8008,-1.8008,-1.8202,-1.8303,-1.8371,-1.8674,-1.8808,-1.8841,-1.9042,-1.9108,-1.9108,-1.9108,-1.9108,-1.9108,-1.9108,-1.9108,-1.9108,-1.9108,-1.9108,-1.9108,-1.9108,-1.9108,-1.9108,-1.9108,-1.9108,-1.9108,-1.9108,-1.9108,-1.9098,-1.9098,-1.9241,-1.9351,-1.9351,-1.9781,-2.0204,-2.0355,-2.0387,-2.0698,-2.1444,-2.1424,-2.1916,-2.3241,-2.3335,-2.3317,-2.3221,-2.3234,-2.3263,-2.3182,-2.377,-2.4083,-2.4083,-2.4083,-2.4083,-2.4083,-2.4083,-2.4083,-2.4083,-2.4073,-2.4073,-0.5645,-0.6077,-0.6493,-0.6712,-0.723,-0.7882,-0.8743,-0.9333,-0.9967,-1.1003,-1.1377,-1.1728,-1.2447,-1.3223,-1.4068,-1.4965,-1.4875,-1.502,-1.5884,-1.5541,-1.5373,-1.5881,-1.5927,-1.5982,-1.6138,-1.6147,-1.6147,-1.6147,-1.6147,-1.6147,-1.6147,-1.6147,-1.6147,-1.6147,-1.6404,-1.6541,-1.6541,-1.6634,-1.6837,-1.7029,-1.7474,-1.7735,-1.7818,-1.794,-1.8008,-1.8008,-1.8008,-1.8008,-1.8008,-1.8008,-1.8008,-1.8008,-1.8008,-1.8008,-1.8008,-1.8076,-1.8202,-1.8303,-1.8438,-1.864,-1.8808,-1.8875,-1.9008,-1.9108,-1.9108,-1.9108,-1.9108,-1.9108,-1.9108,-1.9108,-1.9108,-1.9108,-1.9108,-1.9108,-1.9108,-1.9108,-1.9108,-1.9108,-1.9108,-1.9108,-1.9108,-1.9108,-1.9108,-1.9142,-1.9208,-1.9285,-1.9473,-1.9726,-2.0042,-2.0107,-2.0291,-2.0796,-2.1534,-2.2238,-2.2795,-2.3119,-2.3104,-2.2727,-2.3367,-2.3574,-2.3208,-2.377,-2.4083,-2.4083,-2.4083,-2.4083,-2.4083,-2.4083,-2.4083,-2.4083,-2.4083,-2.4083,-0.5572,-0.6015,-0.65,-0.6789,-0.7729,-0.8795,-0.9552,-1.0239,-1.102,-1.2061,-1.2434,-1.2774,-1.3322,-1.3748,-1.4223,0.0,-1.4781,-1.4918,-1.5557,-1.5172,-1.4953,-1.5405,-1.5442,-1.5519,-1.568,-1.5689,-1.5744,-1.5881,-1.589,-1.5936,-1.6065,-1.6074,-1.6019,-1.589,-1.6166,-1.6257,-1.612,-1.6372,-1.6503,-1.6513,-1.6994,-1.733,-1.7514,-1.776,-1.794,-1.8008,-1.8008,-1.8008,-1.8008,-1.8008,-1.8008,-1.8008,-1.8008,-1.8008,-1.8008,-1.8008,-1.8076,-1.8202,-1.8269,-1.8438,-1.8674,-1.8774,-1.8875,-1.9008,-1.9065,-1.9108,-1.9108,-1.9108,-1.9108,-1.9108,-1.9108,-1.9108,-1.9108,-1.9108,-1.9108,-1.9108,-1.9108,-1.9108,-1.9108,-1.9108,-1.9108,-1.9108,-1.9108,-1.9142,-1.9208,-1.9285,-1.9417,-1.9572,-1.9868,-1.9835,-1.99,-2.0205,-2.1167,-2.195,-2.2426,-2.281,-2.3003,-2.2936,-2.3668,-2.3822,-2.3208,-2.377,-2.4083,-2.4083,-2.4083,-2.4083,-2.4083,-2.4083,-2.4083,-2.4083,-2.4083,-2.4083,-0.5669,-0.604,-0.66,-0.6929,-0.8224,-0.9631,-1.0518,-1.0864,-1.1446,-1.2985,-1.3407,-1.3661,-1.4212,-1.4196,-1.4285,-1.4809,-1.4902,-1.4902,-1.4911,-1.4725,-1.4684,-1.4885,-1.4885,-1.5101,-1.5652,-1.568,-1.5854,-1.6251,-1.6279,-1.6486,-1.6872,-1.6899,-1.6716,-1.6321,-1.6288,-1.612,-1.5698,-1.6111,-1.6288,-1.6288,-1.6513,-1.6769,-1.71,-1.7514,-1.7808,-1.8008,-1.8008,-1.8008,-1.8008,-1.8008,-1.8008,-1.8008,-1.8008,-1.8008,-1.8008,-1.8008,-1.8008,-1.8042,-1.8245,-1.8303,-1.8371,-1.8674,-1.8808,-1.8841,-1.9042,-1.9108,-1.9108,-1.9108,-1.9108,-1.9108,-1.9108,-1.9108,-1.9108,-1.9108,-1.9108,-1.9108,-1.9108,-1.9108,-1.9108,-1.9108,-1.9108,-1.9108,-1.9108,-1.9208,-1.9318,-1.9318,-1.9638,-1.99,-1.99,-1.9704,-1.9671,-1.9868,-2.0205,-2.0967,-2.2279,-2.2512,-2.304,-2.4024,-2.4083,-2.3822,-2.3221,-2.377,-2.4083,-2.4083,-2.4083,-2.4083,-2.4083,-2.4083,-2.4083,-2.4083,-2.4083,-2.4083,-0.5669,-0.6478,-0.7392,-0.7296,-0.8914,-1.0643,-1.1087,-1.1632,-1.2406,-1.3596,-1.3891,-1.3956,-1.4139,-1.4356,-1.4579,-1.4724,-1.4774,-1.4893,-1.5261,-1.5022,-1.4874,-1.5026,-1.4836,-1.489,-1.5436,-1.5283,-1.5346,-1.5845,-1.5881,-1.5927,-1.6046,-1.6046,-1.5991,-1.5881,-1.6156,-1.6224,-1.6138,-1.6257,-1.6288,-1.6288,-1.6346,-1.6513,-1.676,-1.6819,-1.7027,-1.7383,-1.7535,-1.7734,-1.8008,-1.8008,-1.8008,-1.8008,-1.8008,-1.8008,-1.8008,-1.8008,-1.8008,-1.8008,-1.8076,-1.8245,-1.8448,-1.8549,-1.8774,-1.9008,-1.9065,-1.9108,-1.9108,-1.9108,-1.9108,-1.9108,-1.9108,-1.9108,-1.9108,-1.9108,-1.9108,-1.9108,-1.9108,-1.9108,-1.9108,-1.9108,-1.9108,-1.9108,-1.9108,-1.9131,-1.9175,-1.9175,-1.9274,-1.9341,-1.9341,-1.9506,-1.9671,-1.9868,-2.0635,-2.1293,-2.1815,-2.2659,-2.3288,-2.3582,-2.3907,-2.4005,-2.3822,-2.3992,-2.4083,-2.4083,-2.4083,-2.4083,-2.4083,-2.4083,-2.4083,-2.4083,-2.4083,-2.4083,-0.6317,-0.7086,-0.7918,-0.8205,-0.9592,-1.1092,-1.1953,-1.2555,-1.3117,-1.3942,-1.3973,-1.3913,-1.4067,-1.429,0.0,-1.4658,-1.4804,-1.5008,-1.5333,-1.5152,-1.5011,-1.5026,-1.4839,-1.4859,-1.5251,-1.5095,-1.5177,-1.5662,-1.5764,-1.5893,-1.6057,-1.6132,-1.6101,-1.5945,-1.6184,-1.6206,-1.6074,-1.623,-1.6288,-1.6288,-1.6288,-1.6346,-1.647,-1.6675,-1.6968,-1.7331,-1.756,-1.7686,-1.7773,-1.7939,-1.8008,-1.8008,-1.8008,-1.8008,-1.8008,-1.8008,-1.8008,-1.8008,-1.8008,-1.8144,-1.8313,-1.8448,-1.864,-1.8875,-1.9031,-1.9108,-1.9108,-1.9108,-1.9108,-1.9108,-1.9108,-1.9108,-1.9108,-1.9108,-1.9108,-1.9108,-1.9108,-1.9108,-1.9108,-1.9108,-1.9108,-1.9108,-1.9108,-1.9108,-1.9108,-1.9108,-1.9108,-1.9108,-1.9175,-1.9308,-1.9506,-1.9736,-2.0313,-2.0848,-2.1164,-2.1928,-2.2537,-2.2854,-2.3322,-2.3675,-2.3819,-2.3995,-2.4083,-2.4083,-2.4083,-2.4083,-2.4083,-2.4083,-2.4083,-2.4083,-2.4083,-2.4083,-0.7258,-0.7717,-0.8264,-0.934,-1.0221,-1.1269,-1.293,-1.3407,-1.3622,-1.4016,-1.381,-1.3673,-1.4033,-1.4127,-1.4256,-1.4572,-1.4932,-1.5163,-1.5163,-1.5163,-1.5111,-1.488,-1.4878,-1.4952,-1.5118,-1.5127,-1.5309,-1.5723,-1.5936,-1.6199,-1.6585,-1.676,-1.6709,-1.6386,-1.6334,-1.6184,-1.5808,-1.6175,-1.6334,-1.6334,-1.6334,-1.6334,-1.6376,-1.6865,-1.7279,-1.7658,-1.7886,-1.774,-1.7422,-1.7842,-1.7988,-1.7959,-1.7998,-1.8008,-1.8008,-1.8008,-1.8008,-1.8008,-1.8008,-1.8008,-1.8076,-1.8381,-1.8516,-1.8617,-1.8975,-1.9108,-1.9108,-1.9108,-1.9108,-1.9108,-1.9108,-1.9108,-1.9108,-1.9108,-1.9108,-1.9108,-1.9108,-1.9108,-1.9108,-1.9108,-1.9108,-1.9108,-1.9108,-1.9108,-1.9108,-1.9108,-1.9108,-1.9142,-1.9285,-1.9175,-1.9241,-1.9539,-1.9615,-1.9889,-2.0473,-2.0762,-2.1195,-2.1947,-2.2427,-2.2847,-2.321,-2.3789,-2.4083,-2.4083,-2.4083,-2.4083,-2.4083,-2.4083,-2.4083,-2.4083,-2.4083,-2.4083,-0.6859,-0.7874,-0.899,-0.961,-1.0835,-1.2156,-1.3212,-1.348,-1.3622,-1.4016,-1.4024,-1.399,-1.4084,-1.435,-1.4487,-1.4256,-1.4547,-1.4804,-1.4804,-1.4804,-1.4802,-1.4749,-1.4741,-1.4919,-1.538,-1.5406,-1.5632,-1.6113,-1.6218,-1.6349,-1.6603,-1.6647,-1.6715,-1.678,-1.678,-1.6734,-1.6642,-1.6734,-1.678,-1.678,-1.678,-1.678,-1.6762,-1.6368,-1.6548,-1.7244,-1.7605,-1.762,-1.7422,-1.7842,-1.7812,-1.7549,-1.7881,-1.8008,-1.8008,-1.8008,-1.8008,-1.8008,-1.8008,-1.811,-1.8245,-1.8303,-1.8506,-1.8741,-1.8841,-1.8965,-1.9108,-1.9108,-1.9108,-1.9108,-1.9108,-1.9108,-1.9108,-1.9108,-1.9108,-1.9108,-1.9108,-1.9108,-1.9108,-1.9108,-1.9108,-1.9108,-1.9108,-1.9108,-1.9108,-1.9108,-1.9108,-1.9098,-1.9142,-1.9208,-1.9274,-1.9351,-1.9638,-1.99,-2.0053,-2.0581,-2.0974,-2.1164,-2.1604,-2.1896,-2.197,-2.3335,-2.4083,-2.4083,-2.4083,-2.4083,-2.4083,-2.4083,-2.4083,-2.4083,-2.4083,-2.4083,-0.7308,-0.8387,-0.9549,-1.0448,-1.1497,-1.2459,-1.3125,-1.3391,-1.3571,-1.3776,-1.3819,-1.3819,-1.3819,-1.3982,-1.4119,-1.4101,-1.4273,-1.447,-1.4658,-1.4684,-1.4684,-1.4684,-1.4684,-1.4794,-1.5083,-1.51,-1.522,-1.5512,-1.5764,-1.5964,-1.6058,-1.6305,-1.6542,-1.6751,-1.676,-1.6795,-1.6908,-1.6908,-1.6908,-1.6908,-1.6908,-1.6908,-1.689,-1.6637,-1.6642,-1.6845,-1.7456,-1.7393,-1.696,-1.7496,-1.7578,-1.7402,-1.7627,-1.7832,-1.8008,-1.8008,-1.8008,-1.8008,-1.8008,-1.8076,-1.8178,-1.8269,-1.8405,-1.8573,-1.8741,-1.8875,-1.8975,-1.9075,-1.9108,-1.9108,-1.9108,-1.9108,-1.9108,-1.9108,-1.9108,-1.9108,-1.9108,-1.9108,-1.9108,-1.9108,-1.9108,-1.9108,-1.9108,-1.9108,-1.9108,-1.9108,-1.9108,-1.9108,-1.9175,-1.9208,-1.9241,-1.9274,-1.944,-1.9506,-1.9506,-1.9846,-2.0096,-2.0258,-2.073,-2.1069,-2.127,-2.2329,-2.3053,-2.3382,-2.3717,-2.3907,-2.4008,-2.4008,-2.4037,-2.4083,-2.4083,-2.4083,-0.7759,-0.8837,-0.999,-1.125,-1.1913,-1.2415,-1.2906,-1.3202,-1.3434,-1.3494,-1.3511,-1.3511,-1.3511,-1.3511,-1.3613,-1.3939,-1.399,-1.411,-1.4435,-1.4487,-1.4487,-1.4487,-1.4538,-1.4614,-1.4614,-1.4649,-1.4684,-1.4684,-1.51,-1.5374,-1.5399,-1.5833,-1.6138,-1.6336,-1.6477,-1.6582,-1.6773,-1.6837,-1.6908,-1.6908,-1.6908,-1.6908,-1.6908,-1.7072,-1.698,-1.6715,-1.7392,-1.724,-1.6632,-1.7239,-1.7451,-1.7425,-1.7461,-1.7656,-1.79,-1.79,-1.79,-1.79,-1.79,-1.7949,-1.8042,-1.8202,-1.8303,-1.8371,-1.8674,-1.8808,-1.8875,-1.9031,-1.9108,-1.9108,-1.9108,-1.9108,-1.9108,-1.9108,-1.9108,-1.9108,-1.9108,-1.9108,-1.9108,-1.9108,-1.9108,-1.9108,-1.9108,-1.9108,-1.9108,-1.9108,-1.9108,-1.9142,-1.9241,-1.9175,-1.9142,-1.9241,-1.9175,-1.9108,-1.9108,-1.9108,-1.9208,-1.9506,-1.9868,-2.0301,-2.073,-2.1144,-2.1698,-2.25,-2.3113,-2.3586,-2.3891,-2.3891,-2.3979,-2.4083,-2.4083,-2.4083,-0.7178,-0.8692,-1.0242,-1.1123,-1.161,-1.2071,-1.2817,-1.3014,-1.3134,0.0,-1.3511,-1.3511,-1.3511,-1.3511,-1.3528,-1.3579,-1.3588,-1.3605,-1.3656,-1.3665,-1.3665,-1.3665,-1.3973,-1.4179,-1.4179,-1.4487,-1.4684,-1.4684,-1.4759,-1.4842,-1.4957,-1.5033,-1.5167,-1.5373,-1.5902,-1.6193,-1.6226,-1.6665,-1.6908,-1.6908,-1.6908,-1.6908,-1.6908,-1.6943,-1.7088,-1.7385,-1.7476,-1.7432,-1.7291,-1.7754,-1.7715,-1.7422,-1.7783,-1.7734,-1.7471,-1.7471,-1.7471,-1.7471,-1.7471,-1.7705,-1.8008,-1.8042,-1.8245,-1.8482,-1.8516,-1.8774,-1.9075,-1.9108,-1.9108,-1.9108,-1.9108,-1.9108,-1.9108,-1.9108,-1.9108,-1.9108,-1.9108,-1.9108,-1.9108,-1.9108,-1.9108,-1.9108,-1.9108,-1.9108,-1.9108,-1.9108,-1.9108,-1.9108,-1.9108,-1.9098,-1.9108,-1.9108,-1.9098,-1.9108,-1.9108,-1.9108,-1.9108,-1.9164,-1.9231,-1.9551,-2.0193,-2.0258,-2.089,-2.2132,-2.2543,-2.3113,-2.3891,-2.3891,-2.3979,-2.4083,-2.4083,-2.4083,-0.7781,-0.8825,-0.9722,-1.0728,-1.1242,-1.1661,-1.2191,-1.25,-1.2757,-1.3134,-1.3211,-1.3271,-1.3468,-1.3511,-1.3511,-1.3511,-1.3511,-1.3511,-1.3511,-1.3511,-1.3511,-1.3511,-1.3665,-1.3768,-1.3768,-1.3922,-1.4024,-1.4024,-1.423,-1.4382,-1.4469,-1.4677,-1.4854,-1.5018,-1.5274,-1.5536,-1.5767,-1.6005,-1.6273,-1.6578,-1.6798,-1.6908,-1.6908,-1.6908,-1.7012,-1.7185,-1.7401,-1.7335,-1.7086,-1.7512,-1.7402,-1.7041,-1.7184,-1.7145,-1.7021,-1.7021,-1.7021,-1.7051,-1.7305,-1.75,-1.7695,-1.7939,-1.8178,-1.8414,-1.8482,-1.8717,-1.8975,-1.9075,-1.9108,-1.9108,-1.9108,-1.9108,-1.9108,-1.9108,-1.9108,-1.9108,-1.9108,-1.9108,-1.9108,-1.9108,-1.9108,-1.9108,-1.9108,-1.9108,-1.9108,-1.9108,-1.9108,-1.9108,-1.9108,-1.9108,-1.9108,-1.9108,-1.9108,-1.9108,-1.9108,-1.9108,-1.9108,-1.9108,-1.9108,-1.9396,-2.0063,-2.0096,-2.073,-2.207,-2.2224,-2.2738,-2.3611,-2.37,-2.3819,-2.3979,-2.4054,-2.4083,-0.7745,-0.8403,-0.8841,-0.99,-1.0615,-1.1174,-1.1532,-1.196,-1.2363,0.0,-1.294,-1.3086,-1.3322,-1.3442,-1.3511,-1.3511,-1.3511,-1.3511,-1.3511,-1.3511,-1.3511,-1.3511,-1.3511,-1.3511,-1.3511,-1.3511,-1.3511,-1.3511,-1.3785,-1.3947,-1.3947,-1.4221,-1.444,-1.4551,-1.4678,-1.4933,-1.5222,-1.5409,-1.5769,-1.6288,-1.6615,-1.6807,-1.6908,-1.6908,-1.6908,-1.6908,-1.7254,-1.7281,-1.7054,-1.7363,-1.7252,-1.6863,-1.6863,-1.6726,-1.6562,-1.6562,-1.6562,-1.6621,-1.707,-1.7285,-1.7484,-1.7871,-1.8144,-1.8337,-1.8448,-1.865,-1.8841,-1.9042,-1.9108,-1.9108,-1.9108,-1.9108,-1.9108,-1.9108,-1.9108,-1.9108,-1.9108,-1.9108,-1.9108,-1.9108,-1.9108,-1.9108,-1.9108,-1.9108,-1.9108,-1.9108,-1.9108,-1.9108,-1.9108,-1.9108,-1.9108,-1.9108,-1.9108,-1.9108,-1.9108,-1.9108,-1.9164,-1.933,-1.9198,-1.9551,-2.057,-2.0291,-2.0826,-2.2329,-2.2206,-2.2555,-2.3463,-2.3509,-2.37,-2.3949,-2.4037,-2.4067,-0.6157,-0.6897,-0.7676,-0.85,-0.9575,-1.0572,-1.104,0.0,-1.1951,-1.2346,-1.2714,-1.3017,-1.3035,-1.328,-1.3511,-1.3511,-1.3511,-1.3511,-1.3511,-1.3511,-1.3511,-1.3511,-1.3511,-1.3511,-1.3511,-1.3511,-1.3511,-1.3511,-1.3528,-1.3536,-1.3536,-1.3554,-1.3571,-1.3562,-1.4126,-1.4428,-1.446,-1.5154,-1.5769,-1.6288,-1.6306,-1.6541,-1.6908,-1.6908,-1.6908,-1.6908,-1.7132,-1.7389,-1.7643,-1.7677,-1.7547,-1.7344,-1.7344,-1.6868,-1.6124,-1.6124,-1.6124,-1.6193,-1.6611,-1.7031,-1.7484,-1.7871,-1.8144,-1.8337,-1.8448,-1.865,-1.8841,-1.9042,-1.9108,-1.9108,-1.9108,-1.9108,-1.9108,-1.9108,-1.9108,-1.9108,-1.9108,-1.9108,-1.9108,-1.9108,-1.9108,-1.9108,-1.9108,-1.9108,-1.9108,-1.9108,-1.9108,-1.9108,-1.9108,-1.9108,-1.9108,-1.9108,-1.9108,-1.9108,-1.9108,-1.9108,-1.9363,-1.9998,-1.9452,-1.9955,-2.1916,-2.0794,-2.1017,-2.3005,-2.2421,-2.2586,-2.3599,-2.345,-2.3641,-2.4083,-2.3979,-2.392,-0.5949,-0.669,-0.7482,-0.8056,-0.8741,-0.9421,-1.0108,-1.0621,-1.1107,-1.1593,-1.1978,-1.2321,-1.256,-1.31,-1.3511,-1.3511,-1.3511,-1.3511,-1.3511,-1.3511,-1.3511,-1.3511,-1.3511,-1.3511,-1.3511,-1.3511,-1.3511,-1.3511,-1.3511,-1.3511,-1.3511,-1.3511,-1.3511,-1.3511,-1.3709,-1.3878,-1.4009,-1.4769,-1.5196,-1.5414,-1.5999,-1.6395,-1.6532,-1.6789,-1.6908,-1.6908,-1.6968,-1.7141,-1.7407,-1.7604,-1.7335,-1.6783,-1.6899,-1.6426,-1.5684,-1.5987,-1.6095,-1.6193,-1.6894,-1.7256,-1.7484,-1.7871,-1.8144,-1.8303,-1.8371,-1.8573,-1.8808,-1.8875,-1.9008,-1.9108,-1.9108,-1.9108,-1.9108,-1.9108,-1.9108,-1.9108,-1.9108,-1.9108,-1.9108,-1.9108,-1.9108,-1.9108,-1.9108,-1.9108,-1.9108,-1.9108,-1.9108,-1.9108,-1.9108,-1.9108,-1.9108,-1.9108,-1.9108,-1.9108,-1.9108,-1.9108,-1.9198,-1.9419,-1.9649,-2.0258,-2.1396,-2.1428,-2.1928,-2.3078,-2.2854,-2.2914,-2.3288,-2.336,-2.3492,-2.3641,-2.3832,-2.3832,-0.5428,-0.6005,-0.6681,-0.7431,-0.7887,-0.8371,-0.9291,-0.9918,-1.0442,-1.092,-1.143,-1.1892,-1.2158,-1.2714,-1.3177,-1.3314,-1.3434,-1.3511,-1.3511,-1.3511,-1.3511,-1.3511,-1.3511,-1.3511,-1.3511,-1.3511,-1.3511,-1.3511,-1.3511,0.0,-1.3511,-1.3511,-1.3511,-1.3511,-1.3511,-1.361,-1.3799,-1.4306,-1.4656,-1.4916,-1.5514,-1.5907,-1.612,-1.6523,-1.6707,-1.6716,-1.6844,-1.7003,-1.7235,-1.7442,-1.7169,-1.6667,-1.6773,-1.6432,-1.5859,-1.6182,-1.6289,-1.6418,-1.7129,-1.7383,-1.7484,-1.7871,-1.8076,-1.8202,-1.8269,-1.8472,-1.8707,-1.8774,-1.8942,-1.9108,-1.9108,-1.9108,-1.9108,-1.9108,-1.9108,-1.9108,-1.9108,-1.9108,-1.9108,-1.9108,-1.9108,-1.9108,-1.9108,-1.9108,-1.9108,-1.9108,-1.9108,-1.9108,-1.9108,-1.9108,-1.9108,-1.9108,-1.9108,-1.9108,-1.9108,-1.9243,-1.9364,-1.9429,-1.9799,-2.0336,-2.1071,-2.1522,-2.2082,-2.275,-2.2975,-2.3108,-2.3108,-2.3241,-2.336,-2.345,-2.3641,-2.3906,0.0,0.0,0.0,-0.6528,-0.7006,-0.7459,-0.8582,0.0,-0.9969,-1.0401,-1.1141,-1.1746,-1.1771,-1.2097,-1.25,-1.2914,-1.3245,-1.3476,-1.3476,-1.3485,-1.3494,-1.3494,-1.3502,-1.3511,-1.3511,-1.3511,-1.3511,-1.3511,-1.3511,-1.3511,-1.3511,-1.3511,-1.3511,-1.3511,-1.3511,-1.3601,-1.3799,-1.3799,-1.4166,-1.4867,-1.4876,-1.5169,-1.5689,-1.6111,-1.6279,-1.6306,-1.6725,-1.6994,-1.7201,-1.7201,-1.7162,-1.7091,-1.7091,-1.6938,-1.6697,-1.6716,-1.6716,-1.6785,-1.7256,-1.7435,-1.7471,-1.7881,-1.8008,-1.8042,-1.8245,-1.8381,-1.8549,-1.8741,-1.8942,-1.9108,-1.9108,-1.9108,-1.9108,-1.9108,-1.9108,-1.9108,-1.9108,-1.9108,-1.9108,-1.9108,-1.9108,-1.9108,-1.9108,-1.9108,-1.9108,-1.9108,-1.9108,-1.9108,-1.9108,-1.9108,-1.9108,-1.9108,-1.9108,-1.9108,-1.9119,-1.9533,-1.9868,-2.0085,-1.994,-2.0218,-2.1051,-2.1092,-2.1439,-2.2082,-2.275,-2.3108,-2.3108,-2.3108,-2.3258,-2.3569,-2.3475,-2.4104,-0.4358,0.0,0.0,0.0,0.0,0.0,0.0,0.0,-0.8654,-0.9655,-1.0149,-1.061,-1.1175,-1.166,-1.2003,-1.2114,-1.2466,-1.2697,-1.2697,-1.2946,-1.3155,-1.3155,-1.3357,-1.3511,-1.3511,-1.3511,-1.3511,0.0,-1.3511,-1.3511,-1.3511,-1.3511,-1.3511,-1.3511,-1.3511,-1.3541,-1.3571,-1.3731,-1.3942,-1.4239,-1.4678,-1.5032,-1.5276,-1.568,-1.6028,-1.6321,-1.6431,-1.6676,-1.7003,-1.7132,-1.706,-1.6902,-1.7025,-1.6938,-1.6736,-1.709,-1.7207,-1.7266,-1.7686,-1.7842,-1.7852,-1.7969,-1.8008,-1.8008,-1.8076,-1.8279,-1.8516,-1.8583,-1.8841,-1.9108,-1.9108,-1.9108,-1.9108,-1.9108,-1.9108,-1.9108,-1.9108,-1.9108,-1.9108,-1.9108,-1.9108,-1.9108,-1.9108,-1.9108,-1.9108,-1.9108,-1.9108,-1.9108,-1.9108,-1.9108,-1.9108,-1.9108,-1.9108,-1.9243,-1.9575,-1.972,-1.9809,-1.9878,-2.029,-2.0476,-2.0377,-2.1302,-2.1928,-2.2101,-2.275,-2.3108,-2.3108,-2.3108,-2.3138,-2.3241,-2.3656,-2.4286,-0.4661,-0.5008,-0.5473,-0.539,0.0,0.0,-0.6977,-0.7387,-0.7834,0.0,-0.9332,-0.9674,-1.0198,-1.0805,-1.1243,-1.126,-1.1652,-1.2065,-1.2346,-1.2586,-1.276,-1.276,-1.292,-1.3108,-1.3271,-1.3288,-1.3348,-1.3502,-1.3511,-1.3511,-1.3511,-1.3511,-1.3511,-1.3511,-1.3511,-1.3511,-1.3511,-1.361,-1.3791,-1.401,-1.4371,-1.4632,-1.4873,-1.5258,-1.5579,-1.5835,-1.6132,-1.645,-1.667,-1.6973,-1.7036,-1.699,-1.7192,-1.7206,-1.7154,-1.7516,-1.7646,-1.7676,-1.793,-1.8008,-1.8008,-1.8008,-1.8008,-1.8008,-1.8008,-1.8245,-1.8516,-1.8516,-1.8774,-1.9108,-1.9108,-1.9108,-1.9108,-1.9108,-1.9108,-1.9108,-1.9108,-1.9108,-1.9108,-1.9108,-1.9108,-1.9108,-1.9108,-1.9108,-1.9108,-1.9108,-1.9108,-1.9108,-1.9108,-1.9108,-1.9108,-1.9108,-1.9108,-1.9212,-1.9482,-1.9855,-1.9917,-1.9533,-2.0234,-2.0479,-2.0096,-2.1328,-2.2036,-2.2113,-2.3016,-2.3346,-2.3108,-2.3108,-2.3233,-2.3471,-2.3903,-2.4501,-0.5133,-0.5057,-0.5073,-0.5658,-0.5557,0.0,-0.6784,-0.7033,-0.724,0.0,-0.8545,-0.8845,-0.9096,-0.9765,-1.0282,-1.0363,-1.0828,-1.143,-1.2166,-1.2303,-1.2329,-1.2329,-1.2363,-1.2526,-1.2906,-1.294,-1.3048,-1.3365,-1.3425,-1.3451,-1.3451,-1.3485,-1.3511,-1.3511,-1.3511,-1.3511,-1.3511,-1.3511,-1.3662,-1.401,-1.401,-1.4169,-1.4524,-1.4873,-1.5056,-1.5139,-1.5918,-1.6276,-1.6315,-1.6743,-1.7003,-1.7235,-1.7392,-1.7554,-1.7706,-1.7896,-1.7974,-1.8008,-1.8008,-1.8008,-1.8008,-1.8008,-1.8008,-1.8008,-1.8008,-1.8212,-1.8482,-1.8516,-1.8808,-1.9108,-1.9108,-1.9108,-1.9108,-1.9108,-1.9108,-1.9108,-1.9108,-1.9108,-1.9108,-1.9108,-1.9108,-1.9108,-1.9108,-1.9108,-1.9108,-1.9108,-1.9108,-1.9108,-1.9108,-1.9108,-1.9108,-1.9108,-1.9108,-1.9119,-1.9181,-1.9882,-2.0006,-1.9233,-1.9903,-2.0267,-2.0107,-2.1201,-2.1903,-2.2082,-2.3275,-2.3653,-2.3108,-2.317,-2.3471,-2.4004,-2.423,-2.4797,-0.5079,-0.5124,-0.5214,-0.5186,-0.5246,0.0,-0.6013,-0.5933,-0.6108,0.0,-0.7398,-0.7555,-0.8666,-0.9103,-0.9363,-0.9646,-1.009,-1.0681,-1.1405,-1.1756,-1.1917,-1.1917,-1.2209,-1.2423,-1.25,-1.2528,-1.2535,-1.2603,-1.2903,-1.3112,-1.3112,-1.3357,-1.3511,-1.3511,-1.3511,-1.3511,-1.3511,-1.3511,-1.3662,-1.401,-1.401,-1.4169,-1.4515,-1.4588,-1.4799,-1.5129,-1.5606,-1.6001,-1.6315,-1.6743,-1.7003,-1.7201,-1.7245,-1.7442,-1.7706,-1.775,-1.7862,-1.8008,-1.8008,-1.8008,-1.8008,-1.8008,-1.8008,-1.8008,-1.8008,-1.8178,-1.8414,-1.8674,-1.8908,-1.9108,-1.9108,-1.9108,-1.9108,-1.9108,-1.9108,-1.9108,-1.9108,-1.9108,-1.9108,-1.9108,-1.9108,-1.9108,-1.9108,-1.9108,-1.9108,-1.9108,-1.9108,-1.9108,-1.9108,-1.9108,-1.9108,-1.9108,-1.9108,-1.9253,-1.9627,-1.9824,-1.9844,-1.9668,-1.9824,-1.9975,-2.0096,-2.0831,-2.1533,-2.2082,-2.2861,-2.3221,-2.3108,-2.3602,-2.3891,-2.4017,-2.4915,-2.5431,-0.548,-0.5441,-0.5432,-0.5215,-0.5331,0.0,0.0,-0.5663,-0.5684,-0.6686,-0.65,-0.6416,-0.7252,-0.7919,-0.8433,-0.8662,-0.9357,-0.9912,-1.0124,-1.0905,-1.1481,-1.1533,-1.1721,-1.191,-1.2071,-1.2088,-1.2192,-1.2372,-1.2597,-1.2717,-1.2717,-1.304,-1.3245,-1.3245,-1.3417,-1.3511,-1.3511,-1.3511,-1.3631,-1.389,-1.398,-1.4139,-1.4396,-1.4485,-1.4616,-1.4827,-1.5221,-1.5625,-1.6037,-1.6441,-1.6793,-1.7072,-1.7166,-1.7304,-1.7476,-1.7638,-1.775,-1.7862,-1.7974,-1.8008,-1.8008,-1.8008,-1.8008,-1.7969,-1.7764,-1.7819,-1.8058,-1.8646,-1.8875,-1.8965,-1.9075,-1.9108,-1.9108,-1.9108,-1.9108,-1.9108,-1.9108,-1.9108,-1.9108,-1.9108,-1.9108,-1.9108,-1.9108,-1.9108,-1.9108,-1.9108,-1.9108,-1.9108,-1.9108,-1.9108,-1.9108,-1.9108,-1.9108,-1.9202,-1.943,-1.9668,-1.9826,-1.9956,-2.0169,-2.0543,-2.1092,-2.1716,-2.2365,-2.3034,-2.3094,-2.3108,-2.3108,-2.396,-2.4406,-2.4431,-2.5222,-2.5749,-0.5837,-0.5766,-0.5707,-0.5437,-0.5575,-0.5791,0.0,0.0,0.0,-0.6149,-0.5837,0.0,0.0,0.0,0.0,0.0,0.0,0.0,0.0,-0.9836,0.0,-1.0751,-1.087,-1.1073,-1.1379,-1.1413,-1.1643,-1.2141,-1.2115,-1.2132,-1.2278,-1.2683,-1.2932,-1.3009,-1.3254,-1.3442,-1.3511,-1.3511,-1.361,-1.3799,-1.392,-1.4079,-1.4297,-1.4417,-1.4485,-1.4533,-1.4928,-1.5285,-1.5606,-1.6028,-1.6431,-1.6798,-1.7044,-1.7166,-1.7235,-1.7501,-1.7638,-1.7706,-1.7896,-1.7974,-1.8008,-1.8008,-1.8008,-1.7949,-1.7607,-1.7622,-1.7879,-1.8506,-1.8741,-1.8841,-1.9008,-1.9075,-1.9108,-1.9108,-1.9108,-1.9108,-1.9108,-1.9108,-1.9108,-1.9108,-1.9108,-1.9108,-1.9108,-1.9108,-1.9108,-1.9108,-1.9108,-1.9108,-1.9108,-1.9108,-1.9108,-1.9108,-1.9108,-1.9108,-1.9108,-1.945,-1.9729,-1.99,-2.0268,-2.0863,-2.169,-2.244,-2.3184,-2.396,-2.3509,-2.3321,-2.3434,-2.4449,-2.4888,-2.4813,-2.5473,-2.6047,-0.5761,-0.5847,-0.5927,-0.5717,-0.5809,-0.5919,-0.5774,0.0,-0.5395,-0.5719,0.0,0.0,0.0,0.0,0.0,0.0,0.0,0.0,-0.7744,-0.8511,-0.8989,-0.8838,-0.9353,-0.9759,-0.9931,-1.0056,-1.0483,-1.1345,-1.1096,-1.1174,-1.184,-1.2252,-1.262,-1.3,-1.3043,-1.3194,-1.3502,-1.3511,-1.361,-1.3799,-1.383,-1.3989,-1.4297,-1.4327,-1.4396,-1.4533,-1.4928,-1.5129,-1.5194,-1.5597,-1.601,-1.6422,-1.6805,-1.7038,-1.7201,-1.7235,-1.7432,-1.7706,-1.774,-1.7862,-1.8008,-1.8008,-1.8008,-1.7998,-1.7959,-1.8065,-1.8244,-1.8327,-1.8573,-1.8808,-1.8841,-1.8975,-1.9108,-1.9108,-1.9108,-1.9108,-1.9108,-1.9108,-1.9108,-1.9108,-1.9108,-1.9108,-1.9108,-1.9108,-1.9108,-1.9108,-1.9108,-1.9108,-1.9108,-1.9108,-1.9108,-1.9108,-1.9108,-1.9108,-1.9108,-1.915,-1.9193,-1.9198,-1.925,-1.9604,-2.0291,-2.1537,-2.2762,-2.3991,-2.3941,-2.4142,-2.46,-2.5222,-2.5272,-2.4813,-2.5921,-2.6436,-0.5766,-0.5847,-0.5942,-0.5755,-0.5852,-0.5955,-0.5748,-0.5493,-0.5374,-0.5647,0.0,0.0,0.0,0.0,0.0,0.0,-0.6491,0.0,0.0,0.0,-0.7882,0.0,0.0,0.0,-0.9665,-0.9493,-0.9674,-1.0369,-1.009,-1.0231,-1.1006,-1.1507,-1.1918,-1.2276,-1.2749,-1.3078,-1.3202,-1.3408,-1.3541,-1.364,-1.3731,-1.386,-1.4019,-1.4207,-1.4327,-1.4396,-1.465,-1.4882,-1.5111,-1.5276,-1.5735,-1.6331,-1.6505,-1.6741,-1.7038,-1.7166,-1.7373,-1.7588,-1.7681,-1.7828,-1.8008,-1.8008,-1.7842,-1.7695,-1.7939,-1.7909,-1.7862,-1.82,-1.8405,-1.8539,-1.8741,-1.8875,-1.8975,-1.9075,-1.9108,-1.9108,-1.9108,-1.9108,-1.9108,-1.9108,-1.9108,-1.9108,-1.9108,-1.9108,-1.9108,-1.9108,-1.9108,-1.9108,-1.9108,-1.9108,-1.9108,-1.9108,-1.9108,-1.9108,-1.9108,-1.9108,-1.9264,-1.9649,-2.0751,-2.1495,-2.1786,-2.2991,-2.3921,-2.4437,-2.4469,-2.4594,-2.4788,-2.5347,-2.5485,-2.5285,-2.6122,-2.6499,-0.5852,-0.5992,-0.6109,-0.5793,-0.59,-0.6046,-0.5771,-0.5588,-0.5534,-0.568,0.0,0.0,0.0,0.0,-0.5461,-0.554,0.0,-0.6145,0.0,-0.617,0.0,0.0,0.0,0.0,0.0,-0.8879,-0.8955,-0.9725,-0.9283,-0.9445,-1.0443,-1.0894,-1.1345,-1.1798,-1.2381,-1.2766,-1.3009,-1.3237,-1.3408,-1.3511,-1.364,-1.3739,-1.3799,-1.4079,-1.4237,-1.4306,-1.4455,-1.4671,-1.4937,-1.4937,-1.5349,-1.5991,-1.6101,-1.6386,-1.6762,-1.7035,-1.7289,-1.7505,-1.7623,-1.7794,-1.8008,-1.8008,-1.7803,-1.7607,-1.792,-1.7803,-1.765,-1.8089,-1.8269,-1.8371,-1.865,-1.8741,-1.8841,-1.9031,-1.9108,-1.9108,-1.9108,-1.9108,-1.9108,-1.9108,-1.9108,-1.9108,-1.9108,-1.9108,-1.9108,-1.9108,-1.9108,-1.9108,-1.9108,-1.9108,-1.9108,-1.9108,-1.9108,-1.9108,-1.9108,-1.9108,-1.9349,-1.9963,-2.1439,-2.2472,-2.2876,-2.3749,-2.4468,-2.5001,-2.5034,-2.5109,-2.5272,-2.5649,-2.5871,-2.585,-2.6298,-2.6499,0.0,0.0,0.0,-0.5852,0.0,0.0,0.0,0.0,-0.5915,-0.5744,-0.5841,-0.5922,-0.5728,-0.548,-0.5395,-0.5658,-0.5813,0.0,0.0,0.0,0.0,0.0,0.0,0.0,0.0,-0.7898,-0.8289,0.0,-0.8795,-0.8893,-1.0418,-1.0648,-1.1054,-1.1789,-1.184,-1.2208,-1.3,-1.3017,-1.3168,-1.3511,-1.3511,-1.3601,-1.3799,-1.395,-1.4109,-1.4306,-1.4455,-1.4515,-1.4533,-1.4533,-1.4772,-1.5175,-1.556,-1.5964,-1.6386,-1.6762,-1.7151,-1.7505,-1.7505,-1.7701,-1.8008,-1.8008,-1.7998,-1.7988,-1.8008,-1.7998,-1.7988,-1.8008,-1.8144,-1.8337,-1.8482,-1.865,-1.8841,-1.9031,-1.9108,-1.9108,-1.9108,-1.9108,-1.9108,-1.9108,-1.9108,-1.9108,-1.9108,-1.9108,-1.9108,-1.9108,-1.9108,-1.9108,-1.9108,-1.9108,-1.9108,-1.9108,-1.9108,-1.9108,-1.9108,-1.9108,-1.9295,-1.9775,-2.0222,-2.1121,-2.2536,-2.2661,-2.3582,-2.5528,-2.5573,-2.585,-2.6449,-2.6461,-2.6461,-2.6461,-2.6487,-2.6499,0.0,0.0,-0.6618,-0.625,0.0,0.0,0.0,0.0,0.0,0.0,-0.5863,-0.5949,-0.5744,-0.5475,-0.5336,-0.5412,-0.5368,-0.5262,0.0,0.0,0.0,0.0,0.0,0.0,0.0,0.0,0.0,-0.8308,-0.8189,0.0,-0.9639,-1.0083,-1.055,-1.1063,-1.1558,-1.2054,-1.2586,-1.288,-1.316,-1.3511,-1.3511,-1.3541,-1.3601,-1.3799,-1.395,-1.4109,-1.4297,-1.4426,-1.4515,-1.4515,-1.4744,-1.5111,-1.5249,-1.5716,-1.6367,-1.6762,-1.7072,-1.7314,-1.7545,-1.7794,-1.8008,-1.8008,-1.8008,-1.7959,-1.7676,-1.7793,-1.7949,-1.7676,-1.7827,-1.8144,-1.8313,-1.8405,-1.8539,-1.8841,-1.8908,-1.8942,-1.9075,-1.9108,-1.9108,-1.9108,-1.9108,-1.9108,-1.9108,-1.9108,-1.9108,-1.9108,-1.9108,-1.9108,-1.9108,-1.9108,-1.9222,-1.9533,-1.9564,-1.9679,-1.9944,-1.9965,-2.0027,-2.0193,-2.1129,-2.2114,-2.3098,-2.3932,-2.4947,-2.6163,-2.6197,-2.6298,-2.6499,-2.6499,-2.6499,-2.6499,-2.6499,-2.6499,-0.6536,-0.6681,0.0,-0.6471,-0.6455,0.0,-0.6071,0.0,-0.6089,0.0,0.0,-0.598,-0.5943,-0.5663,-0.5452,-0.544,-0.5263,-0.5051,0.0,-0.4988,0.0,0.0,0.0,-0.6252,0.0,-0.6396,-0.6762,-0.7736,-0.7693,-0.8112,0.0,-0.9807,-1.0271,-1.0687,-1.1294,-1.1789,-1.2192,-1.2577,-1.2954,-1.3322,-1.3442,-1.3511,-1.3511,-1.37,-1.386,-1.395,-1.4207,-1.4366,-1.4417,-1.4485,-1.4662,-1.49,-1.5047,-1.5505,-1.6147,-1.6551,-1.6917,-1.7235,-1.7569,-1.7784,-1.7896,-1.7974,-1.8008,-1.793,-1.751,-1.7676,-1.793,-1.75,-1.7686,-1.8042,-1.8236,-1.8303,-1.8371,-1.8707,-1.8808,-1.8875,-1.9075,-1.9108,-1.9108,-1.9108,-1.9108,-1.9108,-1.9108,-1.9108,-1.9108,-1.9108,-1.9108,-1.9108,-1.9108,-1.9253,-1.9461,-1.9761,-1.9938,-2.011,-2.0364,-2.054,-2.0633,-2.0633,-2.158,-2.2582,-2.3626,-2.4424,-2.5406,-2.6499,-2.6499,-2.6499,-2.6499,-2.6499,-2.6499,-2.6499,-2.6499,-2.6499]}]]